GFSSGP_prec_cthk_000.txt.gz
RH
34 33 31 30 34 28 26 25 29 38 38 36 41 43 45 45 44 45 41 41 39 37 35 35 37 38 38 38 36 36 33 28 23 16 20 18 19 19 21 20 24 20 17 15 14 15 17 19 20
35 34 33 32 37 32 27 28 31 36 39 41 40 40 42 46 43 38 37 35 36 34 33 35 40 42 41 39 37 35 33 30 30 29 26 24 25 27 27 27 21 18 16 15 15 15 15 15 17
38 36 36 37 38 37 29 30 30 32 34 37 41 40 42 43 42 40 37 36 36 34 34 37 42 45 43 39 38 36 33 33 31 30 34 33 33 30 26 28 22 20 18 15 14 14 16 16 15
39 39 38 39 37 35 33 31 29 31 33 37 37 39 44 41 39 38 36 36 37 35 37 40 44 45 45 40 40 37 34 33 32 30 33 34 42 39 34 30 22 20 19 14 14 14 14 15 16
38 41 45 43 39 35 35 34 29 32 34 38 37 37 43 44 39 39 37 38 39 37 39 44 46 46 45 42 40 39 37 33 30 31 31 32 36 42 41 39 31 24 17 15 15 16 16 15 15
40 39 47 48 40 35 37 36 33 33 35 35 36 36 40 44 43 42 44 42 40 39 42 46 47 48 46 43 41 40 37 36 32 28 29 28 30 36 39 42 38 31 26 25 24 24 23 22 23
41 43 43 43 44 41 36 37 32 35 36 33 34 34 41 44 44 44 44 44 42 41 41 46 45 46 45 42 42 41 41 39 33 27 26 24 24 27 31 32 31 31 31 32 32 32 32 32 32
42 44 43 40 44 44 40 40 35 35 34 31 27 33 36 45 45 46 46 44 46 45 42 44 47 47 44 41 42 44 40 36 33 30 26 25 25 26 24 23 24 26 28 30 32 34 36 37 36
44 50 46 40 37 38 43 43 41 38 35 33 29 29 34 39 44 46 46 44 46 47 43 39 48 49 45 44 43 44 39 35 34 31 27 25 26 27 26 26 27 27 28 27 28 29 30 32 34
47 49 42 35 33 33 43 48 44 40 38 35 33 30 32 35 37 40 41 41 43 43 42 42 44 50 48 46 45 45 42 37 35 33 31 30 29 30 32 33 34 34 33 34 36 37 37 36 35
45 46 41 35 33 34 36 43 45 41 39 37 36 36 35 33 34 35 37 37 37 37 41 46 47 49 50 47 46 45 43 40 37 38 35 33 33 34 36 37 39 38 39 40 41 39 39 38 35
46 40 44 40 37 36 38 39 40 41 39 40 38 36 40 37 32 35 33 35 36 39 40 45 52 52 54 51 48 46 46 43 38 39 38 36 36 38 40 40 42 43 43 43 43 42 41 38 33
49 42 40 41 39 40 40 39 40 39 41 44 40 37 35 38 35 35 36 30 31 37 40 42 50 55 56 55 51 46 46 44 42 43 42 40 40 42 44 45 45 46 46 44 42 40 36 31 28
47 49 46 44 41 41 41 37 42 37 38 44 42 38 35 34 34 35 35 31 29 34 38 41 49 56 58 56 52 48 46 46 46 45 44 44 44 45 44 43 48 48 44 42 38 30 26 27 30
52 52 52 47 46 47 49 44 41 37 38 40 42 38 35 36 36 33 31 29 26 29 33 40 49 54 57 55 52 49 49 48 47 46 47 45 45 45 44 50 50 47 40 33 30 30 30 29 25
60 57 60 50 54 51 54 43 41 41 37 39 41 39 38 38 37 33 34 32 22 24 30 38 46 51 55 52 50 50 48 50 48 48 46 44 44 47 51 52 42 35 33 33 33 30 25 19 16
70 67 60 56 53 58 56 45 42 44 42 40 42 42 41 39 37 34 31 33 27 23 28 34 45 48 50 50 51 49 49 47 48 47 48 48 51 52 47 39 36 35 35 33 28 21 16 15 17
65 66 58 57 59 59 56 48 51 48 41 41 42 42 42 39 35 34 31 33 33 28 28 33 39 43 44 48 48 48 47 47 48 49 50 51 46 40 39 37 38 38 32 25 20 16 17 16 17
70 71 66 65 64 64 63 59 57 53 43 40 40 41 41 40 38 37 33 30 32 30 27 28 34 39 43 47 46 44 46 49 50 49 41 38 39 37 40 40 37 31 25 19 17 16 16 17 17
69 72 67 65 68 67 66 62 60 52 48 46 41 44 44 41 40 38 35 32 29 32 31 29 36 42 46 45 46 48 49 49 46 38 35 35 40 41 39 37 32 27 22 19 17 19 19 19 18
65 67 68 72 68 65 61 54 60 50 47 51 47 46 45 44 41 39 36 35 32 33 36 38 41 42 45 48 48 49 47 41 37 34 38 41 41 40 37 33 28 24 22 22 23 21 20 20 20
70 64 64 63 71 74 81 76 58 53 50 49 48 48 46 48 44 41 39 38 36 36 39 41 42 46 48 45 45 43 38 36 40 42 43 42 40 38 35 31 27 26 26 24 23 23 22 22 21
68 67 66 69 71 79 66 84 59 54 51 45 43 44 46 50 45 42 42 40 38 39 40 42 44 46 45 41 40 37 39 42 45 47 46 41 37 35 33 32 32 31 27 25 25 24 24 23 22
80 80 78 75 77 83 59 80 61 55 42 44 42 47 47 51 45 44 47 43 38 42 43 43 43 44 41 38 38 41 44 46 49 47 42 39 38 37 36 38 36 32 28 26 26 25 24 23 22
82 86 95 96 88 76 63 73 52 46 45 41 46 44 47 49 44 46 47 44 42 43 42 42 38 38 38 39 41 45 48 51 49 45 42 41 40 40 42 41 38 33 29 27 25 24 24 24 24
82 80 90 93 91 67 65 68 55 41 51 49 48 46 49 49 45 47 49 47 42 41 40 39 37 37 40 43 45 48 51 50 47 46 47 47 44 44 44 42 39 35 30 27 26 25 25 25 25
81 92 64 88 82 86 70 62 48 40 51 49 47 45 43 46 48 49 49 47 43 43 43 41 38 39 43 45 47 49 49 49 48 49 51 54 49 45 46 45 42 37 30 27 27 26 26 26 24
73 65 83 89 93 85 72 67 48 41 41 50 48 49 48 49 50 49 47 45 45 45 43 41 40 40 44 46 48 49 50 50 51 49 58 58 49 47 50 47 42 36 30 29 28 28 27 24 22
85 85 75 63 73 90 77 64 34 41 49 53 56 52 49 48 47 45 46 45 43 43 43 44 47 48 49 50 50 52 52 53 52 59 64 55 50 51 51 46 40 32 30 31 29 28 25 23 19
76 72 69 69 58 68 95 74 43 52 50 55 60 53 48 46 45 47 47 45 43 43 45 48 51 52 52 52 53 54 55 59 64 61 63 57 51 49 47 43 34 32 33 30 29 27 24 20 18

GFSSGP_prec_cthk_003.txt.gz
RH
34 33 31 30 31 32 28 25 23 34 36 36 41 44 45 44 44 48 45 43 41 37 35 36 39 41 38 36 36 34 35 32 29 26 25 22 22 20 21 21 21 20 18 16 15 16 17 19 20
36 35 33 33 35 37 29 24 25 35 40 39 39 41 46 52 49 45 44 40 38 34 32 34 38 40 38 39 38 37 34 30 29 29 34 37 32 31 30 28 22 20 18 15 15 15 15 15 16
38 38 37 37 40 40 31 25 24 29 37 40 40 40 43 48 49 47 46 38 35 33 33 35 39 40 41 40 38 37 33 29 29 29 33 40 42 39 33 26 22 20 18 14 15 15 16 16 16
36 39 40 40 38 34 33 29 27 27 30 40 40 43 42 43 43 46 42 41 34 35 35 38 42 44 47 41 39 39 34 30 28 26 30 35 42 42 41 39 30 23 18 15 15 16 16 16 16
37 37 42 43 40 34 33 32 31 31 30 32 37 40 43 43 44 43 38 35 37 35 35 40 45 46 46 44 41 40 36 32 29 28 29 31 38 41 42 42 35 32 27 23 21 20 19 18 18
39 38 44 41 40 37 34 34 32 33 32 32 33 38 42 42 42 42 40 40 40 38 37 42 45 46 46 45 44 41 38 34 32 30 28 28 32 35 38 40 39 34 31 31 31 31 31 31 31
39 41 41 37 35 40 35 36 34 32 33 33 32 35 39 41 41 43 43 45 45 41 41 43 45 46 46 45 44 42 41 38 35 31 28 27 28 30 29 27 26 25 25 27 29 32 34 36 37
41 45 42 38 35 34 37 36 37 34 34 35 33 34 35 38 43 46 45 49 47 45 47 46 44 45 47 46 45 44 46 42 39 35 30 29 28 30 30 30 28 28 28 29 30 30 31 33 35
43 49 44 37 35 30 36 40 40 37 35 35 35 33 30 34 39 45 47 48 49 48 49 49 46 42 49 49 46 45 44 43 39 36 32 30 30 29 29 30 32 34 36 37 38 38 38 40 39
47 49 40 36 34 31 35 39 45 42 40 37 36 35 32 29 34 41 44 45 46 48 48 48 44 42 46 49 48 46 44 44 41 36 34 32 31 31 32 33 34 37 39 41 42 44 43 41 39
44 45 41 38 37 35 35 36 39 43 42 39 38 38 37 33 30 34 37 40 43 43 45 48 48 45 49 49 51 48 47 44 43 38 38 37 33 33 37 37 38 41 43 47 45 42 40 39 35
46 40 42 42 41 41 38 37 38 39 39 43 41 41 38 38 35 29 31 35 36 36 41 45 49 48 50 53 52 54 50 45 43 42 42 41 39 38 39 40 42 43 43 45 45 42 41 39 36
49 43 43 43 43 43 43 39 39 38 38 41 44 43 41 39 37 38 37 34 35 34 39 42 47 51 51 57 58 58 54 49 46 46 45 44 44 44 43 44 45 43 47 47 46 43 37 30 27
48 47 45 45 44 43 45 41 39 33 35 35 39 44 44 42 38 35 37 36 34 32 34 39 46 51 53 59 64 64 59 53 51 47 47 48 48 47 46 46 44 45 48 47 40 32 30 32 31
54 50 46 47 44 45 44 42 39 35 33 34 36 39 44 43 37 35 34 36 35 34 34 36 43 47 52 57 66 67 60 56 51 50 50 52 48 48 48 47 47 50 44 34 33 34 34 30 22
63 60 58 43 47 49 49 41 40 38 36 33 34 34 38 43 38 35 34 35 33 36 31 30 38 43 49 55 63 67 61 56 53 52 53 51 48 51 51 51 46 37 35 36 36 32 26 18 16
65 63 62 58 50 53 55 44 42 42 43 36 34 33 34 39 39 36 36 35 35 38 35 28 31 38 45 53 61 63 63 58 54 52 52 50 50 52 52 42 36 36 37 36 31 25 18 16 16
68 75 66 65 57 59 52 48 51 49 47 39 37 33 35 36 39 40 37 36 35 35 38 34 31 37 43 49 56 59 60 57 55 54 53 53 52 41 35 37 39 39 36 32 24 17 15 15 15
70 74 74 66 65 60 56 53 48 49 47 44 40 38 36 36 37 40 37 35 34 35 40 40 37 36 42 46 52 59 58 55 53 54 54 50 38 33 36 40 39 37 31 21 16 16 17 17 20
69 72 73 66 64 65 61 54 51 48 43 43 43 38 34 35 36 39 39 36 37 35 35 38 41 36 42 48 54 55 55 54 56 54 47 38 35 40 41 42 38 30 23 19 18 18 21 23 23
70 73 70 70 67 63 63 48 45 43 41 39 38 36 34 36 36 38 39 38 38 37 34 33 36 40 45 53 54 53 55 55 52 44 38 40 43 45 46 42 33 26 22 21 19 23 25 24 23
74 71 71 69 70 71 60 56 46 46 40 34 34 37 37 36 37 40 41 39 41 41 36 35 38 49 53 51 51 51 52 51 44 41 41 44 48 48 43 36 32 29 26 23 25 26 25 23 22
73 73 75 76 79 78 64 71 48 44 41 38 39 36 39 39 39 41 42 40 43 44 40 43 46 48 51 51 49 50 51 45 41 42 46 49 50 46 40 36 34 32 30 31 29 26 25 24 24
75 81 82 82 82 82 66 71 43 42 44 41 40 41 40 38 39 44 47 46 45 48 43 47 48 49 49 46 47 47 44 41 43 46 50 52 51 47 42 40 38 37 38 35 29 26 26 25 26
78 87 97 98 95 80 67 68 43 40 41 40 38 40 40 38 40 44 48 47 48 49 44 49 49 48 46 43 43 43 43 45 48 52 55 55 53 50 49 45 43 42 39 35 31 28 27 27 27
88 85 92 89 94 81 61 57 46 40 32 31 35 39 42 40 40 45 49 47 50 53 48 51 50 49 45 42 41 42 46 51 54 56 55 53 52 51 54 51 47 44 40 37 32 29 28 28 27
95 96 69 80 82 98 74 59 48 35 33 31 37 38 41 41 41 45 48 47 53 59 55 52 52 49 44 43 44 45 50 55 57 56 54 54 52 53 60 55 48 45 41 36 30 29 29 28 30
82 82 97 97 95 95 71 74 65 41 33 28 39 39 43 43 43 45 49 49 55 61 61 54 52 49 46 46 48 49 53 55 57 57 56 56 56 59 64 56 47 42 37 32 31 30 30 32 31
90 89 87 80 82 84 78 57 51 49 42 40 47 45 46 47 46 47 50 54 58 60 56 53 52 51 50 51 52 54 56 57 59 59 60 62 66 62 64 58 45 35 32 33 33 30 33 34 33
85 83 84 92 76 63 78 65 60 54 43 42 43 49 55 56 52 52 53 55 58 56 53 53 52 51 53 56 56 57 59 60 61 63 66 70 70 64 63 52 37 32 34 35 31 34 37 36 32

GFSSGP_prec_cthk_006.txt.gz
RH
35 34 33 31 32 33 31 23 23 26 29 36 43 51 50 44 47 49 44 45 44 40 37 41 39 38 37 35 35 33 33 32 29 27 32 30 24 22 20 18 20 20 19 16 14 14 16 17 20
33 35 35 34 36 37 35 23 23 28 29 34 41 51 52 52 51 48 46 45 43 41 38 35 40 38 38 38 38 36 34 30 28 28 31 36 39 35 31 28 20 19 17 15 15 15 14 14 15
33 35 37 38 40 39 34 26 25 28 31 36 40 43 50 50 50 50 49 48 44 41 37 37 42 40 39 40 40 38 34 30 28 29 33 40 42 40 36 28 24 21 16 13 14 14 14 15 15
35 35 35 39 38 36 31 30 28 27 29 34 40 43 44 47 50 52 51 51 48 44 41 38 40 42 44 44 42 39 36 32 29 27 31 37 39 41 42 41 34 30 23 20 18 16 16 16 17
35 36 39 39 38 36 33 32 32 29 31 31 36 41 44 42 43 46 46 46 46 44 42 39 42 45 47 46 44 42 37 33 31 29 32 37 39 39 41 40 36 34 32 30 30 30 29 29 28
38 37 42 39 32 36 37 35 34 31 31 32 36 37 40 44 42 43 43 43 43 41 40 40 43 47 47 47 47 45 41 37 33 33 33 34 37 37 38 36 33 32 29 29 29 30 31 33 34
40 42 41 36 32 32 36 37 36 35 32 33 35 36 37 39 42 42 44 43 45 46 47 44 45 47 49 49 49 48 44 42 38 35 34 33 33 34 35 33 31 30 29 29 30 31 31 31 32
41 45 43 39 34 32 32 35 38 39 35 33 37 36 35 36 40 40 44 46 46 47 49 47 50 49 46 49 51 50 47 46 43 37 36 32 32 34 34 34 33 33 34 36 38 38 38 37 36
43 49 46 40 37 31 32 35 36 42 39 38 37 37 35 36 38 40 44 46 47 51 54 53 57 54 49 48 52 54 49 47 46 43 36 34 33 34 34 34 34 35 37 38 39 42 43 42 40
45 50 41 36 34 33 34 37 39 42 43 41 39 38 38 37 34 35 40 45 47 50 53 54 55 54 49 49 49 56 55 50 44 44 39 34 34 34 34 35 36 38 40 43 44 43 43 41 39
42 43 39 37 36 36 36 36 39 39 41 45 44 43 41 38 36 32 36 43 47 49 51 54 54 55 53 51 51 52 59 55 49 44 40 38 36 37 37 38 40 43 44 48 44 40 41 40 39
44 38 38 38 38 40 40 39 38 37 36 43 47 45 41 38 36 33 31 38 43 46 47 49 52 56 55 54 54 58 58 61 55 47 44 44 43 43 43 42 45 45 48 48 42 43 42 39 34
49 43 41 39 39 39 40 41 41 38 37 38 42 47 45 41 39 38 36 32 33 37 41 42 45 51 56 55 56 61 63 61 60 53 49 47 47 48 47 47 48 49 47 45 44 44 36 30 30
48 48 46 43 41 41 41 37 39 31 35 35 37 41 46 45 42 40 37 35 36 35 37 41 41 47 51 56 58 61 68 69 67 58 54 52 51 52 52 52 50 49 47 45 39 32 32 34 32
51 51 48 44 43 43 40 37 35 30 33 33 33 38 39 42 44 41 39 37 35 34 36 39 42 45 49 55 60 63 69 73 71 64 58 57 54 56 52 51 50 51 43 35 33 36 34 30 24
58 58 59 47 44 43 47 40 33 33 32 31 31 32 35 36 39 42 40 38 36 34 34 38 37 40 49 54 58 63 70 74 71 66 62 57 56 55 54 54 52 40 36 37 36 33 29 23 19
56 60 61 58 54 51 50 43 37 36 34 33 32 31 32 32 33 33 41 39 36 36 34 37 38 35 40 49 54 58 68 73 69 66 60 55 54 52 54 50 36 33 38 37 34 30 22 16 14
55 61 57 57 57 55 55 54 46 44 42 39 37 34 33 31 31 32 38 41 38 37 37 39 40 40 36 41 48 56 63 67 68 65 60 56 55 54 43 36 33 36 37 34 28 20 15 14 17
57 62 64 61 58 60 58 52 47 45 41 39 36 35 35 33 31 33 36 39 40 38 39 37 38 44 40 39 45 55 59 65 69 63 59 58 57 43 37 37 37 40 36 28 20 14 16 18 19
62 64 63 60 58 58 54 47 46 43 40 38 37 33 35 35 32 35 37 37 41 40 38 38 41 47 46 45 49 55 57 62 61 61 59 57 46 39 41 44 44 39 33 24 17 17 20 21 22
65 66 66 63 56 51 55 41 40 34 34 34 33 32 31 33 34 37 38 38 41 42 39 39 41 45 50 51 50 54 59 59 61 60 58 47 43 43 46 46 43 40 33 25 21 22 23 23 23
68 64 66 67 70 73 58 54 36 34 34 32 30 30 30 32 36 36 38 39 40 42 42 41 42 42 48 52 54 54 53 54 58 57 49 45 45 47 47 46 46 41 34 29 27 27 25 25 26
70 68 73 75 79 80 70 75 45 36 33 30 31 35 32 30 35 37 38 39 40 43 44 44 42 43 48 55 61 58 54 54 55 49 46 47 48 50 51 52 50 44 38 35 32 31 30 28 28
82 83 83 84 85 83 67 75 42 39 32 31 31 29 33 30 37 39 40 41 43 44 47 47 44 49 56 58 55 55 51 52 50 46 46 48 52 54 55 54 50 48 45 40 36 34 32 31 31
86 91 94 95 94 79 66 72 42 39 37 37 35 31 33 32 36 39 40 43 45 47 50 51 48 53 59 57 55 53 51 51 46 46 49 53 55 56 56 53 49 50 50 45 39 35 33 33 31
89 90 94 87 90 83 63 63 49 44 41 38 30 31 37 37 39 39 43 43 48 53 54 54 51 55 57 55 52 51 51 47 46 50 55 57 57 58 56 54 52 52 55 48 36 32 31 30 27
98 97 75 87 80 94 76 56 43 40 36 33 30 31 32 36 41 44 45 49 55 57 57 56 53 57 59 53 50 50 47 46 49 52 55 57 59 59 58 58 59 57 56 51 37 30 28 28 31
90 92 97 97 96 92 70 58 54 42 49 49 38 29 31 35 40 42 44 50 62 62 62 63 60 58 59 54 51 49 49 50 52 55 56 58 61 61 61 64 66 63 58 44 34 29 29 33 36
93 91 96 90 92 86 75 50 42 40 50 49 41 36 34 36 41 42 47 52 62 63 68 68 67 62 58 56 52 53 55 55 56 58 60 62 63 64 67 72 71 65 55 43 34 32 37 38 35
71 73 79 83 74 78 78 46 42 60 60 57 51 43 40 43 40 50 52 59 63 63 68 70 69 63 59 57 57 57 59 60 60 61 63 64 65 68 73 75 71 62 51 39 37 42 40 35 37

GFSSGP_prec_cthk_009.txt.gz
RH
31 32 32 31 32 31 31 24 22 24 26 28 33 44 48 47 51 48 43 44 41 41 42 45 43 37 35 35 34 33 31 30 26 31 33 29 25 23 21 20 18 18 16 16 15 14 16 17 23
31 31 32 32 35 33 30 28 23 26 26 27 33 43 50 51 50 50 47 46 45 43 41 43 44 39 35 36 37 36 33 28 25 26 32 34 40 38 31 25 20 18 15 14 15 15 14 14 15
30 32 33 34 36 33 32 28 24 27 29 31 36 40 50 50 60 54 56 48 50 46 45 47 47 40 38 38 39 38 34 31 28 29 33 39 40 37 32 30 25 22 17 16 15 14 14 15 15
31 33 34 34 32 34 33 29 30 27 30 33 37 41 47 52 53 50 49 53 52 58 52 48 52 47 41 42 43 41 36 34 32 31 33 39 38 39 40 37 34 32 28 26 25 24 23 22 21
33 33 36 37 31 32 34 34 33 31 30 32 34 39 46 50 50 52 51 48 52 51 49 50 53 47 45 44 45 44 40 36 33 33 36 40 40 39 44 37 35 34 32 30 30 29 29 29 30
35 34 38 36 30 31 35 37 35 33 31 31 34 39 41 46 47 47 46 47 47 46 45 45 46 47 49 48 47 46 44 40 37 35 37 38 39 39 39 35 30 30 27 26 27 28 30 30 31
35 37 38 35 31 30 31 34 34 35 34 32 33 37 38 42 46 46 45 43 43 45 46 46 49 50 53 49 49 48 46 43 39 38 38 39 39 40 39 34 34 34 32 33 36 37 38 37 37
37 40 41 36 32 30 29 31 33 35 38 35 34 34 34 38 42 45 46 46 46 48 51 51 51 51 54 51 49 50 48 47 42 40 37 37 37 38 38 37 36 34 34 37 37 38 42 42 42
37 45 42 35 34 30 30 33 34 34 38 40 38 37 36 36 38 41 44 47 47 48 55 57 55 55 56 55 52 49 51 52 48 42 40 37 36 37 37 37 35 36 37 39 40 41 42 41 40
41 45 38 32 31 31 31 32 34 35 35 39 41 40 39 38 37 37 40 44 45 48 55 61 62 58 61 54 50 49 50 57 54 48 42 39 36 37 37 35 36 40 40 41 43 44 42 39 39
42 38 36 35 33 33 33 32 35 34 36 37 40 42 40 39 37 35 38 42 46 49 53 58 62 61 62 58 55 53 51 53 58 56 47 41 39 38 40 40 41 43 43 46 47 44 41 40 37
43 36 37 34 36 37 36 35 37 34 30 36 37 41 44 42 39 37 35 37 41 48 50 53 58 61 64 61 56 56 54 58 59 60 53 48 45 43 45 47 47 46 45 47 47 45 43 38 32
48 41 39 38 37 35 35 34 33 33 31 34 37 39 42 44 41 38 36 34 35 44 49 53 55 58 63 64 58 58 57 59 65 62 61 55 52 50 50 51 50 49 46 46 48 42 35 32 32
47 48 45 43 40 38 37 31 36 25 27 29 32 34 37 39 43 42 37 37 35 36 42 47 51 51 52 55 58 60 60 62 64 67 65 61 59 56 54 54 54 50 48 49 41 33 33 34 31
52 52 47 43 41 43 41 39 36 26 27 26 27 28 31 34 37 41 41 39 38 36 35 35 40 43 46 50 56 60 62 62 64 71 72 66 64 61 57 54 52 52 49 38 35 37 36 33 27
55 55 55 46 45 42 42 36 32 32 32 30 27 27 28 29 33 35 41 40 40 38 36 35 36 39 45 51 54 59 61 65 70 73 75 70 67 62 57 54 53 47 37 34 36 35 34 28 23
53 52 55 50 48 49 50 45 37 36 33 31 29 28 28 29 28 31 35 38 41 40 39 37 35 37 40 47 54 59 62 65 67 69 73 69 67 61 54 56 45 37 36 36 33 30 26 21 18
52 57 53 51 48 49 49 46 41 39 39 35 34 31 30 31 31 30 31 34 36 38 41 39 37 37 41 45 49 55 59 63 64 68 74 71 66 59 56 45 38 38 40 34 29 25 22 19 16
53 56 58 55 51 53 47 41 40 38 39 36 35 33 32 31 32 32 31 33 34 37 41 41 40 40 41 47 50 52 50 56 63 66 72 72 66 59 45 40 41 44 41 36 31 26 23 17 16
55 58 55 50 52 53 48 37 36 34 32 34 33 34 32 30 31 31 31 31 34 38 40 41 43 45 43 45 49 53 51 55 62 66 72 71 63 52 41 44 46 44 42 39 36 32 25 19 19
54 57 56 55 58 52 48 34 27 24 24 26 29 30 30 30 29 30 31 32 32 37 39 40 45 45 47 50 53 57 58 56 60 66 69 64 59 45 45 48 48 47 46 45 42 35 28 22 21
58 56 60 62 69 64 53 48 29 28 27 28 28 30 29 30 29 28 30 33 34 36 40 42 45 47 49 54 55 56 57 54 57 61 64 62 50 47 49 51 54 53 51 50 47 41 32 24 24
59 56 61 69 76 76 62 72 35 34 31 30 30 28 27 30 30 28 28 33 36 38 43 44 48 50 54 56 55 55 58 61 55 59 59 49 46 48 52 55 56 55 54 50 48 46 34 27 24
57 64 68 70 81 86 62 73 38 34 32 29 30 31 29 28 33 33 31 35 38 42 45 46 48 52 53 55 57 59 60 61 58 58 51 46 46 50 54 56 58 58 57 52 49 46 37 27 25
61 75 79 86 89 79 68 78 43 37 37 34 31 32 34 32 34 35 35 37 40 40 45 48 48 52 55 57 60 68 61 57 55 55 48 46 47 52 56 58 60 60 58 56 54 48 37 29 29
65 74 79 92 88 80 79 78 47 42 37 34 33 33 34 34 35 37 38 42 43 41 44 48 51 54 57 61 71 65 60 55 57 52 46 47 49 55 58 60 62 62 61 60 58 53 39 33 31
76 75 65 95 93 97 80 59 45 39 35 43 42 40 37 32 37 42 40 43 45 43 47 52 56 58 58 64 67 62 60 58 57 51 49 49 51 56 60 63 64 63 63 64 62 53 40 35 32
73 77 82 86 96 94 73 63 49 38 40 41 47 43 41 37 37 37 40 45 48 49 52 58 61 61 63 70 68 64 60 57 53 54 54 53 55 59 63 66 66 65 66 67 62 48 41 36 39
79 84 90 93 95 92 77 54 42 39 39 42 45 43 44 42 35 39 41 47 53 54 58 62 67 71 66 68 66 62 58 53 55 59 60 59 60 63 67 68 69 68 69 67 57 49 42 42 43
78 80 88 95 88 87 83 53 44 42 51 56 44 47 47 45 40 41 45 48 55 58 67 72 73 73 70 69 64 61 56 56 58 61 63 63 64 68 70 72 72 71 72 67 57 47 42 38 32

GFSSGP_prec_cthk_012.txt.gz
RH
30 30 31 31 33 28 27 23 19 21 23 23 25 32 38 40 46 49 44 43 42 42 47 46 44 40 35 32 31 31 30 27 24 31 30 31 33 31 25 21 17 16 16 15 15 16 19 25 26
29 30 31 32 31 30 27 24 22 22 23 23 26 32 39 44 45 50 47 46 45 46 50 49 47 42 40 34 34 33 33 29 25 29 30 32 35 32 24 20 18 16 14 14 15 16 15 16 18
29 31 32 32 30 27 28 27 25 24 24 25 28 33 42 46 48 51 51 48 47 48 51 51 50 48 44 38 37 36 34 31 29 29 31 35 35 33 31 29 24 21 17 16 15 15 15 15 15
30 31 31 30 28 25 28 28 28 27 25 28 29 32 39 47 53 56 61 54 58 60 54 53 55 51 48 42 40 38 35 33 31 34 33 37 36 37 36 34 31 29 26 26 25 25 25 25 25
29 30 32 30 25 26 28 30 30 29 28 29 31 34 39 45 48 51 52 52 53 52 55 56 56 53 48 43 42 42 39 37 34 38 36 40 38 39 40 33 34 33 31 30 28 27 27 28 27
32 31 31 29 26 26 27 30 31 31 30 30 31 34 38 42 48 50 51 51 55 51 55 54 53 50 48 46 42 43 41 39 37 39 39 39 41 39 40 34 30 29 26 26 28 30 33 33 33
31 32 28 29 27 25 26 28 29 30 32 31 31 35 38 41 47 50 51 50 51 52 51 53 54 52 49 49 45 45 43 41 40 41 41 40 42 42 45 39 34 34 32 32 34 36 37 37 38
36 34 31 30 26 25 26 27 28 29 31 33 33 33 37 40 43 47 51 52 52 50 51 54 57 57 54 51 49 47 46 43 41 41 41 41 41 40 40 38 36 35 34 35 36 38 40 42 42
34 34 30 29 29 26 27 26 28 28 29 32 34 35 33 33 38 43 46 50 51 48 49 54 64 61 59 56 56 54 47 46 47 45 41 39 40 39 39 38 36 36 37 38 40 40 43 43 39
34 35 27 27 30 29 28 29 29 29 29 31 33 35 35 34 35 39 42 46 48 47 48 49 58 63 62 59 61 57 51 49 50 52 47 42 39 40 39 38 37 38 41 42 43 43 44 43 39
36 34 30 33 32 30 29 29 30 29 30 29 32 35 35 38 38 39 40 44 46 48 52 51 56 62 74 70 67 62 57 57 56 51 51 47 43 41 40 41 42 45 44 45 46 45 44 44 38
36 32 34 33 35 37 34 33 30 29 26 31 33 34 34 36 39 39 40 41 44 47 49 50 53 61 61 69 61 67 60 60 59 58 55 52 49 45 44 48 48 49 48 49 48 46 44 41 31
44 36 37 37 35 33 35 32 33 32 29 31 32 35 33 35 37 40 40 39 41 43 45 47 50 55 57 70 63 66 63 64 61 59 60 58 56 54 55 52 50 50 52 52 48 46 37 32 31
43 42 40 38 37 37 36 31 34 27 27 29 29 30 33 34 34 38 41 41 39 40 42 46 47 51 53 54 60 66 68 62 63 63 55 61 63 60 56 56 55 52 53 53 45 36 34 34 33
47 45 39 38 38 38 40 35 32 25 27 26 25 26 27 30 34 34 38 42 41 40 41 42 45 47 50 54 60 59 60 62 66 63 61 61 68 67 63 64 59 54 55 44 36 34 34 33 29
49 48 45 41 41 40 39 32 32 32 30 30 28 26 26 25 27 31 33 38 41 42 41 39 40 43 45 48 54 56 57 60 63 64 64 64 70 73 69 66 58 57 44 37 35 35 31 26 21
49 43 47 45 42 43 43 39 38 35 35 32 30 30 29 26 25 28 30 32 36 40 42 42 40 38 39 46 50 53 56 58 62 62 64 67 70 72 70 66 61 45 37 37 37 33 27 21 20
42 48 43 40 40 41 39 37 35 38 37 35 34 33 31 30 27 27 29 30 31 34 37 42 42 41 40 47 51 54 56 57 61 59 62 66 70 71 69 66 51 40 39 41 36 33 29 24 22
44 43 43 41 40 40 33 30 31 31 31 32 33 33 33 31 30 30 29 30 30 31 34 35 41 43 43 46 47 53 55 57 54 55 63 68 67 68 68 58 44 42 44 41 40 38 33 29 26
45 47 44 41 41 40 36 26 27 28 25 27 28 29 31 32 32 29 30 30 31 30 33 34 35 42 45 46 51 54 60 62 58 56 57 61 64 66 67 50 46 46 46 48 48 46 42 36 29
49 49 46 46 45 45 43 30 22 21 20 21 23 23 24 28 31 31 30 30 32 31 31 33 34 39 44 50 56 56 57 60 61 64 59 59 64 65 56 49 50 49 53 54 52 49 47 42 34
49 45 47 51 53 51 43 37 22 23 23 22 23 23 24 26 28 30 31 29 31 31 31 32 36 37 43 50 54 55 55 60 62 68 62 62 62 61 49 50 53 54 55 56 55 53 49 44 36
51 50 52 52 55 55 42 66 24 25 25 26 24 25 25 26 27 30 31 29 30 32 33 32 37 39 42 48 55 62 64 64 63 66 67 60 59 54 48 51 54 56 56 58 58 57 54 49 40
55 55 55 54 58 65 33 44 29 22 26 28 27 27 28 28 28 29 34 32 30 32 34 37 39 43 43 46 56 65 65 60 62 63 65 63 58 49 50 53 56 57 58 60 60 60 57 53 44
56 58 59 66 72 51 37 41 28 26 31 34 35 32 32 31 30 31 34 36 33 32 34 39 42 43 45 50 56 60 65 64 66 64 60 60 55 52 53 56 59 60 60 62 63 61 58 55 45
56 56 56 59 48 49 50 50 25 25 34 39 45 39 40 36 33 32 34 36 35 35 37 42 45 47 49 54 57 62 64 76 67 63 62 59 52 53 56 58 60 61 63 65 65 62 60 56 42
63 74 63 73 60 78 59 45 42 27 38 42 48 51 45 40 38 35 36 39 37 39 41 46 51 51 54 54 58 65 69 78 67 63 62 56 54 56 57 59 61 64 66 68 67 64 61 53 43
69 72 83 91 85 78 57 62 50 34 45 55 59 62 52 45 41 38 37 42 41 45 49 53 56 56 58 57 61 64 76 70 66 62 60 57 58 59 61 63 65 68 70 71 68 64 61 50 44
76 84 90 87 87 83 78 52 50 43 43 51 50 47 45 46 43 43 40 44 46 52 54 55 58 59 60 64 62 72 78 69 65 64 62 61 64 65 67 68 69 72 74 72 69 64 58 52 46
69 77 85 96 88 93 87 53 57 54 54 54 54 52 54 50 46 48 47 50 51 57 57 58 62 66 69 71 71 75 75 73 69 66 63 65 68 69 70 71 73 76 76 73 69 64 57 47 38

GFSSGP_prec_cthk_015.txt.gz
RH
29 31 31 30 32 30 27 27 23 22 21 22 26 26 32 36 49 51 53 49 43 45 45 38 39 37 36 33 29 28 29 25 27 28 27 29 36 34 29 22 16 14 13 13 14 16 23 26 28
29 31 32 33 33 30 28 28 26 20 23 22 20 23 28 35 38 47 51 47 47 49 50 44 40 42 40 37 33 30 30 28 30 28 24 28 31 30 27 20 18 14 13 13 14 14 15 17 21
26 30 33 35 31 28 29 35 28 25 23 21 23 24 34 40 40 46 48 45 49 53 52 48 46 46 46 43 38 33 31 29 30 32 30 27 27 28 28 26 24 19 17 15 15 14 14 14 15
29 30 31 33 29 26 27 33 29 26 25 24 25 25 33 36 43 47 47 49 54 55 59 54 54 53 51 46 40 35 34 33 34 34 34 32 32 28 30 30 29 27 24 23 23 23 23 24 25
27 30 34 30 25 22 27 27 27 28 28 27 28 29 34 39 41 46 48 53 61 64 66 60 53 50 52 47 40 36 33 36 38 38 37 40 38 38 34 29 31 32 29 28 28 28 28 29 30
32 28 30 26 25 25 27 29 27 26 28 29 27 29 35 34 41 47 48 50 54 58 58 57 54 50 50 49 43 38 35 35 39 41 40 39 40 40 37 31 28 28 27 26 28 30 32 33 34
32 31 27 27 28 26 27 27 26 27 29 29 29 31 39 36 40 46 49 50 53 56 57 57 53 52 53 51 48 41 38 36 39 43 42 42 43 44 43 39 34 31 30 31 35 37 38 38 39
35 31 31 28 25 23 28 29 26 26 28 32 30 30 38 41 40 45 51 53 50 52 53 58 56 53 52 54 51 47 41 37 39 43 44 42 44 44 45 39 36 34 32 34 36 38 38 38 38
36 40 34 30 26 25 28 29 27 25 26 29 30 31 37 36 40 47 50 51 52 52 54 58 59 56 54 62 52 50 47 46 41 42 44 44 45 44 42 38 36 34 35 38 39 40 41 40 37
36 32 29 26 27 30 31 31 29 29 26 26 30 32 32 34 35 42 50 52 52 52 50 53 55 58 60 59 56 52 52 51 45 42 44 51 51 47 47 41 37 36 38 40 41 42 43 41 40
36 32 28 30 32 33 34 32 30 30 30 29 29 33 34 32 35 37 41 47 52 51 51 52 54 59 57 56 62 58 57 63 54 52 52 50 48 49 47 45 42 43 43 44 45 46 44 43 39
34 31 30 34 37 34 34 31 30 28 27 32 32 35 37 33 34 36 40 42 47 52 50 53 53 55 60 58 64 70 66 64 64 56 55 51 49 50 55 54 53 51 48 47 48 48 46 40 32
40 35 31 32 33 34 36 33 34 35 31 29 30 32 33 32 33 36 36 41 46 48 49 52 51 50 56 59 62 64 70 61 70 63 63 58 51 53 57 58 54 53 51 50 50 50 40 33 31
43 41 39 37 34 37 36 29 33 29 25 26 27 30 30 32 32 34 35 37 41 46 47 51 50 53 50 54 57 63 75 66 66 64 69 58 57 57 58 60 58 55 55 53 51 40 35 32 30
45 43 38 33 33 37 36 33 30 26 27 25 24 24 24 27 31 32 36 36 39 43 48 49 49 51 52 50 55 59 59 63 68 71 66 61 63 61 56 64 65 60 60 57 43 37 34 30 28
46 44 40 34 35 36 37 33 28 29 29 29 27 26 25 23 25 29 32 36 36 39 43 48 49 48 50 47 52 58 65 65 62 65 63 63 62 61 62 64 67 65 62 49 39 36 33 29 25
46 44 43 42 40 41 40 36 31 33 30 30 30 30 29 27 25 25 27 32 35 37 40 41 43 46 47 45 53 57 62 63 66 64 60 61 62 64 66 69 66 66 54 47 40 36 32 29 26
48 49 44 40 38 41 38 34 32 32 33 34 32 30 30 30 29 26 25 26 32 36 35 40 39 42 48 50 48 52 59 59 61 59 59 60 62 63 66 69 66 59 51 48 41 36 36 35 31
47 44 42 38 36 35 32 29 27 27 26 26 26 28 29 30 29 31 28 26 29 30 32 33 35 38 42 48 49 50 55 57 57 59 61 60 59 61 64 67 63 50 51 49 43 43 44 43 40
46 43 40 36 34 34 32 24 25 21 19 19 20 21 22 24 28 30 30 30 29 30 33 33 34 34 38 41 45 51 56 56 58 63 63 65 64 62 59 59 50 46 51 50 51 49 48 47 44
43 42 41 42 39 36 35 26 21 20 19 18 18 19 20 21 22 24 29 30 31 29 30 33 35 36 38 37 42 48 52 56 58 63 66 66 68 66 60 55 45 46 51 54 54 54 54 52 51
43 40 41 42 45 45 38 32 20 16 16 16 17 18 17 18 21 22 23 27 31 32 32 31 33 37 40 39 39 41 43 50 58 60 63 66 70 69 66 56 43 49 53 54 57 58 58 57 54
45 44 45 45 50 48 37 51 23 18 16 17 19 20 21 22 23 23 22 23 27 33 35 34 35 38 40 40 43 44 49 54 57 60 67 70 70 70 68 57 45 50 54 56 57 57 58 60 58
46 47 50 52 59 60 36 43 24 20 18 20 20 19 21 24 24 25 24 25 26 30 35 34 37 38 40 43 45 46 51 50 57 66 68 70 67 68 64 57 50 53 55 58 59 60 61 61 59
53 59 59 67 71 51 33 43 29 20 26 26 26 26 28 28 31 29 27 27 30 31 34 35 39 40 42 45 47 50 50 52 60 67 68 67 67 67 64 51 54 58 59 59 60 61 62 63 60
53 54 52 50 42 38 39 44 31 30 27 32 33 30 28 29 40 41 35 29 30 33 34 38 41 43 45 48 53 54 51 56 64 66 66 73 67 66 61 54 57 59 60 60 61 63 66 66 63
60 62 53 64 57 65 44 40 36 33 37 41 39 37 34 37 41 45 45 37 33 37 37 39 43 46 49 53 56 53 57 64 65 67 74 72 66 67 61 58 60 60 61 63 66 68 69 69 64
55 60 76 83 78 64 44 44 45 47 47 52 42 43 48 47 42 48 50 48 38 41 43 44 48 54 56 57 58 61 66 68 70 73 72 68 71 66 59 61 63 64 69 71 72 72 73 70 63
67 72 82 77 83 82 70 41 48 49 52 51 50 52 61 65 68 67 58 55 45 48 50 50 54 57 62 60 62 67 74 76 73 78 74 72 70 64 64 65 69 71 73 75 75 76 75 68 57
63 68 75 90 80 86 81 54 48 52 61 63 55 57 50 54 60 64 60 62 54 55 56 56 59 62 66 65 68 73 75 77 75 77 73 71 70 66 66 68 71 74 78 76 80 80 73 63 60

GFSSGP_prec_cthk_018.txt.gz
RH
27 29 29 28 33 32 31 28 29 25 22 22 25 28 31 35 48 57 55 54 50 40 37 35 34 33 34 35 33 28 26 24 29 28 24 34 38 36 30 21 14 11 11 12 13 15 23 24 25
27 28 29 29 35 36 28 31 33 26 23 23 21 22 27 34 42 48 52 54 53 46 41 38 35 34 36 35 35 31 26 25 28 28 28 28 31 32 31 20 16 14 13 12 12 13 13 15 17
26 28 29 32 32 29 27 34 36 32 24 22 20 21 25 38 39 41 45 46 50 48 43 40 38 39 38 37 37 34 27 27 30 29 29 27 24 23 24 24 22 18 16 16 15 14 13 13 14
26 28 28 29 28 26 24 31 37 33 27 23 24 26 26 35 37 35 40 42 46 47 49 47 47 48 45 38 37 34 28 27 32 32 31 29 27 25 25 26 27 26 24 23 21 21 22 23 24
28 29 33 29 24 22 26 29 30 28 26 26 27 23 36 34 32 36 41 46 50 52 53 54 51 55 50 42 39 34 30 30 33 35 35 36 37 36 28 25 26 28 28 28 29 29 30 29 30
29 26 32 31 26 23 23 25 29 27 25 26 27 26 39 36 33 37 44 46 53 52 56 57 53 54 51 44 42 38 33 32 35 37 38 38 40 42 36 30 27 25 25 27 29 30 32 34 34
31 32 31 28 27 24 25 28 32 29 27 26 28 28 35 41 35 38 46 50 53 55 53 51 51 54 50 47 42 42 37 34 35 37 40 40 42 43 41 38 35 31 29 30 32 35 35 36 36
29 34 34 31 29 24 25 28 33 30 26 27 29 28 40 54 41 39 45 49 51 53 50 50 48 48 49 46 43 42 42 37 37 37 41 45 44 46 44 40 36 34 33 34 35 36 36 37 35
31 39 36 30 30 25 25 29 35 31 28 26 28 28 35 42 43 43 47 52 53 54 52 48 48 49 49 46 45 48 44 40 40 41 41 44 47 46 44 41 37 35 33 35 37 37 39 38 36
35 38 34 28 29 28 30 32 32 32 29 25 28 29 32 34 38 42 45 49 54 53 54 54 51 49 49 49 46 51 49 43 41 45 40 37 45 48 46 45 43 39 37 37 38 39 39 40 39
34 33 28 23 28 28 31 33 31 34 33 28 25 28 31 31 32 36 39 46 52 54 55 55 55 53 50 48 49 50 51 50 46 48 49 46 46 42 46 49 45 45 45 44 42 40 41 42 38
36 34 30 25 29 35 32 33 34 31 32 30 32 29 36 33 31 31 33 38 43 52 54 54 57 57 54 53 52 49 50 55 61 59 59 57 49 46 42 44 51 56 53 51 49 46 45 40 34
36 34 31 29 27 32 33 33 32 31 32 26 26 29 31 36 34 31 33 33 39 47 47 49 51 54 55 54 54 56 56 58 67 66 60 59 55 51 51 50 50 53 53 52 50 49 43 35 33
43 39 38 33 31 30 30 28 29 27 22 28 28 27 27 30 31 32 32 34 34 41 42 46 48 48 52 53 54 56 60 60 64 66 70 62 57 57 55 53 54 50 53 55 52 47 40 35 32
47 46 42 36 30 31 32 33 32 25 24 24 24 24 23 24 26 28 30 33 35 33 38 43 45 45 48 51 54 57 59 60 64 66 67 65 66 67 58 58 57 57 55 58 54 46 42 36 31
47 47 46 31 30 30 35 35 27 29 28 26 25 25 23 22 21 21 26 30 34 34 35 38 42 45 46 47 52 55 58 63 61 64 65 65 62 62 59 59 60 61 60 58 50 47 44 38 31
51 50 47 42 37 35 36 36 31 34 29 29 30 29 26 23 22 22 22 26 29 35 36 38 38 39 42 43 45 51 54 60 61 63 67 64 64 63 58 59 62 62 61 52 49 45 45 41 34
52 54 49 45 44 39 38 37 34 33 32 31 30 29 28 27 26 24 22 22 25 29 34 36 38 38 39 41 45 49 52 58 57 58 60 62 64 59 58 58 60 61 55 49 48 44 46 46 42
54 54 52 48 42 39 36 33 31 28 26 23 25 25 26 26 26 28 28 26 23 24 31 35 35 36 37 38 39 43 48 56 57 55 54 55 59 60 61 59 60 57 45 45 45 44 47 49 46
55 55 54 47 40 37 34 29 26 21 18 19 19 20 20 21 22 24 26 29 29 26 25 31 35 34 33 38 39 42 45 49 54 56 60 63 61 61 63 64 64 56 44 41 41 44 47 52 51
54 52 49 45 40 35 32 27 22 18 18 18 17 17 16 17 17 18 20 22 26 29 29 29 33 35 34 35 44 45 45 46 47 52 60 64 65 65 68 68 67 56 46 42 43 47 50 53 54
50 45 45 43 43 45 36 45 22 17 15 16 15 16 16 16 16 16 17 20 22 24 29 34 35 35 36 37 40 38 39 40 42 47 55 63 67 69 68 69 66 60 50 46 47 48 52 55 56
46 45 44 44 46 48 39 48 23 16 17 15 18 18 19 19 19 19 19 19 21 23 27 29 36 39 39 37 42 39 41 42 44 49 56 64 68 69 71 73 68 63 51 53 52 51 53 55 56
46 46 46 47 50 59 42 38 20 19 19 19 22 22 22 21 22 22 21 22 22 22 24 30 33 40 45 45 44 40 40 43 45 49 57 65 68 70 73 72 67 64 51 53 55 57 60 60 60
49 52 65 69 68 56 35 38 22 20 23 26 29 27 26 28 27 27 25 24 24 25 24 26 35 38 42 47 53 43 40 41 44 51 59 63 68 71 74 71 71 65 53 57 59 60 61 62 61
54 57 63 61 61 50 40 42 28 25 25 29 31 31 30 30 32 35 33 32 30 26 27 28 32 41 43 47 55 48 45 44 48 57 62 67 70 71 71 73 74 60 56 61 61 61 62 63 66
60 63 49 61 50 60 44 32 28 31 31 28 30 33 32 33 47 46 40 35 35 33 30 32 37 40 45 48 55 54 50 47 58 62 68 71 71 69 73 73 71 58 60 61 60 63 67 71 72
55 50 66 70 76 65 44 41 43 42 43 41 37 39 42 38 44 44 44 41 35 36 36 36 42 42 49 54 56 56 52 57 64 66 70 72 74 74 72 70 67 58 60 63 66 70 74 76 74
58 61 64 71 75 81 68 52 44 49 50 48 43 41 46 52 57 55 50 46 44 41 46 45 46 53 52 54 55 57 64 68 71 71 76 75 75 76 70 73 64 60 66 69 73 75 77 76 73
59 66 68 79 75 79 80 59 49 55 56 56 56 55 51 58 57 56 49 48 48 50 59 60 60 70 58 59 59 66 76 74 75 74 75 79 80 72 75 71 64 68 72 75 76 79 78 76 75

GFSSGP_prec_cthk_021.txt.gz
RH
33 32 31 29 31 33 32 27 28 25 24 25 24 27 29 33 37 50 47 48 48 43 42 35 31 30 28 30 30 29 25 21 23 22 26 32 34 32 28 16 12 10 11 11 13 19 23 25 24
32 31 30 31 35 37 32 30 33 31 27 24 22 25 27 39 39 41 44 48 49 46 44 39 34 32 31 33 30 27 25 24 28 27 28 32 31 31 27 18 15 13 12 12 12 12 14 15 15
31 30 29 32 34 32 28 30 32 34 30 25 22 20 21 38 35 39 42 43 46 43 40 38 38 37 36 37 31 28 27 27 27 29 29 29 26 25 20 21 20 18 16 14 14 14 13 14 14
29 30 29 31 29 25 22 31 35 34 30 27 24 23 28 36 33 36 41 39 41 40 38 38 40 43 45 42 37 30 28 27 28 28 29 27 26 25 22 22 22 23 23 23 21 20 21 23 26
30 31 32 30 24 21 23 30 32 30 29 28 27 26 30 34 32 33 34 36 39 42 41 41 42 47 48 46 40 34 29 29 30 31 31 32 31 29 27 23 20 21 24 26 27 28 29 30 28
31 30 35 33 26 22 20 23 32 28 28 28 24 26 32 35 33 33 36 38 42 44 47 46 46 49 48 45 41 35 31 33 33 32 34 37 38 35 31 29 27 25 24 25 27 30 30 30 32
31 31 30 27 24 23 20 22 30 29 28 26 25 26 37 37 37 35 35 39 46 48 50 49 47 47 45 44 41 36 34 35 36 35 36 39 41 38 34 32 30 30 30 30 30 30 31 34 34
31 35 32 29 25 23 20 24 29 30 30 26 27 27 40 40 40 38 38 40 45 50 51 49 50 46 46 44 42 39 39 38 38 39 39 40 44 46 42 40 35 32 30 32 33 34 35 36 35
31 41 38 30 27 23 21 27 31 32 31 28 28 27 36 42 42 45 42 42 42 47 50 49 48 46 44 45 43 41 40 41 43 40 42 43 40 44 47 43 40 39 37 37 36 36 36 38 38
34 39 36 28 25 25 26 28 32 32 29 27 30 29 33 35 38 40 42 43 44 42 45 51 51 47 47 47 44 41 39 40 46 44 43 47 47 42 41 44 45 42 42 43 43 40 39 38 38
32 36 31 28 28 31 31 29 31 33 31 26 27 29 30 31 33 34 38 40 40 45 45 48 52 53 52 48 47 46 41 40 44 44 46 46 52 49 45 43 40 40 46 48 47 45 46 44 38
34 32 31 27 27 33 32 29 31 32 31 29 25 29 31 32 29 31 34 38 39 41 45 44 47 53 53 51 50 47 46 42 44 45 47 56 56 54 49 52 50 43 44 45 49 51 49 45 38
36 34 35 31 29 32 30 29 28 29 31 26 25 27 30 32 33 32 33 34 36 40 40 45 46 45 47 49 50 48 48 47 51 50 53 58 60 53 52 54 53 48 48 47 46 51 50 41 36
37 36 36 34 32 31 32 29 28 25 25 26 25 25 27 31 32 33 31 31 32 36 39 41 43 44 42 42 46 45 49 52 55 55 57 57 60 60 58 55 62 54 50 49 49 50 45 41 37
44 43 40 34 29 30 29 29 28 22 18 19 19 21 23 28 31 29 30 31 30 33 38 39 39 41 43 41 43 46 49 52 55 57 57 56 57 57 58 55 57 54 50 52 53 47 43 40 37
45 46 48 32 31 30 33 33 26 24 26 25 23 21 19 20 25 27 27 29 30 30 33 35 35 35 40 40 44 47 51 53 55 59 61 61 58 61 61 60 61 56 54 55 54 45 43 40 37
50 52 48 43 35 36 37 36 28 28 28 27 26 24 22 20 19 20 22 23 25 28 29 33 34 32 34 39 41 47 50 55 55 59 60 60 58 63 62 63 62 57 55 55 47 44 42 41 39
55 54 47 45 41 43 42 41 33 31 30 27 26 25 25 25 23 22 21 20 19 25 30 33 36 34 33 34 40 44 49 54 57 57 57 58 58 59 60 60 58 59 58 56 46 43 40 40 40
59 55 51 47 43 40 37 36 32 28 27 26 25 25 24 24 25 27 27 26 26 23 27 31 35 35 36 39 39 41 45 49 52 53 55 55 58 57 58 58 58 61 61 55 49 45 42 40 39
62 57 54 49 46 43 39 33 29 26 21 20 19 19 19 19 19 22 25 27 28 29 28 29 33 36 36 36 36 39 43 49 53 57 56 53 55 58 61 61 60 61 65 55 51 49 46 42 42
64 61 58 54 46 41 37 28 22 19 19 19 18 16 16 16 17 17 18 19 24 25 28 31 32 35 37 37 43 45 47 50 55 57 56 55 52 56 59 61 62 64 66 55 52 52 50 47 46
65 56 52 49 47 48 38 48 26 19 18 17 16 15 15 14 14 14 14 15 17 19 23 27 32 35 38 39 41 39 39 41 46 49 50 54 52 58 61 62 66 65 64 59 55 53 52 52 52
62 53 49 47 47 47 40 45 28 20 17 15 16 17 17 17 17 17 17 15 15 15 18 22 26 32 38 37 38 40 40 41 43 50 53 56 58 60 63 65 68 63 66 66 57 54 54 53 54
54 51 47 45 48 56 40 37 28 21 18 17 18 18 18 20 21 21 21 19 18 19 19 21 24 28 33 38 40 41 42 41 44 54 55 54 58 62 67 69 71 69 69 67 59 56 56 55 58
52 50 60 60 62 54 37 43 28 20 21 22 23 23 23 24 24 23 22 21 20 20 21 24 25 26 31 33 38 40 43 44 47 57 58 53 58 65 71 73 74 72 68 69 61 58 57 59 62
52 48 59 64 65 56 40 42 29 22 24 28 29 29 29 28 29 28 26 26 25 26 26 25 25 27 29 35 38 43 43 51 63 62 56 56 60 66 74 76 76 74 71 68 66 59 62 62 63
54 60 53 60 53 62 43 32 25 27 31 36 38 39 39 37 36 35 34 31 29 28 26 27 28 29 31 33 48 51 50 56 62 63 59 63 63 69 76 80 78 72 72 76 65 64 64 63 66
53 49 61 63 68 67 50 43 39 39 41 43 45 47 48 45 46 47 41 37 36 34 29 28 34 35 38 41 48 54 59 61 65 64 63 63 69 76 79 81 78 72 74 74 65 65 65 68 70
57 60 57 59 67 74 74 55 46 47 47 49 51 54 59 62 63 62 59 49 42 41 34 32 33 45 48 54 56 60 69 71 68 65 65 72 78 81 79 88 78 85 73 77 67 66 71 72 74
52 57 62 71 66 72 79 59 49 50 52 54 59 69 75 77 74 66 64 56 47 43 41 36 42 42 59 68 64 61 70 70 68 70 73 79 79 79 81 86 80 77 80 72 69 71 74 76 79

GFSSGP_prec_cthk_024.txt.gz
RH
35 33 32 30 30 32 31 26 29 27 25 25 26 28 30 36 39 45 46 46 47 46 43 39 35 30 28 29 28 26 25 24 24 27 28 27 27 27 24 15 11 10 10 10 16 20 23 23 22
37 35 34 33 36 37 31 26 30 26 24 25 24 25 28 36 37 39 45 48 47 44 43 40 38 34 33 32 31 27 24 24 23 28 29 32 27 26 19 17 15 13 11 12 14 17 19 18 15
38 36 35 36 38 35 29 31 31 29 26 24 23 22 26 29 32 35 40 44 45 44 40 38 37 36 37 38 35 32 26 25 26 30 31 30 29 24 17 18 19 18 15 13 13 13 12 13 13
37 36 35 37 34 24 22 29 30 29 29 25 26 25 27 27 29 32 36 39 42 42 39 36 36 38 40 42 39 37 31 27 27 28 30 29 25 22 21 20 20 22 23 23 23 22 22 23 24
34 36 37 36 28 23 22 29 32 30 26 26 26 26 27 28 28 29 31 37 39 40 37 37 38 40 41 43 41 38 32 31 30 29 28 27 25 26 25 24 22 20 21 25 26 27 28 29 29
37 35 40 36 26 21 19 27 31 29 27 26 25 26 29 30 30 30 30 32 40 40 39 39 40 41 43 46 41 36 32 32 34 32 32 33 32 29 28 27 27 27 28 27 28 29 29 30 29
37 35 35 30 27 24 18 22 30 30 27 25 23 24 28 31 33 32 32 32 39 44 43 42 42 43 44 44 40 37 35 35 35 38 39 40 39 39 37 34 32 30 31 33 33 32 32 33 32
34 36 33 28 26 23 17 22 26 28 24 24 24 28 29 28 35 36 36 35 38 46 51 51 51 46 44 44 43 39 38 37 37 42 41 42 42 40 41 41 38 37 37 37 36 35 35 35 35
36 41 39 30 26 22 18 22 27 28 28 26 25 25 23 26 35 39 38 37 39 44 50 55 55 52 47 45 43 41 39 38 39 43 47 44 45 43 40 40 42 42 42 43 42 42 41 39 38
39 42 36 28 25 25 21 23 29 30 28 27 27 25 29 32 31 35 37 39 41 41 47 52 53 50 48 47 45 42 40 38 38 42 47 46 45 50 49 42 38 39 41 45 46 48 46 44 42
37 38 31 28 26 27 25 25 28 34 31 28 28 27 29 31 30 28 32 33 37 41 45 46 48 51 52 50 49 45 42 40 38 40 45 47 47 47 51 50 47 46 44 40 42 45 49 49 45
34 32 31 27 24 25 29 29 28 30 30 28 27 28 32 33 32 30 29 31 33 38 40 44 47 51 52 54 53 50 45 42 39 39 42 46 46 50 54 56 49 49 49 44 43 44 44 46 43
34 32 31 26 25 27 29 31 29 28 30 29 28 29 29 29 28 30 33 36 37 35 36 38 42 44 49 54 56 54 52 46 43 40 41 45 46 49 54 55 55 53 52 54 45 45 48 45 41
37 33 33 30 30 30 29 29 30 26 28 28 27 28 28 28 29 30 33 34 37 38 35 37 38 39 41 44 47 50 52 51 45 44 45 47 49 50 51 54 61 61 53 53 49 48 49 44 40
40 41 39 33 30 31 30 27 28 24 23 25 28 26 26 25 28 29 28 29 31 31 36 37 36 38 37 36 39 40 44 47 48 49 51 54 53 54 51 51 55 58 57 56 54 51 47 43 40
43 45 46 34 33 30 32 29 23 20 21 21 20 22 23 23 25 28 29 28 28 30 30 35 41 40 40 36 37 39 43 45 47 49 51 54 55 56 54 51 54 61 62 58 56 52 46 41 39
48 51 47 39 32 32 37 35 24 24 25 25 23 21 19 18 17 19 23 27 29 29 32 33 41 46 38 38 42 43 41 44 46 50 51 52 54 56 58 57 59 61 61 59 58 55 47 45 40
50 51 45 43 40 39 37 39 30 29 28 27 25 22 22 20 17 17 19 22 24 29 32 35 36 36 49 48 48 51 52 46 45 49 52 55 56 58 59 59 59 59 58 58 59 53 50 49 46
58 54 53 45 42 41 38 36 32 27 28 27 24 22 22 22 22 23 22 21 22 23 25 30 32 33 39 52 50 49 50 49 45 47 51 53 55 57 57 58 61 63 61 62 59 52 53 51 48
68 59 56 49 47 45 40 34 30 28 25 25 23 22 21 22 22 23 25 26 26 24 23 22 22 30 32 37 46 49 45 46 46 46 50 54 57 60 58 55 59 61 61 62 61 54 53 52 51
70 62 58 56 52 47 42 30 27 22 19 18 17 16 16 16 16 17 20 22 24 26 27 28 26 30 33 35 38 50 61 57 54 54 55 58 61 63 62 62 58 60 64 64 62 53 54 55 54
66 59 56 55 52 56 44 48 29 21 17 16 16 16 16 16 15 15 15 17 17 20 23 26 28 28 32 35 39 42 43 50 50 54 56 58 64 66 62 59 59 61 63 64 63 58 58 57 56
65 59 56 53 54 50 44 50 30 23 19 16 15 15 15 16 15 14 14 14 14 15 15 20 24 26 28 31 34 39 47 51 50 50 52 52 58 66 68 68 65 66 66 63 61 64 60 58 57
63 61 58 56 53 56 40 42 32 21 19 17 17 17 17 17 17 18 19 19 18 18 17 17 19 24 27 29 32 35 42 45 48 50 52 54 56 61 68 69 68 72 72 69 67 68 63 60 57
60 61 62 58 64 50 39 45 34 24 21 21 21 22 22 22 22 22 22 22 23 23 23 22 21 21 26 28 30 36 38 46 45 50 52 54 56 59 66 68 71 74 78 75 71 69 66 63 59
59 55 55 50 62 55 41 45 29 24 25 27 27 28 29 29 28 28 28 27 27 27 27 27 26 25 27 28 28 32 40 46 52 54 55 57 56 60 68 74 76 80 82 78 73 74 65 69 63
57 58 49 56 56 62 46 35 24 29 33 35 35 35 36 37 37 36 34 34 34 33 34 34 30 28 28 27 28 31 34 41 49 49 55 59 67 70 75 78 75 80 81 80 78 70 68 80 65
51 51 62 63 65 62 49 45 42 43 45 45 43 43 44 46 46 46 46 47 49 48 45 40 34 30 28 27 26 28 32 40 46 58 61 64 72 77 76 75 76 82 80 79 84 73 79 80 70
58 62 56 56 61 70 71 54 45 46 47 48 50 52 55 60 60 56 53 53 60 61 55 50 42 35 30 27 29 29 33 41 52 66 73 72 76 77 78 77 77 83 85 85 76 76 81 72 72
55 57 56 67 63 77 78 61 48 48 52 58 61 66 73 73 67 65 65 64 71 71 64 56 48 41 34 31 32 32 37 47 63 69 79 77 75 78 75 76 85 87 82 94 82 92 71 74 73

GFSSGP_prec_cthk_027.txt.gz
RH
38 36 34 32 31 33 32 27 28 27 25 25 28 29 32 37 40 45 44 46 47 45 41 38 39 38 35 31 31 28 26 28 30 28 27 28 27 25 20 15 12 10 10 14 21 21 25 25 21
39 37 35 34 36 37 30 24 28 27 25 24 26 28 31 38 40 42 43 46 48 44 42 40 39 38 36 35 33 32 29 26 30 30 29 29 27 24 15 16 15 14 12 16 20 21 21 19 16
41 39 38 38 40 36 28 24 27 26 25 24 23 24 26 30 36 38 41 44 47 45 42 40 39 37 35 36 37 35 32 28 30 31 31 30 27 23 16 17 17 18 17 16 17 17 16 13 14
43 42 39 41 38 30 26 27 30 27 26 24 24 26 28 27 30 34 37 40 43 45 42 39 38 36 35 35 39 38 36 32 31 34 33 31 28 21 19 19 19 20 21 22 22 23 22 23 24
44 43 45 42 33 28 24 26 32 31 29 25 25 26 26 26 26 31 32 34 40 44 41 40 37 36 37 36 37 38 37 33 32 35 33 30 26 24 24 24 23 22 21 22 24 26 27 27 28
42 43 46 42 30 24 22 25 31 31 27 24 23 25 27 25 23 26 28 30 37 41 41 40 38 37 39 39 36 37 34 32 32 31 31 30 31 32 30 29 28 28 29 29 30 29 30 30 30
37 42 43 36 29 25 21 23 29 30 28 24 24 26 26 25 24 27 29 30 36 39 40 39 39 40 42 42 39 38 37 34 34 34 34 35 33 31 33 35 34 34 33 34 33 34 33 33 33
39 41 40 37 31 23 20 20 24 29 27 24 25 28 25 21 24 26 31 31 33 38 43 40 41 43 43 43 42 40 39 37 37 37 41 45 40 37 34 35 38 39 40 44 42 40 40 38 36
45 48 47 35 30 23 21 21 22 24 27 26 25 23 23 24 23 26 30 32 34 36 42 48 52 52 48 46 44 43 40 40 39 39 41 46 46 41 42 40 36 37 40 42 43 45 46 44 42
46 50 45 36 27 25 23 24 23 24 26 24 24 25 25 29 27 24 26 29 33 35 38 46 54 57 57 49 46 44 41 40 41 42 41 44 46 45 44 46 46 42 42 42 41 43 45 47 48
43 44 38 33 29 29 26 25 25 25 27 25 26 30 32 34 33 31 28 25 26 34 38 41 48 55 54 50 47 45 43 42 42 43 43 43 46 48 48 49 50 50 47 48 48 43 43 44 43
39 39 35 31 29 29 28 27 26 23 24 27 27 33 37 37 38 34 32 29 28 29 33 38 42 46 49 49 49 49 48 45 43 43 44 43 45 47 48 49 54 56 52 50 49 51 45 45 45
36 36 33 30 28 28 27 26 25 22 22 28 28 29 32 35 37 39 38 35 34 32 33 33 38 41 44 47 51 53 52 49 46 44 44 42 44 47 49 50 52 55 54 57 56 50 48 46 42
34 31 31 30 28 27 26 25 26 22 22 23 27 29 30 30 32 32 34 39 37 36 36 37 35 37 40 43 46 49 53 55 50 45 43 43 45 47 52 54 53 52 54 60 58 51 51 51 42
35 37 34 28 27 29 28 26 26 23 22 23 24 26 28 27 27 27 27 32 41 37 37 37 40 41 40 40 40 43 46 48 50 49 45 43 45 48 53 56 54 55 56 60 60 55 57 52 43
42 41 44 33 31 29 30 28 25 22 21 21 21 22 23 25 25 25 26 26 31 37 36 33 36 42 43 44 44 42 42 43 43 42 45 46 49 54 60 59 56 60 58 60 62 60 60 52 46
48 50 45 36 32 33 36 35 24 23 22 21 18 16 17 19 21 23 24 25 29 33 35 33 32 34 37 42 52 50 47 44 43 46 48 50 54 60 63 62 59 59 62 65 62 59 58 51 48
51 46 42 40 34 36 36 37 26 28 27 27 24 20 18 18 16 17 21 23 26 29 34 36 36 34 36 39 47 55 51 49 50 51 49 50 52 55 58 61 61 63 64 63 61 60 59 51 50
47 50 48 41 36 36 35 36 28 26 27 26 25 23 21 19 17 19 19 19 21 21 24 32 34 37 35 40 44 52 55 54 56 58 54 51 51 56 58 61 59 60 62 63 62 61 58 50 51
61 59 55 48 43 41 37 34 28 25 25 26 26 24 22 22 20 21 22 23 23 22 21 24 30 35 38 37 38 40 44 51 56 56 55 52 48 50 53 57 58 60 60 59 58 58 55 51 49
71 66 61 55 50 46 42 34 28 24 23 21 20 19 18 19 19 19 20 23 26 26 25 26 27 28 32 38 37 41 47 46 47 54 56 55 57 59 57 58 60 65 65 63 58 60 58 52 50
79 69 63 58 54 56 46 52 33 25 21 18 16 17 17 17 16 16 16 16 18 22 27 29 30 31 30 30 32 39 41 44 48 53 62 66 67 67 68 66 66 70 67 66 63 61 59 55 53
78 71 64 58 56 52 47 51 33 23 20 17 16 15 16 16 16 15 15 15 16 16 18 20 23 27 29 30 30 33 38 42 45 49 51 59 65 70 70 72 73 73 73 71 74 66 60 61 59
69 66 62 60 54 59 43 45 33 22 20 19 19 17 17 16 16 17 16 17 17 16 16 17 17 18 23 26 29 30 35 42 46 51 56 61 63 65 65 68 66 72 76 75 81 74 65 62 66
64 64 64 54 61 52 43 47 30 23 23 23 21 21 22 22 22 21 21 20 21 21 21 21 20 20 19 19 22 29 35 38 43 48 57 60 63 64 62 63 66 67 78 76 80 82 73 70 70
68 65 61 44 58 54 44 47 30 25 24 24 26 27 27 27 27 28 28 28 27 27 29 27 26 26 25 24 23 25 30 35 38 44 48 61 60 58 63 65 70 72 78 81 80 90 81 75 72
69 69 57 58 55 58 45 36 24 25 30 34 35 34 34 34 35 37 37 37 37 35 37 38 38 36 33 30 28 26 26 29 35 43 47 54 64 68 63 68 71 74 79 83 86 91 80 75 78
62 54 59 58 49 56 46 45 38 34 38 42 44 43 43 44 45 46 47 47 45 45 47 49 49 47 44 40 35 30 28 28 30 33 45 44 54 64 66 65 74 81 83 87 86 82 89 79 79
57 58 55 55 58 61 63 46 43 43 46 47 49 51 53 56 57 58 59 55 49 48 50 54 55 51 50 52 43 35 30 32 31 29 30 44 49 56 65 73 80 84 86 85 78 76 81 81 94
53 55 54 59 57 68 70 61 50 50 51 53 58 59 63 65 62 53 51 49 51 58 62 63 66 62 60 59 50 41 35 35 39 38 35 37 52 63 72 82 86 87 81 80 80 83 82 88 90

GFSSGP_prec_cthk_033.txt.gz
RH
47 46 44 43 42 39 38 31 30 30 30 28 26 25 24 27 33 34 34 36 35 37 36 42 44 43 42 41 38 36 34 32 31 30 30 28 28 26 22 15 14 16 31 37 40 31 25 21 18
46 46 45 43 43 39 34 31 31 31 30 31 30 31 31 31 35 36 38 39 39 38 38 36 41 40 41 42 38 39 39 37 33 31 30 28 27 22 15 13 14 16 27 31 31 27 20 17 13
47 45 45 46 44 37 31 27 28 31 29 30 30 29 28 32 37 37 36 37 40 40 38 36 38 38 36 38 38 36 39 39 36 31 31 29 26 19 18 16 15 17 24 26 25 25 23 18 17
50 47 46 47 40 34 28 27 27 30 30 29 28 28 28 30 32 34 37 37 39 40 37 37 37 36 35 35 33 30 35 38 34 33 32 29 25 22 21 19 19 18 21 23 24 23 22 24 24
54 49 50 48 38 32 29 28 27 31 31 28 28 28 31 32 31 32 33 38 40 39 37 35 37 36 35 34 32 30 30 37 34 34 32 30 25 26 24 23 23 23 24 25 24 25 26 28 28
56 52 51 47 37 32 31 29 27 27 29 30 29 28 29 29 31 32 33 34 38 41 41 39 38 36 35 34 33 31 32 33 36 35 34 31 26 26 29 30 30 30 31 31 32 32 31 31 31
51 51 48 41 37 35 32 31 28 27 27 29 29 29 27 28 28 29 29 32 33 36 39 39 38 38 37 36 34 33 34 36 40 37 36 30 33 31 30 31 34 35 37 39 40 40 38 37 35
47 50 52 43 37 34 32 31 27 26 26 29 30 30 28 30 28 26 29 31 31 33 35 37 38 38 39 38 36 36 36 36 38 38 33 31 35 37 36 37 37 36 39 42 44 41 41 40 39
44 48 47 41 37 33 32 31 27 25 26 29 31 29 28 29 28 26 27 32 34 33 33 34 35 39 40 39 39 38 38 39 40 40 37 33 34 39 40 39 38 42 46 47 45 43 40 38 39
49 46 40 35 34 32 32 32 29 26 25 27 29 32 29 27 29 27 26 25 29 35 35 34 37 38 39 40 42 42 43 43 44 42 40 40 38 36 41 42 41 42 48 48 47 46 46 46 44
51 45 41 36 32 32 32 33 31 27 24 24 27 29 31 30 32 30 29 30 30 34 36 36 35 38 44 47 48 47 49 48 47 44 43 45 45 42 41 42 44 43 45 47 51 50 48 48 47
55 49 45 42 40 38 37 36 35 29 23 23 23 24 26 30 32 34 32 33 34 33 34 37 38 39 42 49 52 53 54 55 48 46 44 45 49 48 46 44 44 45 45 44 48 53 52 52 51
54 50 47 46 46 44 41 40 38 30 25 23 21 21 24 29 30 33 34 36 35 32 32 32 35 40 42 45 49 54 55 55 52 47 45 46 48 49 49 46 45 47 48 48 47 48 51 51 53
52 50 45 41 43 42 42 41 39 31 25 21 20 19 22 26 31 33 35 36 33 32 32 34 32 34 40 43 46 53 53 56 54 50 47 46 47 48 49 48 45 47 48 49 49 49 51 52 52
46 49 45 39 39 38 37 34 34 28 25 20 18 18 19 24 28 30 35 33 32 31 33 33 33 35 34 38 44 47 49 51 53 56 56 50 46 47 48 47 45 46 48 49 51 52 53 54 54
44 44 45 37 33 32 33 31 27 26 24 22 19 17 17 16 23 27 29 28 28 28 28 30 32 32 33 34 38 43 48 50 50 50 53 55 49 47 47 46 45 46 49 50 53 55 56 56 56
47 48 44 37 33 32 31 35 28 26 25 23 21 19 18 17 17 20 24 25 26 28 27 25 26 30 31 34 38 43 43 49 51 50 52 54 52 51 46 45 45 48 52 54 55 56 57 58 60
53 48 42 36 31 34 37 38 32 27 25 24 22 19 19 19 17 18 19 22 23 24 24 24 25 27 32 33 40 47 44 43 47 49 51 55 57 58 54 48 50 51 55 60 59 57 58 61 61
42 42 40 36 34 35 36 36 28 26 25 23 22 21 19 19 20 21 20 19 20 21 22 23 23 24 28 32 33 32 34 35 38 41 48 53 57 59 60 58 58 57 62 67 61 60 62 62 59
48 48 45 41 37 36 36 33 25 24 23 23 22 21 20 20 20 20 19 19 19 18 18 19 21 22 24 27 30 31 33 33 34 38 44 49 54 58 63 65 65 66 70 66 67 65 64 63 60
55 50 47 46 43 40 39 32 24 23 23 21 19 18 18 18 19 19 18 18 19 19 19 19 19 21 22 23 26 27 31 32 34 35 37 45 50 55 61 64 71 74 75 69 65 63 62 63 63
60 54 53 49 51 51 43 42 28 27 22 22 21 20 20 20 21 20 19 19 18 18 18 18 19 22 24 25 24 24 24 26 29 32 35 41 48 51 59 60 66 75 80 76 68 67 63 65 67
70 64 62 59 57 52 48 45 28 26 24 23 23 23 22 22 22 22 22 20 19 18 18 17 17 18 25 28 29 30 29 28 28 29 33 37 42 49 56 61 62 65 73 79 78 78 79 83 79
74 72 71 68 63 60 48 46 29 24 25 25 25 25 25 25 24 24 23 21 20 19 18 18 18 17 20 25 28 29 30 31 32 34 36 37 38 44 52 63 64 65 69 84 86 88 90 90 90
82 81 83 68 70 63 56 50 32 28 27 26 26 25 26 26 26 26 25 23 21 20 19 18 18 19 19 20 22 22 23 23 25 26 29 36 41 44 46 54 61 65 69 74 80 85 87 88 90
86 84 83 65 57 52 53 48 30 29 26 26 27 29 30 30 31 31 30 29 27 26 25 24 22 21 21 23 23 22 22 22 23 24 24 25 29 41 54 57 58 64 72 78 78 81 88 88 88
82 81 66 69 65 59 42 34 27 28 29 30 31 31 30 33 35 36 37 37 37 37 35 34 33 33 31 31 32 32 32 31 30 29 28 29 29 32 40 50 58 63 70 80 87 86 88 90 90
65 67 71 69 60 50 38 37 28 30 29 32 34 36 39 42 43 45 44 43 40 40 40 41 41 40 41 39 38 37 38 39 39 39 38 36 34 34 38 45 53 61 67 72 81 90 95 90 92
67 66 65 64 60 50 42 30 32 33 34 37 42 45 46 47 49 47 43 42 40 39 39 36 36 37 40 42 43 42 41 43 44 46 46 47 46 42 42 45 49 54 64 71 75 82 92 86 95
66 67 64 63 57 58 55 38 36 40 41 46 50 52 52 53 49 45 42 41 39 40 39 38 38 37 38 39 43 48 50 50 53 54 55 59 61 56 52 54 52 54 60 61 70 82 87 90 96

GFSSGP_prec_cthk_036.txt.gz
RH
47 49 47 45 45 38 34 28 26 27 25 22 20 20 22 28 34 36 33 33 35 36 39 37 44 43 41 37 38 35 35 35 36 32 29 29 27 25 22 16 13 33 37 42 38 29 22 18 16
50 47 49 48 45 41 33 30 28 30 28 28 26 24 25 29 32 35 37 36 40 42 44 43 41 38 43 41 38 34 36 36 34 31 29 27 25 21 15 13 16 31 32 35 32 27 18 15 11
56 47 50 50 46 40 36 31 28 31 30 31 30 31 28 33 36 39 37 39 44 44 44 44 39 42 44 43 39 36 35 35 33 30 28 25 23 18 17 16 17 23 28 32 32 24 20 17 16
63 51 47 48 43 36 35 32 29 33 32 32 31 32 32 33 37 41 37 39 44 45 44 40 41 45 45 43 41 37 35 34 32 29 28 26 21 18 18 18 18 19 22 24 23 22 22 23 24
67 55 49 48 42 37 34 31 30 33 32 31 32 31 33 33 33 35 39 39 44 46 45 39 40 40 39 39 39 40 37 35 33 31 29 25 22 23 22 21 20 22 25 25 23 23 25 26 27
70 57 49 46 38 37 34 31 29 31 33 30 31 30 33 32 33 33 34 41 46 47 46 46 42 40 38 38 37 35 37 37 36 33 31 29 25 24 26 27 27 27 28 28 30 30 30 30 30
66 59 48 42 37 37 33 32 30 28 31 30 31 30 31 33 32 32 34 39 40 46 48 45 42 40 39 38 36 34 34 38 41 37 34 29 30 30 30 30 31 32 33 34 38 38 37 36 35
66 60 52 44 39 37 35 32 29 28 28 27 29 30 30 32 29 28 30 31 37 41 44 47 47 44 39 39 37 34 35 37 44 44 40 30 30 33 34 35 35 35 37 38 41 38 37 37 37
58 58 50 44 39 36 33 32 30 28 27 27 27 29 31 30 31 30 28 30 35 35 38 40 43 45 45 46 40 38 37 37 43 46 46 37 38 33 35 36 36 39 42 44 42 40 40 39 37
53 51 43 40 39 36 34 33 32 29 27 26 26 30 30 30 31 31 29 27 31 35 35 35 39 40 42 42 44 41 41 39 42 45 44 46 45 42 41 37 37 40 44 48 46 45 44 44 44
55 47 44 41 38 36 35 35 34 30 29 26 26 28 33 30 32 34 33 30 28 29 33 33 33 37 38 39 43 45 47 46 47 50 51 49 48 46 44 41 38 40 42 46 45 47 50 49 48
58 53 49 43 39 36 34 34 33 31 29 27 25 26 29 35 37 37 36 33 30 30 30 34 34 34 35 44 48 52 51 49 48 49 52 52 49 48 49 48 44 45 45 47 44 45 48 52 52
61 59 55 48 45 41 38 36 34 32 32 30 27 25 26 29 33 35 33 31 30 29 33 33 34 35 36 39 44 51 54 54 51 48 53 53 50 49 51 53 50 48 45 46 44 47 47 47 48
61 60 57 54 50 47 44 42 39 34 35 32 28 25 23 23 25 27 29 31 33 33 30 31 32 34 35 36 40 43 49 56 56 56 51 51 49 47 50 52 53 52 50 44 45 47 47 48 49
56 61 58 55 51 48 47 44 39 38 36 33 29 25 22 19 22 23 25 27 32 36 37 34 32 33 33 33 35 39 43 51 54 57 57 54 52 52 52 52 50 53 52 49 47 45 46 49 51
52 56 62 51 48 47 44 36 36 34 33 32 29 24 22 18 17 20 22 24 29 32 32 34 34 31 31 31 32 35 41 46 50 56 60 59 57 55 56 55 52 53 52 48 48 46 46 50 53
49 42 46 50 46 43 40 33 31 29 28 27 27 25 21 18 16 15 19 21 24 27 28 27 28 29 27 27 30 32 35 39 47 47 51 54 59 59 58 60 56 52 50 47 48 49 51 53 56
40 42 43 37 42 43 39 33 30 27 26 25 24 22 20 19 17 17 16 18 19 22 24 25 25 26 27 29 27 31 31 35 40 42 43 49 50 53 56 55 57 59 51 46 48 54 55 56 58
44 39 37 34 37 36 36 38 28 24 24 23 22 20 19 20 19 18 18 17 17 17 19 20 22 23 25 31 29 28 30 28 34 38 41 44 49 52 52 57 59 59 57 55 55 59 60 62 61
43 40 38 40 37 35 37 36 26 24 23 24 23 21 20 20 19 19 18 17 17 17 17 18 19 21 22 23 26 26 30 32 34 35 37 42 43 48 53 53 57 62 61 63 64 67 67 62 65
48 42 42 39 39 37 34 28 25 24 23 22 21 20 20 20 21 20 20 19 18 17 17 17 17 18 18 19 20 25 28 30 31 31 33 36 40 43 47 49 53 60 66 66 69 72 71 72 70
53 48 43 42 42 40 35 31 28 26 24 24 23 23 23 22 22 22 22 20 19 18 17 18 18 19 20 20 21 25 26 24 24 29 31 33 38 43 45 47 55 55 60 63 70 78 80 77 71
54 48 48 48 47 46 41 38 28 25 25 26 25 25 25 24 24 24 23 22 20 19 17 17 17 16 17 19 23 27 30 30 31 32 29 28 31 37 45 51 59 63 62 63 66 74 81 81 78
60 54 56 55 54 59 44 40 28 26 25 27 27 27 27 26 26 25 26 24 23 22 20 19 18 17 17 17 18 23 30 35 36 38 39 38 36 32 35 40 47 56 63 63 67 72 76 82 82
68 69 77 74 73 57 45 43 29 26 26 26 27 28 30 29 29 29 29 28 25 23 21 20 19 18 18 18 18 19 23 29 35 37 37 37 34 33 36 41 43 45 52 61 70 73 77 84 89
85 78 72 64 52 44 49 42 31 29 28 27 28 30 31 32 33 34 33 32 31 29 28 26 24 22 21 20 21 22 23 24 26 29 32 33 32 32 28 33 41 48 55 57 66 71 77 84 89
95 90 71 65 58 54 40 34 32 31 29 29 32 33 34 35 36 37 36 36 36 35 33 32 33 33 31 30 28 28 29 30 31 33 34 33 37 38 37 32 35 44 53 59 65 66 74 82 88
83 80 82 78 72 58 40 34 29 31 32 34 34 36 37 39 41 42 42 42 41 40 37 36 35 36 37 37 36 35 34 33 33 33 35 37 39 42 43 44 44 44 49 59 62 66 74 81 90
74 72 67 62 55 44 33 28 27 30 31 33 36 41 43 47 47 47 46 42 40 38 34 33 32 32 31 32 33 35 37 39 39 39 41 46 47 49 50 51 50 51 56 58 64 68 72 79 84
68 64 55 54 62 56 45 31 33 33 35 37 43 46 49 51 51 50 47 43 40 36 34 34 32 32 34 34 36 36 36 38 41 46 50 55 59 62 62 58 60 60 58 59 66 68 69 75 83

GFSSGP_prec_cthk_039.txt.gz
RH
52 51 51 47 46 39 35 32 26 25 21 21 19 18 23 29 38 45 45 40 37 34 33 34 41 41 38 35 36 32 34 38 37 31 31 28 27 24 20 14 22 36 40 42 30 24 16 13 12
60 55 53 54 48 46 36 33 28 28 27 22 19 17 19 29 37 42 44 38 38 41 38 41 43 44 41 39 39 36 32 36 33 29 29 26 24 20 14 14 31 34 40 36 29 24 16 11 11
66 61 56 52 49 45 43 38 31 31 25 26 24 22 26 39 36 39 39 40 43 47 42 43 39 43 42 41 39 38 35 33 30 29 27 23 20 16 15 16 26 30 34 35 30 23 17 15 16
74 69 60 54 48 42 44 39 33 32 28 29 29 30 29 31 36 40 39 41 46 50 48 43 37 43 43 43 41 40 39 33 30 28 25 22 19 17 16 16 18 22 26 26 24 21 21 21 24
78 74 67 53 44 43 41 40 34 34 32 31 31 35 41 36 38 40 41 45 51 51 49 43 41 45 44 43 42 41 43 37 33 29 28 25 20 20 20 20 20 20 23 23 22 22 23 24 26
79 74 67 59 47 42 43 40 36 33 34 31 32 34 45 38 39 41 40 44 48 51 48 46 44 45 44 43 43 41 42 42 36 33 29 26 25 23 23 24 26 27 26 26 26 27 28 28 28
85 78 67 60 56 43 42 42 34 32 33 32 33 32 43 42 39 38 40 43 44 48 47 46 41 43 40 42 43 39 39 41 40 36 33 26 26 28 28 28 28 28 29 31 32 33 32 33 33
83 74 71 62 58 43 43 41 35 34 31 34 30 32 39 41 34 33 39 44 44 44 46 46 43 40 37 36 37 37 37 39 41 39 36 32 27 28 32 32 32 32 34 36 38 35 34 33 32
74 76 75 63 57 47 44 41 36 33 32 28 31 35 38 36 30 29 30 33 40 40 42 45 45 44 43 42 37 37 35 37 42 42 41 32 34 30 31 33 34 34 36 39 38 37 38 38 37
57 66 61 60 59 53 48 38 37 32 29 27 27 29 33 34 29 31 30 30 37 37 39 41 42 42 42 43 43 38 43 42 43 44 44 41 44 41 38 35 33 34 37 40 41 40 41 42 42
51 52 53 64 61 53 47 38 38 34 32 29 28 30 34 33 34 35 35 34 33 32 34 37 38 38 38 40 44 45 45 46 46 45 45 45 47 48 43 40 35 34 38 40 40 41 41 42 45
61 50 54 57 53 46 43 41 38 35 34 32 31 29 28 35 34 34 36 36 34 32 31 32 36 37 37 39 41 44 45 46 48 48 46 46 51 50 48 46 45 43 43 43 42 42 43 41 43
64 62 59 56 50 44 41 38 37 36 36 34 31 27 25 27 34 38 34 35 34 33 31 29 31 36 39 39 41 46 50 51 52 51 50 50 53 55 52 50 47 48 49 47 44 42 43 44 45
59 69 66 60 57 53 44 40 38 35 36 34 32 28 26 24 25 29 35 33 32 32 32 32 32 35 39 35 39 43 46 48 50 52 54 53 50 55 55 57 53 48 50 50 49 46 42 42 44
60 65 67 64 63 59 51 45 40 38 38 33 31 30 27 24 22 23 24 27 33 38 36 33 33 31 30 31 32 37 43 45 43 45 48 53 53 53 55 58 56 54 54 53 51 51 46 42 43
63 60 66 63 64 61 55 43 43 41 39 35 34 32 29 26 22 19 20 23 25 27 29 36 38 33 33 33 32 30 34 40 42 44 48 50 53 56 59 59 57 56 57 58 55 52 48 44 44
61 54 56 59 58 61 53 46 45 40 37 35 34 32 30 28 24 19 18 20 20 23 26 28 32 36 35 34 35 32 33 36 40 43 47 49 53 57 60 61 62 62 63 62 61 55 50 47 46
49 49 45 49 58 56 52 46 43 38 37 34 31 29 28 27 25 22 20 18 19 19 22 24 27 29 33 35 38 32 30 31 35 39 41 42 46 49 53 58 62 61 60 62 64 63 57 52 49
48 46 43 42 48 54 57 44 37 37 32 28 25 25 24 23 24 24 20 18 16 16 18 20 23 27 27 30 33 31 26 25 27 32 35 48 47 49 48 52 54 56 58 56 60 60 58 59 57
53 50 46 48 43 44 43 45 36 35 27 23 22 23 23 23 23 22 19 18 17 16 17 17 18 20 21 23 24 28 26 23 25 27 30 37 38 45 49 47 51 54 55 59 60 61 61 62 65
56 52 43 46 44 42 42 40 36 32 29 25 22 20 20 20 20 21 21 21 19 18 16 16 17 17 18 18 19 21 29 30 27 24 25 28 36 42 48 49 50 53 56 56 60 64 63 64 69
56 54 47 48 46 35 37 26 33 35 25 23 21 21 21 22 23 24 24 22 20 19 17 16 16 17 18 20 21 21 23 28 29 29 28 28 32 36 45 50 50 52 53 54 52 59 69 72 74
65 53 47 46 50 49 46 36 34 27 26 29 27 26 25 24 24 25 23 23 22 20 18 17 16 16 16 17 18 21 24 28 34 35 34 33 32 31 36 45 48 49 52 56 59 62 63 69 73
65 54 49 48 52 62 41 34 32 26 23 25 26 27 27 26 26 26 25 24 24 23 21 19 19 19 18 17 17 17 18 23 31 35 37 38 38 38 36 37 45 47 49 54 58 64 65 70 75
62 56 67 67 71 55 45 42 31 26 24 27 27 28 29 28 28 28 28 26 26 25 24 23 23 21 21 20 19 20 19 19 24 32 38 41 42 44 40 41 46 46 49 52 55 60 59 62 71
63 61 69 62 58 52 48 43 32 28 27 27 28 29 29 29 30 32 32 30 30 31 30 29 29 28 27 25 23 23 24 25 26 26 31 40 45 48 49 44 40 41 45 50 58 57 59 61 65
81 77 62 55 47 47 39 36 35 33 30 27 28 30 32 32 33 35 34 35 35 34 33 32 32 32 33 35 34 33 32 31 32 31 33 36 39 41 44 50 46 42 44 46 50 57 60 60 67
91 77 81 72 74 53 43 35 30 31 31 31 33 35 36 35 38 39 38 39 39 37 35 34 34 33 33 33 35 36 37 36 34 31 32 34 35 38 45 46 49 50 55 56 57 58 62 65 66
94 97 84 76 65 62 45 36 32 32 34 34 35 37 38 41 45 44 43 43 42 38 35 34 33 31 29 29 29 31 34 36 37 35 35 36 37 38 43 52 56 65 65 66 69 68 68 73 75
77 76 76 74 75 58 52 46 36 37 36 34 37 40 44 49 48 46 45 45 43 39 37 37 36 33 31 30 32 35 37 40 41 37 37 39 42 41 41 47 54 65 76 73 73 74 70 75 80

GFSSGP_prec_cthk_042.txt.gz
RH
53 50 50 47 46 39 36 30 28 26 23 21 20 22 25 31 40 53 50 48 41 34 28 28 33 37 37 34 39 37 37 36 38 32 31 26 26 23 18 19 31 37 40 32 26 17 13 11 10
58 58 56 56 53 49 37 35 31 27 26 23 19 17 22 41 38 44 48 46 44 35 30 32 36 37 36 37 37 37 37 33 32 27 27 25 22 18 14 28 32 39 38 32 26 17 12 11 11
66 64 63 59 56 50 44 40 35 31 26 23 21 17 21 41 42 43 44 43 45 36 35 36 41 41 39 40 38 37 38 34 29 27 25 22 17 15 14 25 26 31 32 29 26 20 17 17 19
76 70 63 62 55 46 46 46 42 34 28 25 25 24 28 38 37 36 38 44 45 40 38 37 38 41 42 42 41 40 40 36 29 28 24 19 17 15 15 19 22 26 26 24 21 18 18 20 22
85 78 69 60 54 48 47 50 43 37 33 29 27 33 36 31 33 35 37 43 44 40 42 40 38 42 44 42 40 40 41 38 33 28 24 21 18 19 18 18 20 24 24 24 21 21 22 23 23
86 85 81 67 53 49 51 51 44 39 35 31 30 39 44 39 37 38 42 44 48 46 45 41 37 44 44 43 42 41 43 42 35 33 26 21 22 21 21 22 23 25 27 26 25 27 27 28 27
88 88 82 74 64 55 45 54 44 37 37 32 34 35 48 43 40 43 46 46 47 46 43 40 37 41 44 44 42 41 40 42 40 34 31 25 22 24 25 25 26 26 26 27 28 29 29 29 30
87 89 88 76 74 67 51 53 46 39 34 38 33 40 60 44 38 43 47 46 45 44 42 42 37 36 34 34 36 40 39 41 41 38 33 29 25 24 24 27 29 29 30 30 32 32 32 32 31
85 92 94 79 75 67 59 54 46 42 36 35 34 39 54 48 36 37 40 41 44 43 43 42 38 36 33 33 34 35 36 38 41 40 39 31 27 27 28 27 30 31 32 33 35 35 35 36 37
84 85 82 78 75 71 66 60 45 41 35 33 32 34 41 41 33 31 33 36 41 39 39 37 39 41 38 38 35 34 34 34 39 42 42 35 30 30 31 32 31 31 32 33 35 35 37 37 39
71 68 70 81 74 70 75 62 47 40 38 32 30 33 38 38 33 31 30 31 33 37 40 39 39 37 35 37 39 36 36 37 39 42 41 39 37 40 38 36 35 33 32 32 35 35 36 37 37
67 60 66 69 74 72 71 65 50 39 38 34 31 33 32 35 34 33 31 33 31 31 35 35 36 35 34 34 35 37 38 39 38 42 44 42 40 42 44 41 40 37 35 35 37 37 36 37 39
64 68 64 60 67 67 72 64 51 41 39 37 34 30 29 30 34 35 33 34 36 34 33 33 33 32 33 33 33 35 37 38 40 41 42 45 44 45 47 45 47 45 43 42 43 41 41 40 37
50 69 71 66 56 56 58 59 56 42 41 36 34 32 29 27 26 30 35 35 36 37 34 31 31 30 31 34 35 37 40 40 41 43 45 46 45 46 48 48 47 51 50 50 49 46 43 41 40
58 62 70 72 59 57 55 57 47 42 42 38 35 33 30 28 26 24 26 31 38 39 37 31 29 28 30 33 35 37 38 38 37 39 39 41 45 47 47 47 48 52 55 54 53 53 51 46 43
61 60 72 66 67 64 61 54 48 43 41 38 36 33 31 29 27 25 23 24 27 37 42 40 31 31 29 31 30 34 35 37 40 39 40 39 41 44 49 50 50 52 55 57 59 57 55 54 50
70 61 61 62 61 67 63 57 52 46 44 41 37 35 33 31 29 27 24 22 23 23 25 32 37 37 31 32 32 30 33 37 37 43 44 43 40 42 47 49 53 54 57 61 65 63 61 59 57
63 57 49 55 55 60 66 60 55 47 44 40 36 35 33 30 29 28 27 24 21 21 20 22 25 28 35 37 35 35 31 31 33 34 37 41 40 39 41 47 52 50 53 54 56 59 61 60 59
61 61 54 51 51 52 57 66 59 51 42 41 38 35 31 29 28 28 26 25 24 20 19 18 19 21 23 26 35 38 33 31 30 31 34 38 48 49 40 41 46 51 50 52 54 57 56 57 58
67 57 53 54 55 51 52 55 56 52 40 35 34 31 28 26 26 26 24 25 24 21 19 17 17 18 21 23 24 28 31 29 26 26 27 31 39 44 45 47 43 47 55 57 59 56 58 59 57
59 56 54 53 53 49 54 50 49 49 43 36 30 27 25 24 24 23 23 24 22 20 18 17 17 17 17 17 18 19 21 24 28 24 21 21 26 41 45 49 46 47 50 54 62 62 61 66 70
64 57 57 59 56 53 48 39 36 39 41 37 29 25 23 22 21 22 24 24 23 21 18 17 17 17 17 18 20 20 20 21 24 27 26 25 25 24 31 44 50 53 53 54 60 64 66 69 68
71 61 59 59 57 57 56 51 34 42 42 37 31 29 27 25 25 26 25 23 24 22 20 19 18 18 17 16 16 17 18 20 23 28 33 33 31 30 29 30 36 49 57 56 58 61 59 63 69
75 71 64 57 57 67 53 50 41 38 32 37 35 33 31 29 27 27 27 26 26 23 21 21 20 20 19 19 18 17 18 18 18 20 25 30 34 35 34 35 38 40 46 50 54 62 60 59 65
81 77 83 78 77 66 43 54 38 36 33 27 28 32 33 33 32 30 29 27 27 26 24 23 23 22 22 21 20 20 20 20 19 19 25 30 38 44 40 45 49 48 47 49 54 55 61 64 62
79 71 74 65 73 60 46 56 43 36 30 30 28 29 29 29 31 30 30 30 29 29 28 27 27 26 27 27 26 26 26 25 24 26 26 30 39 42 50 49 55 59 58 55 57 61 65 66 66
85 84 62 69 51 67 52 38 37 35 33 31 30 28 31 31 31 33 32 31 31 31 31 31 31 31 31 30 30 31 32 33 32 30 30 30 32 34 40 45 46 45 48 52 55 59 59 65 65
91 75 77 81 79 60 49 41 37 35 34 34 32 31 33 32 34 36 35 34 35 36 37 35 32 31 30 29 28 29 30 31 32 32 31 30 29 31 33 36 40 47 52 55 57 62 66 73 81
90 88 79 74 69 75 60 44 33 34 33 31 34 35 36 36 39 40 39 39 40 40 39 38 35 32 31 30 28 29 30 32 34 33 32 33 35 37 38 38 39 41 43 46 53 61 68 77 83
92 89 81 88 77 65 65 55 38 36 36 37 37 38 39 41 44 45 44 43 42 43 41 38 38 37 34 33 32 31 33 37 40 40 39 38 35 35 34 33 32 35 41 49 59 64 71 78 78

GFSSGP_prec_cthk_045.txt.gz
RH
49 45 42 40 40 38 33 32 28 25 23 21 23 26 34 38 45 48 45 46 41 35 31 29 31 34 36 35 35 35 30 28 30 30 25 25 24 20 19 28 34 42 30 26 18 12 10 11 11
57 53 50 48 48 46 35 32 30 27 25 21 20 26 31 40 38 42 41 45 42 35 31 28 31 36 36 37 35 37 34 31 29 26 24 22 20 15 27 30 34 34 32 27 18 11 11 11 11
67 60 58 56 53 49 38 35 32 29 26 24 22 24 32 37 40 43 42 43 44 36 30 30 34 35 36 39 37 37 37 34 27 25 23 19 15 15 22 25 31 29 24 24 19 16 17 18 19
74 69 63 64 56 43 45 41 36 33 28 23 22 25 32 36 36 40 39 42 43 37 32 33 40 36 39 39 38 38 38 35 31 25 20 16 15 15 21 22 24 25 23 22 17 17 18 19 20
82 80 74 65 56 46 51 48 41 36 33 28 27 31 34 33 31 34 41 42 40 40 35 33 40 39 42 42 40 41 39 36 33 29 21 18 16 16 18 22 23 24 24 21 20 21 21 22 22
83 91 85 70 57 51 59 50 49 42 38 31 33 39 42 38 33 37 40 38 40 39 39 39 39 42 43 43 41 41 40 37 34 31 25 20 19 19 18 19 22 23 25 24 25 25 26 26 26
79 90 87 77 67 62 64 55 48 45 40 33 36 47 48 47 44 43 43 41 41 43 42 42 39 41 42 42 42 41 41 39 37 32 29 24 22 22 21 23 24 25 25 26 27 28 28 27 27
84 88 87 85 77 70 64 63 52 48 41 38 39 49 53 49 45 45 48 43 44 45 44 41 37 38 41 39 40 40 40 39 40 38 33 27 25 25 25 24 25 27 27 29 31 31 30 30 30
89 94 94 88 83 63 70 72 56 49 42 38 44 43 46 50 49 47 48 48 44 43 43 42 35 34 35 33 32 33 36 38 41 39 32 32 28 26 26 28 29 28 28 30 30 32 33 34 35
91 92 76 74 72 78 77 72 60 49 45 42 42 43 49 51 50 49 45 44 43 39 40 40 38 37 34 32 32 31 32 33 36 36 36 33 30 28 29 28 30 32 31 31 31 31 32 33 34
86 76 72 78 75 86 86 78 71 56 46 43 41 37 38 47 42 44 45 43 42 41 38 35 32 33 32 32 34 32 29 29 30 35 37 37 34 33 31 31 33 33 35 36 34 34 34 34 33
70 77 75 75 77 92 91 81 71 61 49 40 38 36 37 41 43 38 39 39 38 36 37 33 30 29 29 28 30 31 31 31 31 32 35 38 37 36 38 37 37 37 36 38 39 39 37 35 36
60 68 72 73 73 77 85 87 77 64 55 40 41 42 37 39 40 40 38 36 36 36 36 35 34 32 30 28 28 27 27 30 33 34 36 38 38 37 40 42 42 42 42 42 43 43 42 41 38
46 63 73 72 71 74 78 78 71 67 57 43 40 40 35 34 36 38 38 36 34 36 37 37 35 34 32 28 28 28 29 31 33 35 36 37 40 40 41 43 45 46 47 46 46 49 49 45 45
52 56 71 73 65 68 67 70 74 66 56 46 38 37 35 32 30 29 32 34 34 34 34 35 35 35 32 29 30 31 32 32 33 34 34 34 37 39 40 42 44 46 48 50 50 51 53 54 54
58 53 68 61 69 68 60 59 63 61 57 47 40 36 35 33 29 28 27 28 30 35 35 35 38 36 32 29 31 33 34 36 35 33 34 34 34 36 38 42 42 43 45 50 54 53 56 58 58
66 65 57 57 59 67 66 53 50 50 50 42 40 36 35 33 32 30 29 27 27 29 31 32 33 31 31 35 35 33 35 36 36 35 35 32 32 35 37 40 41 43 47 50 54 55 56 57 59
59 51 50 49 50 59 66 60 57 52 49 46 42 38 35 33 32 31 30 28 27 25 26 28 30 27 29 32 32 32 34 36 39 42 46 45 40 40 41 43 43 42 42 45 49 52 54 54 57
57 60 58 53 50 60 59 61 65 59 53 50 44 39 36 34 33 30 28 30 30 29 26 25 22 25 26 30 31 28 27 31 38 39 38 43 47 47 46 43 45 49 46 47 51 54 56 58 62
62 64 60 57 52 54 58 56 56 60 55 50 46 40 36 35 32 30 28 27 27 28 27 26 24 22 22 22 22 24 25 25 26 26 30 34 37 42 45 45 48 49 52 53 54 53 55 58 65
57 55 58 60 57 54 52 51 46 47 53 52 46 40 36 33 31 29 27 25 25 25 25 24 23 22 20 19 20 21 21 20 20 21 22 22 25 28 33 41 45 55 55 52 55 59 63 68 71
58 52 60 63 59 62 52 58 39 39 44 51 48 44 38 31 29 28 26 25 23 23 21 20 19 19 18 18 18 19 19 21 21 21 22 22 24 24 27 30 35 38 43 49 53 56 55 69 71
61 60 64 65 65 62 57 58 40 34 42 42 45 42 38 30 28 27 25 24 23 21 21 20 19 19 18 17 17 17 17 18 20 21 22 24 26 32 33 35 35 38 40 44 46 51 61 61 68
63 69 70 70 73 81 60 59 43 39 34 37 41 41 39 32 29 27 26 25 24 23 23 22 22 21 21 20 19 18 17 17 16 16 17 20 23 24 28 29 33 33 41 46 51 54 60 65 66
76 75 95 93 90 74 50 58 43 36 37 35 39 41 40 35 32 32 30 28 26 26 26 26 26 26 24 22 21 21 20 19 19 19 20 19 23 28 32 33 39 52 55 52 62 60 58 64 68
84 81 85 84 83 68 50 57 40 31 37 36 37 35 39 39 37 35 34 34 34 33 32 30 29 28 26 26 25 25 25 26 26 26 25 25 26 32 35 38 34 39 46 45 53 57 57 58 63
92 95 78 80 66 73 56 45 39 33 38 39 42 34 33 31 33 33 32 32 32 31 31 31 30 29 28 27 26 26 28 30 31 31 31 31 30 29 29 35 39 39 41 44 45 53 53 53 53
90 85 90 90 94 72 61 48 44 36 35 40 45 38 34 34 33 33 34 35 33 33 34 34 33 32 30 28 27 27 28 29 28 27 27 28 28 29 30 31 33 36 36 37 39 39 42 44 48
93 93 86 79 86 84 62 49 38 38 35 35 41 44 40 38 38 38 39 38 37 37 37 37 36 34 32 31 30 29 28 30 30 30 30 30 30 31 34 35 34 33 34 36 36 37 40 46 49
91 91 89 89 82 78 75 54 38 37 38 37 36 37 41 44 42 42 43 42 40 39 39 40 39 37 35 35 35 33 32 32 33 35 38 37 37 36 33 31 29 28 29 32 36 40 43 46 48

GFSSGP_prec_cthk_048.txt.gz
RH
43 40 37 36 37 38 35 27 24 22 24 28 32 38 46 48 50 48 47 42 41 39 32 32 31 32 34 35 34 32 27 24 23 23 22 21 20 18 24 31 39 29 25 19 12 10 10 12 13
52 46 42 41 45 43 34 29 28 24 21 23 27 34 38 47 47 45 43 40 40 38 32 31 33 33 34 36 36 34 32 28 24 23 19 18 17 21 27 32 36 31 26 17 11 10 10 11 12
61 54 50 49 49 44 35 32 29 27 25 22 23 30 35 42 41 43 42 40 40 35 32 32 34 37 37 37 38 36 34 32 26 20 18 16 15 25 28 31 30 27 21 18 15 16 17 17 17
68 64 57 57 51 40 41 39 33 30 28 25 25 31 35 38 39 40 42 42 39 36 33 34 37 36 39 39 38 36 35 33 29 23 17 15 16 23 23 27 26 22 21 18 17 18 19 20 19
74 74 73 62 52 45 47 44 37 34 31 29 27 33 37 38 36 35 37 41 41 37 34 35 35 36 40 39 40 39 36 34 30 29 21 17 16 17 20 23 24 24 23 21 21 22 23 23 24
80 80 84 74 59 52 54 49 41 35 32 34 34 32 38 37 34 32 36 44 44 40 36 35 36 38 43 41 42 40 39 37 33 30 25 20 19 19 19 21 22 23 23 22 23 24 25 25 25
79 80 82 79 71 62 63 56 43 42 38 37 39 40 40 37 34 33 35 42 45 43 38 35 36 42 44 43 41 41 40 39 36 31 27 24 23 21 21 22 22 24 24 25 26 26 26 27 26
76 84 82 84 79 74 69 62 52 46 44 44 40 47 45 43 42 39 39 41 41 41 41 40 39 40 42 42 42 41 40 40 39 34 29 26 25 24 24 24 26 27 26 27 29 29 30 30 29
79 89 86 79 84 78 71 71 58 51 48 46 44 43 44 47 48 47 47 45 46 46 44 42 41 38 36 37 39 40 39 38 39 36 32 27 28 28 27 27 27 28 30 32 31 30 30 30 30
86 80 72 67 73 80 80 77 70 62 54 54 49 48 49 51 52 50 50 51 48 46 44 43 39 36 35 36 35 33 35 35 36 34 32 31 30 31 33 32 30 29 31 34 37 35 33 33 33
80 77 69 72 77 85 86 80 74 67 56 52 51 50 53 57 56 54 53 51 46 45 42 42 39 36 34 32 33 32 31 30 31 33 32 33 31 32 33 34 33 35 35 36 37 36 37 37 36
73 81 78 80 87 90 86 86 78 71 60 53 47 43 43 48 53 55 53 50 47 44 42 39 37 35 33 30 28 28 28 28 30 32 33 33 34 33 35 36 35 36 37 38 38 40 41 41 40
64 68 78 83 87 90 90 92 88 77 63 60 54 49 43 44 47 47 49 50 49 44 39 36 35 33 32 31 29 26 26 26 27 28 31 34 35 36 36 38 38 39 40 40 39 40 40 42 44
56 63 82 89 88 88 88 87 88 74 64 63 59 52 47 44 46 48 46 45 46 47 40 37 34 33 31 30 29 26 26 27 27 29 32 34 35 35 37 38 40 42 41 41 43 44 45 47 48
53 66 79 77 77 78 81 88 85 82 71 66 59 50 44 41 40 41 44 45 44 41 42 42 40 35 32 31 31 28 25 27 30 32 33 33 34 33 32 34 36 40 44 46 45 45 45 47 50
60 54 70 64 68 70 73 69 74 81 78 68 63 51 42 37 36 36 34 32 32 36 40 42 40 39 37 35 33 30 28 27 28 31 33 34 33 32 31 31 31 35 40 43 44 46 49 49 51
61 59 55 57 60 64 64 65 68 75 77 67 62 54 46 39 37 35 32 30 29 28 28 32 37 39 41 41 40 36 35 33 31 32 32 33 34 34 33 34 34 36 39 42 43 43 46 48 49
50 49 45 48 49 58 60 62 65 63 62 58 55 50 44 37 35 34 33 31 30 29 29 29 30 31 33 37 37 35 36 34 34 34 35 37 41 48 45 43 45 50 50 46 44 48 50 51 52
47 50 49 47 46 51 53 64 67 65 54 52 49 48 42 39 34 32 32 31 31 30 28 29 30 28 28 28 30 32 30 30 33 38 45 46 48 50 54 48 45 47 48 47 51 53 54 56 59
59 59 57 52 50 50 51 52 58 63 57 52 48 47 45 42 38 34 32 32 31 30 29 29 30 31 30 28 25 27 28 25 24 26 32 36 39 41 39 41 42 41 46 44 48 55 63 65 66
55 56 57 56 56 56 51 50 49 52 52 52 52 49 47 43 39 37 34 34 33 32 31 31 32 31 31 30 26 24 24 23 23 22 21 23 26 28 33 36 35 32 33 36 37 45 56 56 65
62 54 53 58 64 67 56 61 39 46 43 46 49 52 49 45 39 36 34 31 31 30 28 26 25 24 23 23 24 24 23 22 21 21 21 21 21 22 23 26 29 31 35 37 38 39 45 54 59
60 54 52 54 63 64 62 63 39 40 39 35 38 45 51 47 43 39 34 31 30 28 26 23 22 20 20 20 20 19 19 18 18 19 19 20 20 21 23 26 29 40 45 42 41 41 49 54 60
60 59 60 63 66 73 60 62 47 37 33 31 33 38 45 48 46 42 38 32 28 26 24 22 21 21 20 20 19 18 18 17 17 17 17 16 16 17 19 21 25 25 32 37 42 43 47 54 61
64 66 79 80 82 66 59 70 36 37 34 33 32 35 41 47 46 42 40 32 28 25 24 23 23 22 22 21 21 21 21 20 20 19 18 17 17 18 19 22 23 25 30 38 49 53 59 58 59
67 67 73 79 81 73 63 62 36 31 33 33 35 37 41 44 46 44 40 34 30 28 27 25 25 25 25 25 26 26 26 25 24 23 23 23 24 24 25 26 31 35 38 39 40 43 48 48 49
83 86 75 76 71 77 62 50 39 34 32 34 36 39 38 40 41 43 42 38 35 34 34 33 31 31 32 31 30 27 26 26 26 26 27 29 30 30 30 29 29 32 37 39 38 38 44 45 46
88 85 87 89 92 74 62 60 46 37 38 33 35 40 39 39 38 41 41 42 39 38 38 37 36 34 34 33 30 27 26 26 26 27 28 27 26 26 26 28 28 29 32 35 36 37 39 39 39
88 91 90 86 86 87 77 61 46 41 38 37 36 47 49 50 38 36 35 39 40 38 37 36 36 36 34 32 30 29 29 28 29 30 29 28 28 28 28 30 32 33 32 31 32 32 31 31 33
88 88 88 94 91 85 80 65 48 43 41 43 42 43 51 52 47 42 41 42 41 41 39 38 37 37 37 35 33 33 33 34 34 33 31 31 34 36 36 35 33 32 30 29 29 30 31 33 38

GFSSGP_prec_cthk_051.txt.gz
RH
48 40 37 36 38 40 37 29 23 26 32 37 39 45 41 51 52 51 49 41 41 34 33 33 30 28 31 33 31 31 27 24 22 21 19 19 18 21 27 32 25 23 17 10 9 11 13 14 19
55 45 42 39 44 45 37 27 25 23 27 38 41 47 46 49 55 56 49 44 40 34 32 35 29 29 33 33 32 32 32 26 22 20 17 16 16 23 29 30 28 25 17 12 11 11 11 13 14
63 53 46 45 48 44 35 28 30 26 24 28 34 43 48 46 49 52 48 41 40 35 31 33 31 32 33 34 34 33 34 31 25 18 16 15 21 24 27 27 25 22 16 14 15 15 15 16 17
71 61 52 53 48 39 38 36 35 31 28 26 29 39 44 45 46 48 48 42 39 36 31 34 31 33 34 36 36 36 34 32 30 23 18 16 23 24 24 25 24 20 18 17 19 19 19 19 19
76 70 66 57 49 42 43 42 39 35 33 30 29 34 39 39 43 44 47 45 39 34 31 34 36 34 35 37 39 37 38 33 29 27 22 18 18 20 23 24 24 22 21 21 22 23 23 24 24
81 78 78 66 53 46 50 47 43 36 33 36 34 34 37 36 37 42 43 46 43 34 33 36 35 34 37 39 41 40 39 34 30 27 24 22 19 20 22 22 22 23 22 23 24 24 25 26 26
87 83 80 73 60 53 53 52 52 42 35 35 37 39 36 34 36 40 43 45 44 38 33 33 34 35 40 41 42 42 41 38 33 30 24 24 23 22 23 23 24 23 22 24 25 26 27 27 28
88 85 81 76 69 61 60 57 58 50 39 41 41 44 38 32 36 40 44 43 45 42 39 36 35 39 43 44 44 43 42 40 38 33 27 24 25 25 25 25 24 25 26 26 27 28 28 28 28
88 91 81 75 76 60 62 68 63 53 47 46 46 42 40 36 37 40 40 38 40 46 45 42 37 39 41 41 44 43 42 41 39 36 32 27 27 26 27 26 27 27 28 30 32 34 32 31 31
82 92 72 66 66 65 65 73 70 61 51 51 52 46 48 42 42 46 42 41 43 42 42 43 45 44 41 40 40 40 40 39 37 34 32 29 29 29 30 30 30 30 31 32 33 33 35 36 36
85 85 82 77 78 74 78 79 77 69 57 52 57 58 49 48 46 47 51 50 46 48 47 47 46 44 42 39 38 37 37 37 35 33 30 31 31 30 30 33 35 35 35 35 37 39 39 38 38
73 69 79 82 82 77 79 81 84 75 63 58 58 69 61 54 48 50 52 53 51 49 47 47 42 39 37 35 34 33 31 31 31 30 30 30 31 32 32 32 33 35 36 36 38 38 39 41 41
62 68 77 86 82 79 83 87 91 78 69 61 56 60 61 55 53 54 56 55 54 52 49 47 45 42 40 37 32 30 29 28 26 26 27 29 32 33 34 33 34 36 38 39 37 37 39 41 43
61 64 76 80 87 84 87 88 93 75 74 66 61 59 59 52 50 54 55 56 53 53 50 48 44 42 39 37 35 32 31 28 26 26 27 27 31 34 36 36 37 39 41 43 44 44 41 41 42
64 69 76 85 89 87 85 94 91 79 79 70 69 71 69 58 51 47 48 50 54 50 50 46 43 40 37 37 36 35 34 31 27 29 32 33 33 33 33 33 34 36 37 40 41 42 42 43 45
64 73 76 82 85 83 92 90 83 86 84 72 72 71 69 61 55 48 46 47 47 48 46 44 41 39 39 38 38 37 36 33 29 29 32 34 35 35 33 31 30 32 34 35 37 40 42 44 47
65 67 68 63 66 70 80 73 75 77 80 72 70 67 62 58 53 48 41 40 39 37 38 40 41 40 40 40 39 37 38 35 32 31 31 34 35 34 33 32 31 37 40 40 43 44 46 45 45
50 52 48 54 53 62 72 66 68 74 78 79 73 69 64 56 51 47 43 39 36 34 32 32 35 39 41 41 40 40 40 38 35 32 31 32 34 37 37 39 47 45 47 45 44 45 46 45 46
49 49 51 49 49 51 63 69 67 69 71 70 69 69 65 58 51 47 43 39 36 34 32 31 32 33 35 38 36 37 35 34 33 32 32 34 36 42 53 46 53 56 50 45 48 46 44 44 48
48 51 51 51 53 56 60 65 65 66 62 63 64 57 54 51 49 44 41 38 37 35 32 31 31 32 33 33 32 31 30 29 29 29 30 30 33 37 39 45 48 46 44 46 44 42 42 41 47
49 50 51 51 51 53 53 60 58 53 57 59 58 55 48 47 47 45 42 38 37 36 34 32 31 31 30 30 30 29 30 31 29 26 25 25 26 28 32 37 35 37 36 34 32 33 35 39 41
58 54 55 57 61 63 55 64 48 45 46 51 51 51 49 46 46 44 42 40 38 37 36 35 32 31 29 28 28 29 28 28 27 27 25 24 23 23 24 24 25 27 29 30 29 33 35 40 42
62 57 58 58 62 62 61 66 42 38 38 35 41 45 47 51 49 46 44 41 40 38 35 33 33 32 30 28 25 22 21 22 23 23 23 22 22 22 22 23 23 24 27 29 31 41 39 39 39
60 63 62 63 62 68 57 61 40 35 30 29 33 37 40 44 48 49 47 45 42 40 36 32 30 28 26 23 22 22 22 22 21 21 20 19 18 18 18 18 19 19 21 25 30 35 43 49 45
63 65 80 80 78 69 55 58 30 29 30 31 33 33 32 37 40 47 49 47 45 42 38 31 28 27 25 24 23 23 23 22 22 21 21 21 22 22 21 19 19 20 22 25 28 36 41 48 51
67 65 70 72 76 67 59 55 32 26 29 32 31 33 33 32 36 42 47 48 46 43 40 34 29 27 25 25 25 25 24 23 23 24 25 26 25 25 23 23 23 24 29 34 40 43 45 42 40
72 75 65 70 66 70 58 46 35 33 31 30 31 33 34 35 39 42 45 49 49 46 42 35 31 29 28 27 27 26 27 28 29 28 28 27 26 26 26 27 29 29 29 30 35 40 43 45 44
71 68 75 78 80 73 58 57 48 39 37 35 33 32 37 39 43 44 45 46 46 46 43 40 35 34 34 33 33 33 31 31 30 29 28 27 26 25 25 25 26 26 28 29 30 33 37 37 38
85 85 82 79 80 77 74 57 46 44 44 40 37 36 37 41 44 42 44 44 44 46 47 45 44 40 38 38 37 36 35 34 34 32 29 28 28 28 28 27 27 29 30 32 34 34 33 33 33
90 88 88 91 88 84 77 61 50 49 47 45 43 43 44 47 49 48 45 40 42 46 47 47 45 43 42 41 41 40 38 35 35 34 33 33 33 32 33 34 35 35 34 33 31 30 29 29 30

GFSSGP_prec_cthk_054.txt.gz
RH
58 46 40 38 37 39 35 30 31 38 42 44 44 47 46 48 47 47 51 41 39 37 36 34 29 27 29 30 29 27 24 23 21 19 18 17 20 24 28 22 20 15 10 9 11 13 14 19 20
62 52 45 41 44 45 36 27 27 32 38 47 44 47 48 50 51 52 50 45 41 37 35 31 28 27 31 31 32 31 29 25 19 18 17 15 20 25 27 25 23 17 12 12 12 14 15 17 19
64 60 51 48 49 45 33 30 28 28 32 47 43 45 50 48 54 55 51 46 45 36 32 31 28 30 31 32 32 33 31 29 25 18 16 17 21 24 25 24 22 17 14 15 15 15 16 17 18
69 68 60 54 50 39 36 35 31 30 26 34 38 46 48 50 50 54 50 49 45 35 35 35 30 32 31 32 33 34 32 30 27 23 18 23 23 24 25 24 22 19 18 19 20 20 20 21 22
78 71 70 63 50 41 38 38 36 34 29 28 38 43 46 50 49 51 47 48 45 37 36 37 33 33 33 35 36 37 33 31 30 26 22 26 26 25 23 24 22 20 20 21 22 22 22 23 24
83 75 75 70 55 44 43 41 41 38 32 32 37 41 44 46 49 49 48 46 45 39 36 36 34 34 34 37 39 37 36 33 30 27 24 28 29 24 24 23 22 22 21 22 23 24 24 25 26
78 77 74 72 62 50 46 44 46 44 38 35 42 43 40 43 46 48 49 45 42 38 36 36 37 37 36 38 42 41 39 37 33 29 26 24 25 27 26 23 24 25 24 23 22 24 25 25 26
89 74 80 74 70 59 51 49 51 48 42 39 46 43 39 37 41 45 47 47 45 41 36 34 35 36 39 39 43 45 44 41 38 32 28 25 24 24 25 26 26 26 27 28 29 30 29 28 28
89 94 86 75 71 62 57 53 57 52 47 46 52 49 43 38 37 43 44 46 45 44 38 37 37 37 39 41 44 46 46 43 42 36 31 28 26 26 26 26 28 29 28 29 30 30 31 33 33
96 93 82 70 67 65 65 62 61 60 53 50 50 50 52 51 40 40 41 41 43 45 45 42 39 38 41 43 45 46 45 43 41 37 34 30 29 29 29 29 29 29 30 30 31 32 32 33 34
91 79 71 72 72 75 76 73 66 64 62 56 54 48 58 59 52 43 46 44 45 43 42 45 45 43 44 44 43 43 40 42 41 36 34 32 31 29 29 30 31 32 32 34 34 34 34 34 36
70 76 80 80 80 77 77 73 72 68 63 61 57 51 52 63 59 51 54 48 45 46 45 45 45 45 46 46 45 42 40 38 37 35 33 31 31 31 29 29 30 30 29 31 31 32 34 36 37
65 71 77 81 80 82 83 82 82 71 65 64 59 55 57 64 64 61 56 57 53 49 47 47 46 42 41 40 38 37 36 33 31 30 29 29 30 31 33 32 31 31 33 35 35 35 35 36 38
60 61 67 74 78 85 87 85 84 74 73 68 64 59 60 65 69 67 62 55 53 52 50 50 48 46 45 43 40 36 33 31 30 28 25 27 27 30 33 35 35 37 38 39 40 40 41 41 41
62 67 74 75 80 86 88 89 76 75 80 73 69 63 64 64 66 66 66 60 57 55 54 51 50 49 46 44 41 38 36 34 32 30 28 28 30 32 33 33 34 35 35 35 36 38 40 40 42
71 70 79 82 83 88 83 75 74 80 85 77 73 68 66 62 62 61 63 58 55 57 57 56 54 52 50 46 44 42 41 38 37 34 31 29 32 33 34 34 33 35 34 34 36 40 40 42 45
71 72 63 72 76 83 78 74 75 82 85 80 76 74 72 70 63 63 60 56 54 52 52 54 53 51 48 46 45 44 44 42 40 38 36 33 33 36 35 34 34 37 37 39 46 45 47 47 46
60 64 61 59 65 76 76 70 74 78 76 83 78 78 74 69 62 60 58 53 48 45 45 45 45 43 42 44 44 44 44 41 40 39 38 38 37 36 36 35 37 40 48 52 51 53 51 46 45
51 56 62 58 60 66 70 71 71 81 78 79 81 76 70 66 64 61 57 54 50 45 42 40 38 37 37 38 37 38 37 37 37 36 36 35 34 35 36 37 38 44 49 50 50 50 46 43 47
49 50 52 52 57 64 63 64 72 74 68 69 72 69 72 69 65 61 59 54 52 47 41 38 37 37 36 36 38 39 38 36 35 34 33 32 31 31 31 32 35 40 43 44 47 44 46 41 37
57 49 51 52 54 60 61 62 58 60 61 63 66 65 69 65 64 60 55 50 47 43 42 40 37 36 36 37 37 38 37 34 33 33 35 36 36 36 34 33 32 32 33 35 35 31 32 33 32
59 51 50 54 55 66 59 67 46 44 54 56 56 59 59 61 58 55 52 48 44 42 41 40 39 37 36 35 34 32 31 30 28 28 30 32 33 32 28 27 26 26 26 26 27 30 33 41 36
58 54 52 54 58 59 57 66 42 39 43 39 45 52 56 57 56 50 50 50 49 46 40 38 37 37 36 35 33 31 29 26 25 24 25 26 26 26 26 24 23 23 23 24 26 28 34 34 37
61 64 63 61 61 70 61 64 42 37 32 31 31 40 45 48 54 54 53 50 48 46 45 41 38 35 33 33 32 31 29 27 25 23 22 21 21 21 21 20 19 19 19 20 21 24 29 32 34
67 71 81 78 78 72 56 57 34 34 32 33 32 33 36 39 45 48 50 52 53 49 47 45 43 41 38 32 29 28 27 25 24 24 23 23 22 22 21 21 20 21 21 21 22 23 25 33 38
71 70 72 70 75 64 57 54 37 27 26 29 34 33 32 33 37 38 42 48 51 52 52 49 46 43 39 35 32 30 28 27 26 24 24 24 23 23 25 26 26 26 25 25 27 33 40 48 47
74 72 63 65 62 66 54 42 30 27 28 29 28 28 30 31 34 37 39 45 48 48 51 50 47 45 42 40 36 33 31 29 28 26 26 25 27 29 29 27 27 27 28 28 30 32 36 39 46
70 68 73 73 72 69 52 48 40 35 35 32 31 29 28 33 35 40 42 44 45 46 46 49 49 46 44 43 37 35 33 32 30 30 30 32 30 29 29 28 26 25 25 27 28 30 31 33 38
75 76 73 68 69 71 64 48 40 42 41 37 36 33 30 31 39 44 45 46 46 45 45 46 47 47 46 46 40 35 35 36 36 36 35 34 33 31 31 28 26 27 28 30 31 33 34 36 37
75 76 73 77 74 75 74 52 46 45 50 46 39 39 37 39 43 45 46 47 46 45 45 46 46 47 49 47 46 43 41 41 41 40 39 38 38 35 32 33 34 35 35 36 35 35 32 31 32

GFSSGP_prec_cthk_057.txt.gz
RH
55 56 47 42 36 35 34 34 41 48 56 49 47 51 51 52 54 47 50 43 42 40 39 34 29 29 28 28 27 24 22 22 21 19 18 19 23 26 21 20 15 11 10 12 13 13 16 19 19
62 56 57 46 43 39 32 30 37 43 48 57 50 56 55 55 54 52 50 45 44 41 36 31 29 28 29 30 29 28 26 23 18 17 17 20 23 27 24 21 16 12 12 12 13 15 17 19 19
68 61 60 54 49 40 31 30 30 38 42 51 53 54 59 58 55 51 48 45 44 42 38 32 29 28 30 31 32 31 29 26 20 17 17 21 22 24 24 22 17 15 15 15 15 16 17 18 19
71 70 63 59 52 41 35 34 30 30 35 48 47 51 54 55 55 53 49 45 46 44 41 36 32 31 32 32 34 33 31 27 24 19 20 21 23 25 25 21 19 18 18 19 19 19 20 21 21
78 74 69 62 54 43 39 38 34 30 29 38 44 48 52 53 54 57 52 46 45 45 41 37 35 34 31 33 35 35 32 29 27 24 29 27 25 28 22 20 19 19 19 20 21 22 23 24 25
83 78 70 63 56 50 42 41 37 36 30 31 41 49 52 52 54 54 55 50 44 44 41 38 38 36 33 34 37 38 35 30 29 26 28 34 32 30 22 22 21 20 20 21 22 23 24 24 25
80 84 70 64 60 57 48 42 41 40 36 35 41 46 50 53 51 53 52 52 48 42 45 40 38 38 36 37 39 40 38 34 32 28 26 26 28 32 27 24 23 23 24 26 26 25 25 25 25
75 79 85 72 65 61 56 48 43 44 43 43 45 47 51 55 56 56 56 55 50 44 41 41 39 38 38 39 41 44 42 40 37 32 29 27 26 25 27 27 27 26 25 26 27 29 29 30 30
84 92 86 79 68 66 60 58 50 50 51 49 51 50 50 51 56 55 58 54 51 44 41 42 41 39 38 40 41 45 46 45 41 37 31 29 28 27 26 26 27 28 28 29 29 29 30 30 31
81 94 76 65 70 72 69 63 59 54 52 52 52 47 49 53 51 54 53 55 54 50 45 43 41 39 39 40 43 46 46 45 43 40 37 31 29 29 28 28 28 29 29 29 30 30 30 30 31
81 75 73 76 74 77 74 66 66 59 56 56 55 50 48 55 52 51 54 50 52 55 49 43 40 39 40 40 44 47 46 42 42 40 37 34 32 29 27 28 28 29 29 29 29 30 30 31 31
81 90 80 80 81 80 76 70 69 64 59 57 57 53 50 53 53 52 57 55 50 49 52 49 46 44 42 44 44 46 45 42 40 39 37 35 33 32 30 27 28 28 29 29 29 30 31 33 34
70 76 82 91 85 84 83 80 73 67 63 59 58 57 53 53 55 55 59 62 57 52 46 45 44 44 47 45 47 47 46 42 39 37 34 32 31 31 32 31 30 29 30 31 34 35 35 34 35
59 67 77 86 83 82 79 80 78 66 69 63 60 59 56 57 59 60 61 63 64 54 50 47 48 45 46 47 46 43 41 39 36 33 31 29 29 28 29 32 34 33 34 36 36 37 37 37 39
56 61 66 76 82 81 79 80 69 73 72 66 63 61 59 58 58 63 66 65 69 64 55 53 52 50 49 48 46 45 43 40 36 34 32 31 31 29 31 33 34 35 35 34 34 34 34 37 39
61 62 67 71 76 79 79 62 68 77 76 69 69 66 63 60 59 61 67 70 71 71 62 57 55 54 53 52 49 47 44 41 40 38 36 34 33 32 32 32 34 36 35 34 34 34 35 41 42
62 61 59 67 76 78 74 75 74 77 77 77 72 70 67 62 60 63 63 66 71 72 68 59 57 57 57 56 54 51 47 44 44 42 41 40 37 35 33 34 36 38 36 36 36 38 45 47 48
58 58 59 61 66 76 82 73 74 77 76 72 77 70 68 67 64 63 62 65 66 67 68 65 59 58 59 57 54 51 48 45 44 43 42 42 41 40 37 35 37 39 39 39 41 47 50 50 49
48 54 57 59 61 73 75 81 77 75 73 70 73 72 68 67 67 65 63 59 56 59 58 55 54 52 50 49 46 44 41 41 41 41 41 40 39 39 36 34 35 38 39 40 42 47 47 46 46
60 58 60 61 64 66 71 71 69 66 66 67 68 71 72 71 68 66 63 63 60 58 56 51 46 46 45 43 41 38 37 37 38 38 37 37 36 35 33 32 32 33 34 34 38 41 41 44 46
62 54 58 59 64 64 64 64 59 56 58 62 63 65 75 73 69 67 66 65 63 60 59 57 53 45 42 41 40 38 38 38 40 38 37 37 36 36 36 37 39 40 43 36 35 34 33 33 32
71 51 46 51 54 64 54 57 46 44 47 50 56 58 70 67 71 71 67 66 63 60 57 53 50 50 46 41 39 39 39 37 35 33 31 30 30 31 32 34 35 35 33 31 29 30 30 32 33
71 61 53 52 54 54 54 58 40 38 40 38 46 52 64 68 68 72 70 66 61 57 54 49 47 45 45 44 43 39 36 34 32 30 29 27 25 25 27 28 29 27 25 25 24 25 25 26 31
71 60 60 59 59 63 52 54 43 35 32 34 36 40 47 61 65 68 69 65 59 55 54 49 46 43 42 41 40 38 36 35 33 31 28 26 25 25 25 24 23 22 21 20 20 20 21 23 27
71 70 78 74 70 63 51 53 40 35 34 35 35 35 38 44 54 55 57 59 55 52 53 52 51 49 46 43 40 38 35 31 30 29 28 27 26 26 25 24 23 22 21 20 21 22 22 23 23
75 68 69 72 73 62 53 53 37 31 33 35 35 36 35 37 39 44 46 51 54 56 55 53 50 49 48 47 45 41 38 35 30 28 28 27 26 25 24 24 24 24 24 26 27 27 28 33 34
80 72 60 63 62 59 49 42 32 27 28 28 28 28 30 32 32 35 38 44 50 49 51 52 52 51 49 48 45 43 41 39 37 33 31 29 28 27 26 25 25 27 27 27 27 28 29 31 37
77 69 74 72 70 65 51 46 35 31 33 36 33 29 27 26 27 31 36 39 43 46 47 48 49 48 49 47 46 45 43 41 39 36 34 32 30 29 28 28 29 28 27 27 28 28 29 32 36
82 82 74 69 67 64 58 43 35 35 38 40 38 33 30 29 27 28 34 40 43 47 48 47 46 43 43 44 46 46 44 42 41 39 36 35 34 33 32 31 30 30 30 29 28 31 33 35 36
82 72 70 75 70 70 65 52 40 38 42 47 47 43 38 35 35 37 39 41 46 48 50 48 46 46 45 44 45 46 45 45 44 44 42 41 40 39 37 36 36 37 35 35 36 36 35 35 34

GFSSGP_prec_cthk_060.txt.gz
RH
51 48 51 50 38 32 32 36 42 52 49 51 53 55 58 59 52 49 50 44 46 45 43 35 33 31 35 35 31 26 24 22 20 19 20 22 24 20 19 14 11 11 14 13 13 15 17 19 18
56 53 56 57 45 35 30 32 37 43 59 51 56 58 58 59 59 56 52 47 46 48 42 37 32 31 31 32 29 25 23 20 17 17 21 23 27 23 20 15 12 12 12 14 15 17 18 19 18
61 56 59 58 50 39 30 29 34 41 47 60 56 57 61 59 58 61 56 49 51 51 46 39 31 33 33 31 30 29 26 20 17 18 22 24 29 24 22 17 15 15 14 14 15 16 18 18 19
65 64 60 55 47 42 36 32 29 36 41 55 58 60 61 61 61 62 54 55 53 51 50 42 34 32 32 32 33 32 30 24 19 19 21 24 26 26 21 19 18 18 18 18 18 18 19 20 22
67 66 62 52 49 51 42 35 31 29 38 44 55 63 63 66 64 66 59 53 53 52 51 47 39 36 32 34 35 33 30 27 24 27 27 24 27 28 21 20 19 19 20 20 21 21 22 23 24
70 68 60 53 50 52 50 42 36 30 28 44 48 57 64 65 65 66 58 55 53 56 51 50 40 39 34 35 37 36 33 29 26 29 33 30 30 30 24 23 21 20 21 21 21 21 22 22 24
70 67 56 53 57 54 53 49 40 34 30 34 47 55 61 62 63 64 62 58 53 56 56 50 41 40 37 35 38 39 38 34 30 28 32 34 35 34 27 25 24 23 25 25 25 25 25 26 27
76 73 72 65 62 58 56 56 48 41 38 39 44 54 59 63 62 64 64 62 53 54 56 53 46 43 40 38 39 40 41 40 35 32 29 28 28 27 28 29 29 27 25 25 26 28 28 29 30
73 82 76 78 63 65 63 57 58 49 44 43 43 43 48 60 62 62 62 62 58 56 60 56 51 47 44 44 40 41 44 44 40 36 32 30 29 28 28 29 28 28 28 28 29 28 28 29 30
79 75 65 69 74 67 68 61 60 54 49 48 46 42 44 54 63 63 62 61 60 62 60 57 56 50 47 45 42 42 44 47 44 40 35 33 30 29 28 28 28 28 29 29 29 29 29 30 30
77 63 61 72 81 76 72 68 63 62 55 51 50 47 46 52 58 61 64 64 64 60 59 56 56 53 47 45 46 43 46 48 47 43 38 35 32 30 28 28 28 28 28 28 29 29 29 30 31
85 64 70 75 82 80 76 71 67 66 64 56 54 52 49 50 54 54 58 64 67 66 59 54 51 49 46 45 47 44 46 48 48 44 41 38 36 34 31 28 27 27 27 28 28 29 29 30 30
91 74 76 82 79 82 83 78 71 68 67 64 56 55 52 53 51 52 53 57 60 62 60 58 56 53 48 46 46 46 46 47 48 45 41 38 34 32 31 31 28 28 27 27 29 31 33 33 32
65 90 81 75 79 77 82 76 81 66 70 67 63 57 54 55 53 54 53 52 51 61 63 59 56 55 52 49 47 47 46 50 50 44 39 35 32 31 30 31 32 31 30 31 33 36 36 35 34
67 82 90 83 80 80 81 85 70 68 71 69 67 64 57 54 55 54 55 54 54 60 64 64 54 50 46 45 44 48 50 49 45 42 38 33 31 31 30 31 33 34 33 32 33 34 33 33 34
60 77 85 83 88 82 90 67 61 76 78 72 69 66 63 56 56 55 54 55 56 61 64 71 66 53 51 53 50 49 47 46 45 43 40 37 36 36 35 34 34 34 33 33 34 34 34 34 37
64 58 69 80 80 80 79 69 75 73 71 66 68 66 65 63 60 58 55 58 61 64 64 68 69 61 57 56 55 53 52 50 48 45 43 43 42 40 39 39 37 36 35 36 35 34 35 38 43
59 57 57 59 65 72 71 73 65 68 69 67 67 65 64 64 64 63 58 59 60 63 66 68 68 68 63 59 59 58 56 53 51 48 46 46 45 44 42 40 40 40 39 37 38 38 41 42 46
56 62 60 59 62 62 67 69 68 65 67 66 63 64 63 64 68 65 62 61 62 66 64 67 67 68 69 66 63 61 57 55 53 51 49 48 46 44 42 39 39 38 37 37 39 41 45 49 49
55 54 52 53 55 57 60 64 65 65 66 68 69 65 67 67 67 67 66 66 65 62 61 61 61 62 64 62 59 55 51 48 47 44 44 43 42 41 40 38 36 34 34 34 36 39 43 43 41
60 54 50 46 59 60 59 53 53 55 62 60 60 58 62 69 70 72 69 68 68 64 60 58 61 61 59 58 54 52 50 45 43 42 42 40 39 38 38 37 36 36 37 39 43 45 45 44 39
74 62 53 51 50 53 50 41 37 42 46 48 51 55 60 68 72 71 70 70 67 66 65 63 59 58 58 58 54 48 46 44 41 41 40 38 36 34 33 32 32 33 35 35 37 36 35 35 34
67 59 58 51 47 45 47 46 33 36 34 39 42 46 54 66 71 75 72 69 70 68 64 64 65 62 58 55 56 54 48 43 41 39 36 34 32 31 29 27 25 25 25 27 29 28 26 26 26
70 63 57 52 51 54 42 45 35 32 30 33 34 41 48 62 68 74 75 73 67 66 67 65 61 60 56 52 51 49 49 48 44 38 36 33 31 29 28 26 25 24 24 25 24 22 21 20 20
71 68 75 70 66 52 47 46 32 32 30 31 31 32 35 43 57 62 66 66 70 70 68 65 60 59 56 51 47 45 44 42 42 40 38 34 32 30 29 29 28 27 26 24 23 22 23 23 24
75 62 62 63 58 50 49 43 32 28 30 32 31 31 32 34 36 40 50 60 64 71 71 67 64 58 56 53 50 49 47 46 43 40 37 35 33 30 29 29 28 27 26 25 25 25 27 29 32
73 73 58 57 54 50 39 38 28 26 29 29 30 28 27 28 32 35 34 47 57 56 60 62 59 57 55 54 53 52 51 49 47 43 41 39 37 35 32 31 30 28 27 26 27 27 28 29 33
72 65 66 63 64 51 43 37 27 27 30 30 29 28 28 26 28 30 34 34 45 50 51 56 60 61 59 56 54 52 51 49 47 45 43 42 40 38 35 33 30 28 28 29 27 28 28 31 35
77 73 68 61 58 55 45 36 31 32 33 35 35 34 33 31 30 26 28 34 36 44 53 52 54 56 54 53 51 48 45 45 45 45 45 44 43 41 39 35 33 32 32 31 30 30 32 34 34
77 71 68 65 68 61 57 47 39 37 38 35 36 39 40 38 37 31 32 31 32 37 44 49 53 53 54 52 48 46 45 45 45 45 44 44 46 45 43 42 38 36 37 37 37 37 35 35 35

GFSSGP_prec_cthk_063.txt.gz
RH
51 49 48 50 54 39 36 45 48 47 54 52 52 58 63 66 58 66 56 53 47 47 42 33 31 32 31 30 29 28 25 23 21 21 27 24 19 19 13 11 12 16 16 20 23 17 17 16 14
61 55 52 54 51 42 34 37 42 46 54 52 56 61 61 72 64 60 58 55 49 49 42 37 31 32 33 32 27 23 22 20 17 20 25 25 22 20 14 12 12 13 13 14 16 17 17 16 16
63 60 58 52 50 45 35 35 37 45 51 57 56 61 67 73 69 65 60 56 55 53 45 42 33 31 31 30 27 25 21 18 18 21 25 28 24 22 17 15 15 14 14 15 16 17 18 18 19
70 64 62 56 44 38 40 41 35 40 43 53 58 62 68 72 71 70 59 59 59 57 55 47 42 34 32 30 29 28 26 19 18 21 25 30 26 23 19 18 18 17 17 18 18 18 19 21 22
74 67 60 52 44 45 49 50 39 33 42 51 59 71 77 73 72 71 63 64 62 60 56 47 48 39 33 32 32 30 26 23 22 22 24 27 28 24 20 19 19 19 20 20 21 21 22 22 23
72 70 62 50 44 48 53 54 38 30 36 49 55 70 82 75 72 72 65 67 67 64 59 48 47 47 38 35 33 32 29 26 29 31 29 30 29 29 22 20 20 20 20 20 20 21 22 22 22
68 69 63 47 48 59 53 52 49 33 31 44 53 65 80 75 74 68 67 71 72 69 61 50 48 47 41 40 36 34 31 29 29 36 35 37 33 33 25 24 23 23 24 24 25 25 25 26 26
70 68 60 55 58 59 54 55 54 44 39 38 49 65 72 72 71 71 75 76 72 69 61 57 53 47 40 40 38 37 34 34 31 32 34 35 32 28 28 28 27 26 25 25 25 26 27 28 28
75 81 70 64 60 70 54 55 56 55 46 41 39 48 56 65 71 70 77 73 67 65 62 61 58 50 44 44 42 39 39 38 36 33 32 31 36 30 28 28 28 28 28 28 28 28 28 29 29
84 84 85 52 57 67 57 58 57 57 54 45 40 40 50 59 69 73 73 73 66 66 68 62 60 56 52 49 45 40 41 40 42 39 33 36 38 37 35 28 28 28 28 29 29 29 29 29 31
82 70 62 61 72 70 61 63 59 60 66 54 45 41 42 52 64 71 70 72 72 68 68 64 63 60 56 55 50 43 42 44 45 47 44 40 35 30 29 29 27 27 28 27 28 28 29 32 30
80 68 72 78 80 72 68 66 68 65 69 61 49 46 42 47 53 65 71 71 70 69 65 64 67 63 58 56 54 47 44 44 50 48 48 45 40 34 34 32 32 31 32 31 34 33 33 31 28
86 75 73 84 77 75 71 73 67 68 63 63 58 50 48 47 51 53 64 72 73 71 69 67 61 58 56 54 54 52 46 50 51 53 49 48 44 38 34 34 31 31 31 31 31 32 33 35 35
74 78 74 85 66 69 77 74 75 66 64 67 64 58 51 51 51 53 54 61 65 70 71 70 67 62 56 54 54 54 52 51 51 52 51 48 45 41 36 36 34 32 30 32 33 34 37 38 37
77 87 93 86 59 78 72 82 77 66 70 70 70 64 61 54 55 52 53 56 57 60 65 67 69 65 62 58 56 55 51 52 51 55 55 49 45 41 38 36 35 35 34 33 34 35 36 37 36
73 87 97 82 82 82 67 64 68 77 77 73 71 70 66 64 55 54 52 52 54 54 56 58 59 63 64 60 59 54 50 49 54 58 54 47 45 40 40 41 41 40 38 36 36 37 37 35 34
74 77 96 92 78 76 65 60 75 83 76 71 72 71 69 67 64 55 56 52 55 56 56 53 56 60 62 61 54 51 52 52 54 55 54 50 48 44 41 44 44 43 42 41 39 39 37 36 37
64 64 69 84 82 79 74 66 75 75 75 66 69 70 68 66 64 64 58 55 57 59 59 57 58 65 67 68 69 53 51 51 54 56 55 54 53 51 48 47 46 45 43 43 43 42 42 43 42
46 54 58 63 82 76 73 81 82 71 62 60 60 62 65 66 65 62 63 63 59 61 63 63 59 64 64 65 64 66 56 55 58 59 59 56 55 54 51 49 47 46 44 43 42 42 41 42 46
55 55 61 66 80 74 76 78 72 62 65 58 56 58 64 66 66 65 65 66 67 63 66 66 65 62 62 64 64 67 70 68 64 62 60 55 52 50 49 47 45 44 44 42 42 42 44 45 49
59 59 61 62 66 67 65 64 54 49 59 61 59 63 65 65 65 68 66 66 68 66 65 66 69 65 63 60 62 66 66 66 64 61 54 52 49 48 45 44 43 43 44 42 41 40 42 46 46
60 55 52 56 57 51 46 46 43 39 41 53 58 62 66 67 65 70 64 63 67 68 65 63 60 60 60 60 61 64 62 63 61 57 52 47 46 46 43 40 37 35 34 33 34 34 35 38 39
63 58 55 60 55 52 53 50 40 37 37 44 50 55 59 63 64 70 69 69 69 67 67 63 62 62 61 61 63 63 62 62 59 56 52 46 42 40 37 36 34 32 30 29 27 26 25 27 30
67 66 64 68 62 58 44 44 36 41 37 32 37 43 44 47 58 64 69 74 70 68 66 65 65 66 67 66 63 63 63 63 58 53 52 49 43 39 38 35 32 30 28 27 26 25 25 25 24
61 67 72 71 71 62 45 43 41 38 33 31 31 33 36 40 45 55 63 66 70 69 67 65 67 67 67 66 68 70 67 58 53 49 47 46 47 45 41 37 35 31 29 28 28 27 26 26 25
72 60 64 65 60 52 51 46 36 32 30 29 28 27 31 32 33 40 56 61 64 71 72 71 70 70 71 70 67 64 60 55 52 48 47 47 45 44 41 39 37 34 30 28 28 28 29 28 33
79 78 67 65 56 55 50 39 35 30 27 26 26 27 27 27 28 30 35 49 65 69 65 63 71 74 72 71 67 63 59 58 56 52 51 48 46 44 41 39 37 36 33 31 31 30 29 33 32
78 73 69 68 71 54 50 40 33 29 28 27 27 27 29 28 26 28 30 31 35 41 47 58 64 69 72 72 70 66 62 59 58 56 54 51 48 46 45 43 43 42 39 35 33 30 32 34 34
76 77 73 70 63 64 49 43 35 32 32 30 30 31 31 30 29 29 28 29 31 35 36 47 60 64 65 65 66 65 63 62 59 55 52 48 46 46 46 45 45 44 42 40 35 33 34 35 38
77 73 68 67 71 57 58 52 36 35 33 33 34 33 34 35 34 34 32 30 30 32 38 40 45 53 58 58 57 59 60 58 54 50 46 46 46 46 46 46 46 47 47 45 42 41 37 39 41

GFSSGP_prec_cthk_066.txt.gz
RH
55 56 56 53 59 56 47 40 55 61 60 60 63 60 68 74 73 66 53 53 45 40 34 31 28 30 30 28 27 25 22 21 22 30 19 16 16 11 10 12 13 19 27 27 21 15 14 13 14
57 66 61 59 55 59 45 33 54 59 55 60 59 65 70 78 67 64 61 55 48 40 35 34 33 30 29 25 22 21 19 18 19 25 19 19 17 13 12 12 13 13 19 18 16 16 15 16 17
62 71 64 64 56 48 45 37 47 51 52 52 62 72 70 81 75 68 63 57 53 44 40 40 37 33 29 26 22 19 16 17 19 23 23 21 18 15 14 13 13 13 15 15 16 17 17 18 18
67 75 71 64 48 37 39 38 45 49 52 54 58 69 80 88 80 71 68 61 57 50 48 46 45 37 31 28 25 21 17 17 19 24 24 23 20 18 17 16 16 16 16 17 17 18 20 20 20
74 74 70 63 47 43 42 50 50 46 43 54 58 68 82 82 78 77 69 66 63 54 51 48 48 45 34 30 28 25 22 20 20 22 24 24 20 19 18 18 18 18 18 19 20 20 21 21 20
81 77 65 57 47 43 48 54 50 47 43 51 60 63 75 78 78 77 72 73 67 60 55 49 49 50 40 33 29 27 25 25 27 27 27 25 22 20 19 19 19 19 18 18 19 20 21 22 22
82 78 67 52 48 50 60 58 50 48 44 47 57 61 68 76 77 78 77 80 73 66 58 51 50 50 45 38 31 28 26 29 31 32 35 33 30 25 24 22 22 22 22 22 22 24 25 25 25
77 78 67 63 56 55 63 55 55 47 50 46 52 71 72 69 74 80 80 87 80 69 63 56 52 47 47 42 36 30 27 28 36 36 36 35 30 27 27 27 26 26 26 26 25 25 26 26 26
68 91 74 62 62 65 59 52 54 55 55 52 45 55 67 75 75 81 83 85 84 76 69 65 57 49 47 45 41 36 31 29 31 36 36 34 32 28 28 29 28 28 28 28 29 28 28 27 27
83 89 73 56 59 68 62 53 53 55 59 54 47 47 52 68 77 81 80 80 78 80 74 67 58 55 53 48 43 40 37 33 32 32 32 35 39 35 30 29 29 29 29 29 29 29 29 28 28
81 79 67 66 74 68 68 63 57 55 61 60 52 42 46 52 67 77 79 80 79 80 76 73 63 59 55 56 49 44 39 38 39 39 35 39 38 37 32 30 29 28 28 28 28 28 29 28 28
85 77 75 76 80 72 61 66 57 61 61 58 57 46 45 49 57 72 81 77 75 79 80 75 68 61 57 59 55 49 44 42 42 43 44 43 39 35 32 33 30 28 27 26 28 28 31 30 28
84 75 77 78 78 63 73 73 63 60 57 59 59 59 47 52 53 62 73 78 79 75 75 71 67 63 59 58 56 55 48 44 44 49 45 46 45 42 39 35 32 31 30 29 29 30 29 31 33
71 82 77 76 80 92 76 66 58 56 54 60 62 62 59 49 54 55 60 74 77 79 78 76 72 67 65 61 59 56 51 47 48 49 46 46 48 46 40 40 34 31 30 29 29 30 33 34 34
75 84 84 86 88 83 75 71 56 51 59 64 66 64 62 57 52 54 53 57 70 74 73 74 71 69 67 61 58 56 54 55 52 50 47 44 47 47 42 39 37 34 33 33 32 32 32 33 34
73 84 91 83 76 94 75 80 56 63 66 63 64 68 65 62 58 51 53 53 55 61 66 69 69 70 73 66 62 58 55 54 54 52 47 46 49 43 42 42 38 39 40 38 38 36 34 34 34
78 93 88 88 81 91 90 76 67 66 56 62 65 68 66 66 64 59 53 54 55 55 60 65 65 64 66 61 64 64 64 57 50 48 48 49 43 45 45 45 44 44 44 43 40 40 40 41 40
71 83 88 76 76 91 92 77 73 68 63 67 69 71 69 66 67 65 62 56 56 56 55 55 55 55 54 53 57 62 63 58 49 49 49 45 46 49 51 50 50 49 49 48 45 44 45 46 45
60 64 90 87 86 94 92 81 73 67 61 64 65 66 65 69 67 67 66 65 64 61 60 58 54 54 56 56 58 62 64 68 67 53 50 50 52 54 56 55 54 53 50 49 48 49 48 47 47
60 63 75 83 84 84 82 78 72 63 60 59 58 58 61 66 72 74 64 64 65 65 62 62 59 56 56 58 61 65 65 65 66 70 65 59 59 59 58 56 54 54 50 47 45 46 47 48 47
62 57 67 88 85 87 83 77 65 60 61 61 60 55 58 64 67 69 65 64 63 66 69 72 66 63 61 61 62 64 65 66 66 68 70 67 68 62 56 53 52 51 49 47 45 44 43 45 43
68 62 69 71 79 82 71 68 58 55 46 56 63 61 60 62 61 66 62 60 61 64 65 69 74 70 68 67 62 60 57 61 64 66 73 65 61 59 53 51 49 46 43 40 37 37 38 38 38
68 70 69 59 61 61 66 62 49 47 46 44 41 53 59 62 59 64 63 61 62 63 65 69 66 66 71 67 64 61 62 63 63 65 63 62 59 58 53 49 45 42 39 37 35 33 30 30 31
65 65 64 61 66 72 59 56 42 46 40 41 40 40 49 56 60 61 63 64 65 63 64 66 67 63 62 63 67 68 65 63 63 65 66 62 57 54 51 49 47 45 42 38 36 33 31 31 31
66 64 80 77 73 68 45 49 45 42 39 36 33 35 37 43 44 48 50 56 62 65 69 69 71 68 66 65 66 66 67 67 67 67 67 63 58 54 48 47 45 45 45 44 42 39 37 32 31
74 58 68 65 72 60 51 49 39 39 34 32 31 31 32 32 35 37 37 44 51 56 68 73 74 74 71 69 69 70 70 70 70 70 72 67 62 53 50 48 45 44 44 43 41 38 36 32 31
71 76 63 67 56 69 59 47 42 35 35 33 30 27 27 27 26 28 31 38 44 48 61 67 72 74 75 74 72 72 72 74 74 71 67 64 58 56 53 50 47 44 44 43 41 40 39 37 35
76 73 75 81 77 66 62 55 50 43 35 33 32 32 30 30 28 28 27 27 31 35 47 63 74 75 76 74 68 70 73 74 76 72 68 66 63 60 57 53 51 49 48 47 45 44 43 40 38
83 90 76 71 76 83 69 59 44 43 38 38 36 34 32 30 30 29 28 28 28 29 33 36 47 62 64 65 65 69 73 75 75 72 69 68 63 61 55 51 49 46 46 46 45 45 45 44 42
77 75 74 82 78 69 76 69 54 45 38 37 36 35 36 34 31 31 30 30 31 31 30 33 37 37 41 48 56 63 68 67 65 65 66 65 65 57 54 50 48 47 46 46 45 45 47 48 46

GFSSGP_prec_cthk_069.txt.gz
RH
57 61 61 56 63 63 56 47 52 60 68 69 62 63 78 75 77 69 57 48 47 40 36 33 30 32 31 29 25 22 20 27 27 16 13 11 9 10 11 20 29 31 27 19 12 12 13 14 18
58 66 65 65 62 64 52 45 53 56 58 66 64 70 77 85 79 70 61 54 45 36 34 32 34 30 28 25 21 20 19 25 24 16 15 12 11 11 12 13 17 18 15 13 13 14 16 16 20
62 68 67 71 64 54 49 40 49 54 58 64 67 70 86 88 80 77 66 60 45 39 36 36 36 33 27 23 20 17 17 20 22 19 16 14 13 12 12 12 13 13 14 14 15 16 17 17 22
67 72 71 68 55 44 39 44 46 61 59 61 62 74 83 91 85 81 69 63 50 45 44 44 41 37 29 24 20 16 16 18 22 21 18 16 16 16 15 15 16 16 16 16 17 18 19 19 19
68 75 84 71 54 44 40 48 54 55 50 51 61 71 79 92 88 84 75 66 55 50 51 51 48 43 33 27 23 20 18 18 21 23 19 17 17 17 17 17 17 18 18 19 19 19 19 19 20
71 82 80 72 52 46 46 51 56 52 52 52 57 69 77 81 83 86 83 72 65 55 53 54 52 46 40 33 26 23 23 23 24 24 21 18 18 18 18 18 18 18 18 19 19 20 21 22 23
72 88 76 59 57 56 55 55 54 54 51 52 55 66 71 73 76 84 83 79 73 65 59 55 55 48 42 38 28 25 26 28 28 31 30 24 23 22 22 21 21 21 21 22 22 23 24 24 25
73 82 75 70 62 55 62 49 53 53 54 53 55 62 67 74 74 80 90 85 79 73 67 58 57 50 45 40 33 26 28 30 31 34 34 28 27 26 25 25 25 25 25 26 26 26 26 26 26
83 88 83 71 68 61 62 55 59 59 56 51 55 56 61 70 72 74 88 82 86 80 73 62 60 55 50 44 38 31 27 33 34 37 36 33 30 28 28 27 28 27 28 28 29 29 28 28 28
92 92 69 63 72 68 62 55 60 63 59 57 56 64 67 69 72 77 89 91 90 82 79 67 67 60 54 47 41 37 31 27 32 34 34 34 34 31 29 29 29 28 28 29 29 30 29 29 29
92 77 59 70 76 74 66 61 63 66 63 54 54 60 65 58 60 65 63 73 91 85 85 75 69 66 55 50 45 41 37 31 29 29 31 38 38 37 33 31 29 28 27 26 26 27 28 28 28
94 69 64 75 73 84 69 67 64 64 60 55 53 54 60 52 49 52 62 76 83 88 81 77 72 71 62 55 51 49 44 37 33 35 34 37 38 39 35 32 31 27 26 25 25 25 26 27 26
78 80 71 77 83 78 79 72 71 64 55 51 54 57 57 61 55 54 62 75 79 82 82 78 77 74 67 62 60 53 51 45 40 40 39 39 40 39 39 37 34 30 27 26 26 26 26 26 29
67 81 75 81 87 87 77 74 73 66 62 55 51 52 57 64 62 60 61 71 84 85 82 83 82 80 70 68 64 63 57 50 50 44 44 42 40 40 40 40 36 32 29 28 27 28 28 29 30
73 82 87 83 79 88 90 84 71 71 66 61 56 54 58 63 66 64 59 68 76 79 80 81 83 82 73 70 66 67 62 54 52 51 50 47 42 39 41 41 37 36 33 32 33 34 35 34 34
76 83 96 95 95 83 89 78 78 75 65 61 56 54 55 60 62 65 61 60 64 70 78 81 82 78 78 74 71 67 64 57 54 56 54 51 45 39 42 39 40 41 39 38 39 38 36 36 37
85 85 93 96 96 93 93 90 86 80 71 59 56 55 53 56 58 59 61 58 61 65 63 69 77 75 78 76 73 72 69 62 61 58 58 55 48 44 41 41 43 45 45 44 43 42 42 42 42
84 85 86 95 93 91 88 94 84 76 67 57 56 55 57 53 60 58 59 60 59 57 62 60 59 65 69 71 70 68 64 60 64 64 59 55 50 45 44 45 48 51 50 49 50 49 49 47 46
83 70 88 82 88 86 95 91 80 77 75 64 53 54 55 58 59 67 65 61 62 65 59 63 61 63 60 56 53 54 55 59 62 58 61 63 59 51 49 52 54 56 56 55 53 51 50 49 46
80 86 91 93 89 85 90 90 81 80 75 70 62 57 52 58 64 65 65 65 63 63 65 68 65 65 62 65 58 54 54 55 58 60 65 69 72 63 61 62 61 59 59 57 53 50 48 50 47
82 74 83 89 87 89 86 94 90 76 76 67 58 54 53 56 60 59 57 60 63 61 65 66 66 69 67 62 63 61 61 62 64 65 64 67 71 68 70 70 69 65 60 55 53 51 51 51 44
74 68 70 81 93 99 91 93 79 72 71 64 59 55 53 55 56 52 57 60 64 65 63 68 69 75 74 75 74 74 67 61 62 63 64 68 68 69 67 66 62 63 62 58 52 47 45 44 39
68 61 68 76 89 82 82 76 63 67 65 54 58 56 56 56 53 51 53 57 62 64 67 66 69 71 73 73 77 80 82 73 69 68 63 64 65 64 62 62 65 62 58 52 48 46 45 41 37
73 70 76 80 77 89 72 66 61 62 57 50 42 43 46 50 51 52 52 56 62 61 64 66 65 69 72 78 76 77 78 76 74 72 66 64 62 64 62 61 60 57 53 50 47 45 42 42 42
72 80 95 92 88 77 61 62 54 51 50 48 45 45 45 40 44 55 54 58 57 59 62 64 65 62 62 65 70 70 73 74 74 75 74 74 69 68 65 65 63 60 56 54 48 44 42 41 41
75 73 78 78 83 68 54 56 48 45 40 38 38 39 39 35 37 40 46 49 49 50 54 60 61 64 67 68 67 67 69 69 70 72 73 73 70 70 73 71 68 65 61 54 49 44 43 42 41
68 72 62 64 60 67 58 51 44 42 38 34 35 34 34 31 30 30 31 31 34 37 43 52 57 63 65 75 75 75 74 73 75 75 76 75 73 74 74 73 68 64 60 56 50 48 47 45 45
73 66 68 75 74 66 65 55 51 46 41 36 35 33 29 28 27 25 25 25 25 28 34 41 46 56 65 68 71 76 78 80 81 80 74 75 74 74 73 69 67 66 61 57 52 49 47 45 45
78 73 68 67 78 81 68 60 50 49 45 44 40 35 33 32 30 29 28 26 27 26 25 29 33 40 52 67 74 76 77 80 77 73 72 75 77 73 72 71 69 67 63 54 51 48 47 45 44
77 76 74 80 76 73 74 63 54 52 47 42 42 41 40 39 37 34 30 29 28 27 27 27 27 29 34 38 47 58 65 69 69 68 73 74 74 72 68 67 67 61 53 50 51 50 48 47 46

GFSSGP_prec_cthk_072.txt.gz
RH
66 70 67 62 65 65 72 57 51 60 73 69 66 68 72 76 71 67 64 51 49 41 40 38 35 33 33 31 26 22 25 28 19 12 9 8 14 27 39 41 37 32 20 11 11 12 15 19 20
67 71 76 71 73 67 56 46 49 50 58 66 72 72 74 80 74 72 65 60 53 40 40 38 35 34 32 27 23 25 31 23 16 14 10 9 10 17 26 32 28 20 13 13 14 15 18 20 21
64 73 78 79 76 62 47 41 45 48 67 69 72 69 80 86 80 76 70 63 53 39 39 36 37 34 28 24 21 23 31 20 16 14 11 11 12 12 14 17 15 14 14 15 15 16 20 22 23
77 70 79 80 73 50 42 45 51 57 58 63 70 75 79 88 87 75 73 62 50 40 42 41 38 35 29 23 19 20 24 20 17 15 13 13 13 13 13 14 15 16 16 17 18 18 19 20 21
87 79 86 83 62 51 46 47 53 56 50 58 64 74 74 92 91 83 79 64 50 45 48 48 46 39 29 24 19 19 22 22 19 17 15 16 16 16 16 16 17 17 18 18 18 18 19 20 22
93 86 86 80 58 52 53 48 51 55 62 66 60 72 77 82 90 91 83 72 55 51 56 55 52 45 36 26 23 21 22 24 23 18 16 16 17 17 17 17 17 18 18 19 20 21 22 23 23
79 95 79 67 60 57 56 52 45 55 64 72 62 68 74 74 76 89 89 82 66 59 61 60 56 50 41 34 28 26 27 28 28 24 21 19 20 20 20 20 20 20 21 22 22 23 24 25 25
71 98 73 75 71 59 56 56 47 55 66 66 68 71 71 67 71 84 96 90 80 67 64 62 60 52 47 38 33 30 29 31 34 31 26 24 24 24 24 23 24 24 25 25 25 25 25 26 26
68 96 80 72 72 58 60 58 59 62 66 63 65 66 62 71 73 73 87 92 90 80 72 64 62 55 52 43 36 32 33 32 33 34 30 28 28 27 27 26 26 27 27 27 28 28 27 27 26
74 90 78 60 67 60 66 62 63 65 68 67 65 66 68 65 63 73 70 83 95 84 76 74 65 59 56 49 42 37 35 34 32 35 35 31 31 31 30 29 29 28 28 28 28 28 28 27 26
62 81 75 64 75 65 70 66 67 62 67 65 62 61 57 60 66 63 73 74 80 96 91 78 71 67 61 54 49 41 35 38 36 34 34 34 34 34 33 31 30 27 26 26 25 25 25 25 25
74 68 79 72 76 73 73 72 74 66 61 61 62 64 55 59 60 64 67 70 68 82 91 92 81 68 67 61 54 48 42 37 35 31 31 33 36 36 35 34 31 28 26 25 25 26 26 26 26
74 68 82 82 83 81 78 79 72 68 64 65 62 65 69 68 64 67 73 67 65 67 75 87 91 76 67 66 58 52 51 46 42 38 35 35 35 36 35 35 35 32 29 26 26 26 25 26 27
67 63 83 85 77 80 88 84 81 69 69 66 62 62 65 68 64 66 64 66 71 70 74 75 89 87 76 70 62 61 58 55 51 47 46 42 40 39 38 38 40 36 33 30 29 29 29 29 30
74 73 83 90 76 85 88 90 82 70 66 65 62 59 61 60 62 61 66 66 73 74 75 75 80 93 86 79 71 67 61 60 57 54 51 49 47 45 40 38 42 39 37 36 34 33 33 35 34
72 82 86 90 86 86 94 90 88 75 69 67 64 57 55 59 60 63 61 64 76 76 75 81 79 82 85 82 75 75 73 67 64 59 56 53 51 48 44 40 40 41 42 43 42 41 41 40 40
80 84 79 95 89 91 87 95 88 85 76 71 66 60 56 55 55 62 74 71 74 78 71 72 79 87 88 86 82 80 80 75 68 67 61 58 53 52 48 45 40 42 45 48 49 48 48 47 47
78 84 78 97 96 96 90 88 94 82 78 73 68 61 60 59 59 60 64 73 72 75 70 68 74 84 85 87 82 84 85 74 72 72 63 61 59 56 53 48 42 45 47 51 52 52 54 54 52
78 77 79 93 89 91 95 89 92 90 80 75 68 65 59 56 57 60 62 63 68 77 74 69 77 83 73 70 74 80 78 71 67 61 59 59 62 63 63 56 48 49 51 53 57 57 57 55 55
82 80 85 86 95 95 96 92 92 93 84 77 73 65 59 56 53 54 56 57 61 64 65 71 69 75 78 71 67 64 63 62 63 62 62 60 61 64 66 68 64 60 58 58 61 62 62 59 54
84 79 86 86 94 93 92 92 89 87 82 78 71 67 60 51 49 51 53 56 60 65 67 68 73 72 74 73 73 71 70 68 66 63 60 62 66 66 69 69 67 67 68 71 69 64 62 62 59
95 81 73 92 96 93 84 91 86 78 74 69 68 67 62 54 49 48 49 55 60 63 66 70 72 77 80 79 74 72 68 68 69 70 73 76 73 73 72 66 66 68 69 68 65 63 62 57 52
78 80 77 86 98 98 94 86 72 75 74 67 64 63 59 56 51 48 47 51 58 64 62 66 68 72 74 76 75 78 77 76 82 80 78 80 85 84 81 78 72 69 65 64 63 58 52 50 48
74 82 89 88 93 98 88 85 63 65 65 60 61 59 56 53 51 51 51 52 54 58 60 64 70 74 75 79 84 86 89 85 90 88 82 80 83 81 80 78 73 67 64 61 58 55 54 54 50
76 81 97 98 97 89 76 76 61 55 58 52 50 58 54 54 54 50 51 51 57 59 60 62 64 67 71 75 82 80 85 90 86 92 84 79 80 82 81 81 80 74 68 69 72 66 62 59 53
81 70 83 90 92 80 70 68 57 50 51 52 47 49 52 51 45 46 46 51 55 58 61 62 64 66 64 65 69 71 73 75 76 78 83 82 81 80 80 80 75 70 70 75 71 69 66 59 54
76 76 67 70 74 75 70 58 55 52 48 45 49 44 42 41 39 36 39 42 47 52 51 50 48 50 55 57 61 62 64 68 71 75 78 77 77 81 81 79 80 76 72 71 66 65 64 60 54
73 74 73 74 72 68 67 57 58 55 48 40 40 40 38 37 36 35 33 33 34 32 31 33 36 41 48 56 58 59 64 66 73 79 80 80 81 83 82 79 76 71 71 72 71 69 67 61 53
71 69 68 69 72 70 65 55 47 50 51 50 45 41 38 36 33 31 32 31 28 26 26 23 25 30 34 37 45 55 59 64 71 77 79 82 84 82 74 76 77 76 72 70 68 66 62 55 53
75 70 66 70 70 74 69 58 52 53 53 51 48 45 42 38 36 35 34 32 31 29 27 25 24 25 28 30 34 39 47 56 65 73 78 81 80 76 73 76 78 78 73 69 66 63 59 56 53

GFSSGP_prec_cthk_075.txt.gz
RH
66 70 68 73 72 74 58 58 50 59 72 79 69 71 74 74 67 61 62 52 45 43 43 43 40 38 32 30 25 22 30 27 13 11 20 29 41 49 49 44 42 34 12 10 12 14 17 18 18
64 71 75 79 83 79 61 49 51 52 61 68 77 77 76 78 76 69 62 56 48 46 44 42 42 40 34 29 25 24 29 19 13 10 10 22 33 43 37 33 25 13 11 13 15 17 19 19 19
67 75 77 85 87 77 48 44 49 58 65 68 79 77 81 82 81 71 66 64 55 49 45 42 43 41 33 27 28 32 22 17 14 11 10 11 24 31 31 24 18 13 14 15 17 19 20 19 18
65 79 81 91 88 60 44 40 45 66 72 63 70 78 81 86 85 76 71 70 62 51 45 40 44 41 34 26 29 31 22 17 14 12 12 11 14 20 19 15 14 16 17 17 18 18 18 20 20
64 71 93 92 81 61 48 46 50 66 64 66 68 73 79 85 88 89 77 72 60 54 46 43 45 37 34 27 26 29 21 17 16 14 13 13 14 15 15 16 17 18 18 17 16 18 20 21 22
57 70 91 87 72 58 57 52 52 54 58 59 61 62 72 83 91 90 80 75 65 55 50 48 46 38 35 27 25 31 25 19 17 16 15 16 16 17 17 18 18 18 18 19 20 20 20 21 21
54 66 84 71 54 68 61 59 54 50 55 61 56 64 71 76 85 86 86 78 62 59 57 55 51 43 37 28 26 29 34 23 18 16 16 16 17 17 18 19 19 20 21 22 22 22 23 23 23
55 66 67 90 69 56 59 61 55 51 56 64 64 68 69 71 71 87 96 84 66 67 67 61 56 50 41 36 32 31 36 30 26 21 20 20 20 21 22 23 23 24 25 25 25 25 25 25 25
60 75 67 73 78 49 54 60 61 58 55 61 64 69 68 68 67 81 92 96 88 79 77 72 64 55 48 41 37 37 38 40 35 31 26 25 25 25 25 25 24 25 25 26 27 27 27 26 25
58 68 54 55 80 64 57 64 63 67 65 67 66 72 72 70 68 76 82 86 94 90 87 77 71 59 54 47 40 39 38 40 39 35 31 30 30 30 29 29 28 26 26 26 26 26 26 25 24
63 63 49 60 80 73 72 70 67 67 72 64 63 73 67 67 72 72 72 73 95 93 97 84 80 68 60 54 46 43 41 39 40 37 34 33 33 33 33 33 31 29 28 27 26 26 25 25 24
79 53 63 62 69 81 79 76 73 69 66 67 68 69 72 67 68 69 75 76 79 84 94 95 89 80 68 62 54 48 47 44 42 41 38 34 35 35 35 35 34 31 29 27 27 26 26 26 26
80 61 65 69 70 85 84 79 80 69 67 70 73 82 73 63 58 66 70 77 87 78 77 84 89 90 78 69 63 56 49 47 49 47 41 35 36 37 37 36 36 36 31 30 28 29 29 29 29
71 68 69 72 74 84 76 75 80 74 72 74 72 75 73 64 61 67 78 74 78 75 72 76 79 85 89 77 68 63 60 56 50 48 44 41 39 39 37 36 37 40 38 34 33 32 32 33 34
76 77 74 72 88 90 78 89 83 77 74 75 73 76 79 70 67 69 71 69 69 73 72 76 83 80 88 79 76 70 68 64 62 58 54 52 49 47 44 42 40 39 42 38 37 36 35 36 37
82 90 82 69 93 92 88 82 81 84 82 81 77 73 72 76 74 74 71 72 73 75 76 78 85 81 80 84 88 80 72 65 64 64 63 61 56 53 50 47 43 42 41 42 41 42 40 42 42
81 90 72 74 87 94 94 79 81 92 88 85 80 71 68 66 72 72 82 79 74 80 83 81 82 85 81 79 85 82 81 78 70 69 69 70 65 59 55 51 48 47 43 42 46 48 48 47 49
77 77 77 71 80 91 95 82 86 94 89 83 79 76 69 67 71 72 76 74 74 82 78 80 77 77 94 92 87 87 87 82 73 74 73 71 71 66 62 56 55 52 47 44 48 51 51 51 53
69 70 72 74 83 85 94 84 85 92 89 82 76 72 70 67 65 67 71 75 76 74 83 82 82 81 84 87 86 91 90 85 80 82 75 77 75 70 66 63 62 60 54 50 52 54 56 59 59
73 75 78 83 89 96 94 94 92 88 94 87 80 75 69 67 63 60 61 62 63 70 74 80 86 91 84 79 76 79 83 85 81 76 68 64 63 65 61 60 64 64 67 65 62 57 59 63 63
81 69 79 77 82 93 96 97 93 95 95 85 79 73 66 61 59 57 56 55 54 59 66 77 85 80 80 84 82 77 81 79 74 70 67 65 67 69 63 63 64 68 71 73 70 72 71 72 69
81 73 77 86 95 99 91 96 94 86 87 88 75 71 65 60 58 54 52 52 52 57 61 67 72 78 81 81 80 77 77 82 86 84 83 81 80 76 66 70 72 75 75 75 74 74 73 69 65
66 76 83 88 90 95 96 92 73 74 76 73 74 68 66 63 60 57 51 48 54 56 58 62 64 71 74 81 84 81 78 83 84 92 95 95 94 92 89 88 88 90 87 83 81 71 68 68 65
90 89 87 89 98 98 97 86 66 71 69 72 70 67 65 66 66 64 59 53 50 52 53 60 65 68 73 74 76 78 79 83 89 89 92 95 93 94 96 94 90 87 87 86 84 77 72 70 68
87 90 96 97 98 94 86 90 69 61 63 63 62 60 62 61 60 62 60 58 56 54 56 61 63 64 68 71 74 77 76 79 83 86 89 84 88 87 95 92 87 84 84 84 79 75 72 70 68
81 81 95 94 91 83 78 83 65 59 58 56 52 54 59 59 57 58 58 55 53 55 59 65 65 64 65 67 73 79 80 84 86 87 89 87 85 84 84 91 85 84 84 82 79 76 76 74 68
76 81 72 80 78 88 78 63 57 53 56 59 50 52 58 58 56 56 57 54 54 53 56 63 66 67 65 63 65 65 64 69 73 78 85 82 75 78 83 83 84 83 77 79 74 71 69 70 69
71 67 65 71 85 76 73 61 61 58 53 53 57 53 52 53 52 49 44 39 39 42 48 55 58 58 57 55 53 54 57 58 60 64 71 72 73 75 81 80 80 80 81 78 75 71 70 70 69
77 70 68 68 67 70 65 56 52 56 60 51 48 50 46 43 44 43 41 38 34 33 32 34 35 32 34 38 38 42 45 51 57 60 63 68 73 74 77 80 83 83 83 75 75 73 73 72 69
74 74 71 74 71 71 64 54 50 50 54 56 48 45 43 41 41 39 36 35 33 31 30 28 26 26 26 26 30 33 34 37 44 48 52 57 65 76 78 78 78 76 73 72 75 77 75 70 64

GFSSGP_prec_cthk_078.txt.gz
RH
43 50 61 66 72 77 72 56 53 55 65 71 72 78 77 75 72 61 62 62 49 45 45 46 41 39 33 30 23 28 33 18 22 31 40 41 48 42 41 42 41 32 10 10 13 16 16 17 18
41 51 64 76 83 85 67 49 51 53 59 72 73 82 83 84 78 74 68 58 52 48 47 47 47 40 33 28 24 31 30 17 15 26 36 44 52 50 41 39 27 10 11 15 17 17 17 17 16
45 55 65 80 86 81 65 49 46 56 59 66 71 78 82 84 80 83 71 61 58 53 50 47 48 40 35 27 26 33 25 15 12 18 29 47 50 39 30 22 13 13 15 17 18 17 16 17 18
40 59 68 83 88 74 58 49 46 58 61 62 68 76 83 84 87 84 75 64 61 59 52 49 47 44 34 28 33 31 20 16 12 11 21 34 38 31 24 18 14 16 17 19 18 18 19 20 21
39 57 77 80 80 71 60 54 50 54 56 63 69 69 84 85 90 92 85 72 60 62 56 52 52 45 36 31 38 32 21 16 13 13 12 22 25 23 18 16 17 18 18 18 20 20 21 22 22
47 52 74 81 74 65 65 60 56 56 55 60 68 65 76 85 86 91 90 82 67 62 61 54 56 43 35 32 38 32 22 18 15 13 13 13 16 16 16 17 18 17 18 20 21 22 23 23 23
49 56 58 70 64 68 65 66 63 59 54 58 58 66 78 82 85 86 95 89 79 69 61 58 54 42 35 29 38 34 27 21 18 16 15 15 15 16 17 17 18 19 20 21 22 22 23 23 24
43 58 57 60 67 58 57 70 66 63 57 60 69 70 70 72 76 82 92 91 89 72 67 59 58 42 34 28 32 38 35 26 20 17 16 16 16 17 19 21 22 23 24 24 24 24 24 25 24
49 56 59 51 56 48 57 69 70 66 62 60 64 61 60 73 76 82 84 91 86 78 74 68 59 48 39 33 31 39 39 30 25 22 20 20 20 21 22 23 24 25 25 26 26 26 26 25 25
65 61 40 35 39 45 60 65 68 74 68 65 59 65 70 76 76 75 84 92 92 86 80 75 65 55 45 39 36 39 44 40 35 32 28 27 27 26 26 26 26 26 26 26 26 26 26 26 25
56 55 40 37 42 47 60 71 72 75 78 64 55 61 67 67 75 75 77 85 86 86 89 82 74 65 55 46 40 40 44 47 43 39 35 33 33 31 31 31 31 30 29 28 28 27 26 26 25
57 43 52 44 44 54 56 80 78 79 69 66 62 58 68 70 76 72 70 79 82 93 92 89 86 76 68 60 48 42 43 45 46 42 39 37 36 36 35 35 35 34 32 29 28 27 27 27 27
58 45 52 50 53 59 53 78 83 77 74 72 71 70 66 67 74 71 66 72 76 91 92 87 89 91 79 70 59 47 47 45 45 46 44 40 38 38 38 38 37 36 35 32 29 28 29 30 30
56 47 46 57 58 61 70 70 87 71 81 75 73 70 73 72 77 74 66 70 76 85 89 85 87 93 87 74 69 60 52 50 53 53 52 47 42 42 41 39 38 37 37 39 35 34 32 32 33
60 70 60 59 60 67 74 79 82 91 78 77 75 75 78 76 78 70 67 70 65 73 82 82 78 79 85 88 78 72 65 60 57 54 52 48 45 45 45 43 41 41 41 41 40 39 38 37 38
83 81 72 59 63 77 78 73 80 94 84 76 73 82 79 88 78 76 85 84 76 71 77 79 73 80 79 82 89 83 78 71 67 64 62 58 55 55 54 51 49 46 45 44 42 43 43 44 44
93 88 72 82 62 79 82 89 89 91 81 77 78 82 84 86 86 86 85 85 76 76 79 83 77 80 81 82 81 83 83 79 76 70 67 64 65 61 61 57 54 52 51 50 47 45 48 50 50
88 88 91 83 64 76 91 96 90 85 81 82 85 86 86 85 90 88 89 86 90 87 79 80 84 84 88 84 87 90 83 78 81 83 75 71 68 68 69 67 60 55 52 54 51 48 50 53 54
93 82 94 73 64 72 87 92 95 95 90 87 83 84 82 83 85 84 83 82 84 81 81 84 89 88 90 88 85 92 91 81 81 89 88 83 77 74 71 73 71 64 58 58 58 55 53 58 55
99 76 92 78 74 82 84 89 95 93 86 89 88 85 84 79 78 78 79 77 82 77 81 85 84 87 93 96 95 84 82 84 87 85 91 88 86 81 82 80 72 66 63 65 67 67 66 60 58
91 68 73 80 86 86 80 83 96 90 81 88 90 91 84 82 76 75 73 73 78 71 76 78 79 81 78 81 87 96 90 87 91 94 86 90 85 78 80 74 81 77 77 73 73 72 68 65 65
85 74 70 80 80 90 86 97 96 90 83 83 86 88 84 81 76 72 70 66 64 62 67 71 75 76 78 80 84 98 95 94 94 93 87 87 89 85 83 88 90 85 84 83 82 80 75 75 71
84 79 88 88 88 88 94 98 87 84 80 81 84 85 84 81 77 73 68 66 64 62 61 64 65 70 70 70 78 86 85 89 85 95 86 83 87 88 94 95 93 94 96 94 90 84 83 81 77
83 79 87 86 88 91 97 93 77 84 75 74 80 84 83 82 77 72 65 61 61 60 61 61 63 64 66 70 75 76 77 88 87 89 89 83 87 84 89 91 97 98 97 91 91 91 88 86 83
79 74 95 96 96 95 92 96 79 68 67 73 77 79 81 79 76 69 67 65 61 58 55 57 57 60 62 64 67 72 80 81 86 85 83 81 82 89 88 88 86 91 90 90 90 84 83 84 79
86 91 91 94 93 92 84 87 73 66 67 73 69 76 81 79 75 71 69 67 66 59 58 54 51 56 60 65 67 68 70 70 80 78 78 82 85 92 91 95 92 85 84 85 88 85 81 77 75
87 90 76 76 79 89 79 69 66 66 68 71 71 72 72 74 69 68 68 68 66 61 56 55 58 60 61 63 64 63 63 63 67 69 73 78 86 91 91 89 86 84 83 81 80 83 77 78 72
75 71 75 86 89 84 78 71 69 68 66 69 65 62 63 69 69 68 67 66 64 60 55 52 52 53 55 58 60 61 59 55 52 54 58 62 68 80 76 76 76 77 78 82 79 75 80 77 73
72 69 67 67 73 75 79 66 63 65 61 60 67 62 61 65 67 65 65 63 58 50 44 41 39 40 42 46 47 48 48 46 44 46 50 54 60 69 68 69 72 73 75 77 78 79 78 74 74
77 71 64 66 65 66 62 58 58 57 62 61 55 57 56 55 53 52 53 50 46 41 38 36 33 31 32 34 33 33 35 37 37 39 40 42 48 54 55 60 62 69 71 72 71 68 66 63 61

GFSSGP_prec_cthk_081.txt.gz
RH
34 37 44 48 52 56 54 48 47 48 50 64 74 73 75 79 72 67 66 63 56 50 50 50 45 38 37 29 23 26 23 26 34 24 23 31 32 37 41 42 44 31 15 12 14 15 17 17 16
30 38 45 53 57 59 54 49 51 50 51 58 72 77 75 81 81 79 71 69 59 51 50 50 49 43 34 28 25 34 19 27 37 37 36 40 48 42 41 41 30 11 12 16 16 17 17 17 18
31 40 45 55 57 55 55 48 51 49 53 58 69 79 79 80 85 83 78 70 62 56 52 51 53 45 35 27 29 34 21 21 33 42 51 52 49 39 38 30 10 12 16 17 17 17 18 19 20
31 44 51 59 55 56 56 47 50 51 56 62 69 74 81 72 80 83 82 68 65 59 57 55 57 47 36 27 33 34 21 17 26 39 53 66 58 31 21 12 13 16 18 18 18 19 20 21 22
34 43 52 59 56 58 55 50 58 57 56 60 68 67 74 77 78 82 87 74 66 60 60 57 60 50 36 29 35 30 20 16 18 30 46 60 36 22 17 14 16 18 18 18 20 21 22 23 23
43 44 53 55 53 51 47 51 61 63 61 59 65 72 70 69 73 81 97 84 71 64 65 63 64 53 37 39 38 30 21 16 14 20 34 35 29 21 17 17 18 18 18 19 21 22 23 24 24
44 48 44 43 47 47 47 53 63 62 60 62 60 65 64 63 62 72 89 98 79 73 70 65 70 62 39 45 42 32 22 18 16 15 23 28 23 20 18 18 18 18 21 22 23 24 25 25 25
40 47 48 46 47 39 39 54 54 68 59 62 64 66 63 57 62 71 81 98 95 79 75 63 71 64 41 40 42 33 26 21 18 17 18 20 19 18 18 18 20 20 22 24 25 25 25 25 26
48 52 43 40 42 31 32 49 52 67 67 66 68 60 65 63 66 72 80 93 98 90 81 69 74 61 42 33 41 37 31 27 22 19 18 17 17 18 19 21 23 24 24 25 26 26 26 26 26
55 53 39 28 29 37 40 49 52 72 73 71 69 70 77 68 64 66 78 91 94 93 91 79 75 62 44 32 36 41 37 31 25 21 19 20 20 21 22 23 24 26 26 26 27 26 26 26 25
50 50 42 40 36 42 50 51 56 71 80 69 67 74 74 70 69 66 76 83 85 86 86 86 81 70 51 38 35 41 40 34 33 28 25 25 25 26 27 28 28 28 28 28 28 28 27 26 26
52 40 49 42 46 47 46 49 62 69 70 69 66 71 76 71 78 73 76 82 84 80 84 90 85 79 63 49 40 39 48 42 38 37 33 32 32 32 32 32 31 32 31 30 29 28 28 27 26
53 37 40 43 48 50 51 50 54 63 74 77 78 76 76 75 71 74 78 88 86 81 82 93 87 85 72 63 51 43 45 49 48 44 40 39 38 37 36 35 35 35 35 34 31 29 28 28 30
55 52 47 43 42 50 53 44 58 50 71 81 75 74 80 72 72 76 78 77 80 74 78 89 92 87 81 68 62 50 46 47 48 48 44 42 42 41 40 39 39 37 36 36 36 33 33 32 32
62 63 58 52 43 50 52 52 52 47 65 81 77 76 79 77 80 73 71 78 74 73 73 79 91 88 86 76 71 63 52 50 53 50 50 50 47 43 43 43 42 40 40 40 40 40 38 38 38
65 73 68 42 45 40 61 52 39 50 66 79 80 83 89 86 83 75 78 80 77 69 70 79 88 82 81 82 83 78 71 59 56 55 58 57 50 46 45 46 46 45 45 45 44 44 42 42 44
64 65 67 50 47 44 58 53 49 58 65 81 82 88 88 88 93 87 83 76 75 71 80 86 85 86 82 80 79 78 79 74 70 68 63 61 58 53 54 56 55 54 51 50 49 48 45 45 48
85 88 83 70 46 50 58 64 69 61 74 75 85 87 90 92 96 93 95 80 81 77 83 84 83 84 86 83 80 80 84 78 72 73 73 71 68 65 66 66 67 63 58 55 54 55 55 53 50
95 96 84 67 56 52 62 76 79 73 77 79 86 84 86 87 92 90 98 93 91 86 85 84 87 84 91 89 92 90 83 80 75 79 80 80 83 78 77 76 74 72 66 62 59 59 62 62 56
90 95 95 94 67 74 71 84 89 92 95 96 97 90 84 81 89 92 93 99 93 88 93 91 90 94 95 90 95 96 93 86 81 82 82 86 90 85 84 82 83 77 74 71 67 66 68 68 66
97 95 91 98 88 75 76 86 88 85 87 92 93 93 87 82 84 88 91 91 94 92 96 95 85 86 92 89 86 92 92 88 91 85 83 87 93 90 94 95 93 93 90 86 79 73 70 73 71
90 79 86 85 83 98 91 93 86 86 84 89 84 86 85 84 83 84 83 84 84 87 88 84 87 85 89 96 87 88 91 95 94 92 91 92 94 94 98 95 89 84 91 98 94 94 90 90 84
81 71 84 89 89 88 90 78 79 82 87 83 82 81 84 87 88 85 84 82 83 81 78 77 83 87 89 85 88 95 96 94 93 96 90 92 94 94 91 90 90 95 94 98 98 98 96 91 87
90 87 90 89 87 92 91 78 78 87 83 78 78 73 79 89 87 84 83 83 81 78 71 68 71 71 76 81 91 91 89 90 91 92 87 93 89 95 97 92 90 87 92 94 98 95 92 89 89
86 81 94 95 89 89 91 91 79 75 77 72 76 74 80 90 88 85 84 81 77 72 67 65 63 61 63 68 75 75 77 80 86 86 89 88 88 85 91 90 92 87 88 90 90 89 89 87 84
77 79 84 89 92 95 93 94 80 77 76 74 73 76 82 86 88 84 84 79 74 68 63 59 57 58 62 62 64 67 65 68 69 72 76 79 84 85 88 87 89 88 94 93 91 89 88 86 83
94 87 74 81 82 83 81 78 77 77 75 77 77 79 81 87 88 86 81 75 72 67 65 65 62 59 60 58 58 58 56 57 60 61 62 64 68 75 81 87 90 89 90 88 86 86 84 77 76
87 80 79 84 84 94 82 72 76 74 72 71 74 80 85 84 83 79 75 72 69 67 64 61 60 62 61 59 60 61 60 59 58 57 55 52 56 62 66 74 84 82 81 78 74 73 75 75 73
73 74 66 65 70 75 76 69 68 67 67 71 70 73 75 77 79 77 73 69 67 63 59 57 55 54 52 52 52 51 52 54 56 55 54 51 48 51 58 67 73 72 76 77 70 70 69 71 70
76 67 58 57 57 59 58 58 59 67 72 68 70 69 69 69 72 71 71 70 65 60 56 53 50 46 41 40 38 35 35 40 43 42 43 44 42 44 50 55 62 66 65 65 64 64 66 64 60

GFSSGP_prec_cthk_084.txt.gz
RH
27 32 37 39 38 37 33 34 42 37 38 48 55 57 66 75 71 70 68 65 61 57 57 52 53 40 35 33 25 22 24 23 18 24 29 38 33 36 51 54 49 32 23 23 22 22 17 15 15
29 34 38 45 40 33 34 36 44 35 39 50 56 61 67 70 82 77 71 67 64 62 59 57 56 42 39 30 24 25 25 36 20 31 37 46 39 39 42 47 35 21 23 20 17 18 17 16 16
27 34 41 44 42 33 35 41 43 37 37 48 57 62 73 69 81 78 76 73 69 66 62 59 57 45 39 30 29 25 28 39 36 37 42 46 43 41 43 38 19 15 21 17 17 17 18 17 18
32 38 44 46 38 34 38 42 46 34 37 43 57 62 69 69 72 77 82 81 72 68 66 60 59 54 41 30 35 29 22 38 43 51 58 63 50 42 40 19 12 17 17 17 18 19 19 20 20
32 40 40 45 39 35 45 45 48 32 39 43 54 64 66 65 74 75 80 84 80 70 69 62 65 58 44 30 38 33 19 31 46 57 68 69 56 39 23 12 16 19 18 18 20 21 22 22 22
40 40 38 39 37 37 46 48 40 35 42 46 50 57 69 71 70 72 80 88 86 75 70 70 74 66 46 34 40 33 19 24 42 56 70 74 50 23 14 16 19 20 20 21 21 22 23 23 23
39 42 35 33 32 35 45 40 38 35 41 47 57 56 60 68 73 76 80 79 93 85 77 76 76 76 50 37 41 28 21 17 29 50 65 62 34 21 17 19 21 21 21 22 23 23 24 24 24
39 44 41 34 30 30 40 35 36 37 42 48 58 62 63 65 70 67 68 77 88 95 90 83 82 81 59 51 46 34 23 18 18 37 47 37 29 22 18 20 19 21 22 23 24 24 25 25 25
40 46 40 34 30 31 30 35 34 38 46 61 63 64 62 65 63 65 68 73 82 98 98 95 88 88 68 58 52 38 27 21 19 20 35 31 27 20 19 19 20 22 24 25 26 26 26 26 26
44 42 38 27 31 35 34 39 35 43 48 52 69 68 65 60 60 65 68 73 81 88 95 98 96 93 70 52 57 41 31 25 25 26 24 29 26 27 26 20 21 24 25 26 27 27 27 26 26
43 45 39 39 40 41 40 39 42 46 47 50 68 69 65 66 65 75 68 66 70 77 93 97 98 97 72 45 54 49 38 34 31 29 30 30 28 21 22 23 24 25 27 27 27 27 27 26 26
42 40 38 40 49 49 41 45 45 50 48 56 71 78 73 74 72 81 73 70 69 79 82 94 98 98 82 57 44 54 44 36 32 26 24 24 27 24 27 30 29 29 28 29 28 28 27 26 26
46 39 42 42 45 43 46 44 42 44 46 56 65 75 69 74 82 85 87 77 76 78 75 85 94 97 87 59 49 49 50 40 37 32 28 28 29 29 30 31 32 32 32 31 30 29 28 27 27
50 53 50 50 44 41 42 41 51 34 44 62 64 66 68 66 85 87 94 78 81 80 85 82 86 99 88 67 50 43 52 51 45 40 38 37 35 35 35 35 35 36 36 35 34 32 31 30 31
56 52 47 48 46 51 39 38 36 35 41 56 65 74 76 71 81 87 85 85 86 83 80 79 85 93 87 77 65 49 43 54 55 52 50 45 43 41 40 41 42 41 39 37 35 36 36 36 35
67 61 64 36 42 44 51 34 26 35 42 46 58 68 75 77 74 79 86 94 86 86 83 82 85 86 91 83 78 63 50 50 53 55 54 53 51 50 48 49 48 47 44 42 40 40 40 41 41
69 56 55 50 49 46 56 33 30 39 42 43 53 64 71 72 74 76 84 86 86 80 79 78 82 88 89 88 78 75 68 59 57 58 57 56 57 58 58 49 49 50 48 47 45 45 43 47 44
75 83 69 56 52 56 57 34 39 50 50 49 56 64 75 73 76 83 87 87 88 82 74 80 88 92 93 87 86 80 75 76 71 67 67 65 62 66 63 53 56 57 55 53 52 50 47 48 51
87 91 93 87 70 65 52 40 40 63 63 62 59 64 77 77 79 91 95 90 91 85 83 84 92 92 88 86 89 82 76 76 76 73 75 78 78 79 74 69 68 65 66 64 61 56 54 55 60
96 96 81 81 76 66 57 49 49 72 70 61 61 67 84 87 92 97 97 91 97 91 89 91 90 91 95 93 90 89 86 80 80 83 83 82 80 80 86 81 80 79 79 80 72 66 63 61 63
98 97 91 89 82 71 60 59 73 72 74 63 61 72 88 91 95 98 94 97 95 98 97 96 94 94 93 91 90 88 87 86 86 85 89 86 85 86 86 93 93 94 90 88 86 85 74 71 72
98 95 95 94 88 77 69 74 76 70 69 59 69 74 83 95 89 91 93 93 92 95 97 96 98 98 97 96 92 88 89 84 84 88 94 94 92 90 94 96 98 95 98 98 98 97 93 92 91
85 89 95 91 89 74 73 75 75 76 66 68 69 74 91 98 93 87 90 88 89 89 88 90 90 90 95 93 94 96 95 93 94 93 87 90 95 90 95 97 96 93 96 98 98 99 94 97 98
80 88 96 91 83 95 88 89 81 75 75 75 82 89 94 95 91 90 89 89 89 90 90 90 94 96 92 90 95 98 99 95 95 97 92 93 92 93 93 95 94 96 95 95 92 91 95 99 96
93 91 91 92 85 89 92 81 79 68 73 78 74 79 88 93 82 88 93 92 89 91 83 81 79 80 86 86 94 92 90 87 89 91 90 88 86 91 87 89 89 92 96 94 94 95 94 92 91
87 90 88 82 89 94 83 80 74 79 76 71 71 77 80 82 83 90 87 85 90 86 82 79 77 76 76 76 76 82 85 79 77 79 82 82 82 85 89 92 93 95 95 91 89 87 86 86 88
84 91 78 82 78 75 81 81 76 80 82 74 78 80 80 83 85 84 91 85 84 81 79 77 74 73 70 69 67 69 73 74 68 66 72 72 72 75 81 84 89 91 94 92 89 85 86 85 85
93 83 83 79 83 88 71 71 73 75 82 85 83 82 85 87 88 92 93 87 83 80 76 71 67 67 67 67 68 67 66 65 61 60 64 65 68 64 64 67 71 72 80 89 84 83 80 77 74
77 73 69 66 66 65 61 63 65 69 73 82 81 83 85 85 91 90 87 82 79 75 71 66 62 59 59 59 59 61 60 59 59 60 60 59 58 58 57 57 59 63 70 74 76 76 76 75 70
75 61 56 56 55 54 51 59 65 65 67 72 79 80 81 82 86 84 80 79 74 69 64 59 56 54 53 52 51 49 48 48 47 48 49 49 51 52 52 53 54 56 61 66 70 71 66 64 65

GFSSGP_prec_cthk_087.txt.gz
RH
21 28 36 39 37 33 33 29 23 27 28 35 41 51 54 54 64 74 68 65 65 61 56 55 52 44 42 35 28 22 21 19 19 26 22 23 35 43 50 50 53 42 35 31 23 20 16 15 17
34 37 37 40 39 35 34 28 31 28 34 35 35 48 55 58 71 86 70 68 67 68 60 58 54 48 40 37 28 23 26 20 20 26 24 32 37 39 52 52 47 29 33 27 22 17 15 16 17
30 39 42 40 44 38 31 32 30 34 37 40 44 53 56 60 58 66 69 76 75 71 70 63 55 53 41 39 28 27 30 21 28 32 42 50 41 42 47 49 33 31 27 22 18 17 17 17 17
36 42 46 48 35 36 32 28 34 37 37 39 45 57 53 60 61 57 64 78 84 80 78 68 62 57 45 38 29 30 35 33 33 39 52 57 47 44 41 35 25 26 21 17 18 18 18 18 19
42 47 40 39 39 36 37 31 31 39 35 41 43 48 63 62 57 57 64 67 87 90 84 76 67 61 54 40 36 30 37 43 40 47 50 59 59 45 43 25 26 24 18 19 19 20 20 20 20
45 42 42 35 34 37 33 36 37 33 42 36 44 47 56 85 54 55 61 69 76 94 86 87 73 73 63 43 40 38 29 47 49 58 67 78 67 47 31 17 23 22 19 20 21 20 21 22 21
46 46 39 33 35 33 37 36 39 37 38 37 46 49 50 68 66 62 62 70 71 87 94 89 81 79 75 50 47 45 28 39 56 64 73 82 73 46 17 15 23 20 20 21 22 23 23 23 22
45 42 43 40 37 36 33 36 38 40 39 39 47 48 52 64 63 53 69 67 75 71 96 88 91 88 82 63 52 45 26 30 50 67 74 82 66 38 15 19 23 21 22 22 23 24 24 24 24
49 48 43 38 43 37 32 32 38 40 41 43 48 54 52 63 76 58 66 70 74 80 86 92 90 92 92 71 62 48 31 23 36 60 74 71 51 34 19 22 26 24 24 24 24 24 25 26 25
48 44 41 37 38 37 38 37 36 35 39 39 41 51 59 65 83 78 60 66 70 73 75 80 97 97 96 81 74 61 36 25 24 48 66 59 45 32 28 22 22 24 25 25 26 26 26 26 26
41 43 41 42 45 46 46 45 41 42 42 41 44 40 62 70 58 82 65 62 63 71 72 72 86 95 98 94 75 76 46 33 30 31 48 49 39 31 30 22 21 24 26 27 27 27 26 26 29
41 38 38 40 44 52 51 44 37 43 47 53 53 57 57 71 63 69 70 70 67 61 66 70 75 88 98 96 79 77 61 38 36 37 35 39 36 31 31 23 22 25 26 29 28 29 30 29 29
44 43 39 39 39 41 48 46 41 35 39 51 59 60 55 65 73 66 76 85 77 70 68 70 71 80 98 94 73 84 70 50 37 34 37 37 34 29 30 31 31 33 32 34 33 33 32 30 29
43 48 51 51 44 47 44 38 38 29 37 37 42 50 53 61 71 70 78 91 85 74 70 66 67 72 89 97 73 76 79 68 48 39 36 35 34 31 35 35 35 36 36 34 33 34 33 32 31
44 47 47 43 44 47 50 45 38 27 32 34 33 41 55 58 69 71 70 82 89 82 77 69 73 76 85 96 78 64 80 77 61 47 39 36 36 35 38 39 39 35 35 38 38 41 36 35 35
52 52 51 37 41 43 56 52 37 30 29 32 34 40 55 57 63 77 74 78 86 96 89 72 77 77 85 90 85 75 58 75 74 56 46 43 42 42 40 43 44 45 44 41 48 41 39 42 40
67 64 57 48 54 52 61 59 36 34 32 29 33 36 52 61 66 75 75 74 76 91 91 85 82 82 83 88 87 81 68 56 72 72 63 59 52 50 48 47 47 49 50 53 53 46 45 45 45
65 68 64 56 60 64 60 58 40 49 35 39 36 41 52 63 69 71 77 76 80 91 94 88 83 82 85 87 85 82 75 65 61 70 71 68 62 59 59 56 54 52 53 62 55 51 52 51 51
73 71 67 65 71 76 67 43 48 46 62 48 48 57 55 63 75 70 74 83 82 91 94 91 86 85 88 91 86 91 80 74 67 63 65 67 66 70 70 68 66 58 59 72 61 58 56 55 54
85 89 81 74 71 77 79 50 51 51 54 63 55 56 60 64 67 74 81 85 86 93 97 94 85 85 90 94 89 97 87 82 81 75 74 76 79 79 79 79 75 71 75 74 69 70 65 66 62
90 96 91 90 80 78 74 64 52 56 56 72 66 63 67 62 63 82 86 82 84 92 94 91 92 92 94 97 93 99 93 94 87 83 85 82 84 84 84 80 83 82 82 80 79 81 82 77 75
96 85 82 88 94 83 66 69 48 65 61 71 67 55 62 61 66 80 84 81 86 96 96 98 96 97 98 99 98 99 97 97 94 89 86 89 85 85 86 88 85 86 90 91 95 92 99 96 90
88 88 80 81 85 95 75 69 53 58 64 70 62 56 61 60 67 83 90 84 89 93 97 97 98 98 97 98 98 99 98 95 92 98 97 90 87 88 87 94 92 90 89 90 92 98 95 99 96
95 98 90 90 96 95 90 90 78 71 71 63 63 58 65 68 76 80 92 97 94 90 93 94 96 97 95 96 94 96 94 96 97 99 96 92 90 86 84 90 95 94 87 88 95 95 94 91 95
95 98 95 98 98 79 77 97 76 75 74 65 58 70 74 77 85 97 98 97 97 94 95 95 93 95 96 99 95 95 93 92 89 87 87 80 91 85 79 92 95 90 94 87 95 91 94 95 95
88 90 97 89 86 88 91 98 96 83 75 71 79 88 90 85 96 95 98 97 93 95 94 87 87 88 89 93 93 97 93 91 89 88 88 87 86 82 82 89 91 91 94 90 94 94 95 91 91
87 98 91 96 84 90 96 89 84 93 85 88 92 95 97 93 99 94 97 96 91 93 91 89 86 85 86 85 81 84 87 90 91 88 81 79 78 82 84 90 93 90 90 95 93 92 94 90 88
93 87 85 83 90 83 74 77 87 94 91 90 93 91 88 96 94 92 91 90 88 88 87 82 80 80 80 79 78 74 77 77 81 81 80 75 75 77 83 83 86 81 82 84 90 89 91 92 91
83 75 70 69 70 81 64 79 79 86 94 93 91 89 91 96 98 96 95 95 90 83 81 78 72 68 67 68 69 68 70 71 69 68 68 62 63 65 65 67 68 68 68 73 79 84 89 82 78
75 67 64 67 63 61 58 77 79 80 90 89 89 95 95 96 96 94 89 84 83 80 77 71 66 62 59 58 56 55 57 57 59 61 61 60 57 58 56 57 59 60 62 62 65 74 75 72 71

GFSSGP_prec_cthk_090.txt.gz
RH
20 26 32 41 40 33 36 33 25 25 27 24 32 37 43 44 57 64 53 69 68 58 62 57 51 48 43 36 32 28 23 22 26 28 26 25 32 42 45 47 50 42 42 44 33 24 17 17 18
21 30 38 44 44 43 30 23 23 22 23 27 28 32 40 50 59 62 56 67 72 62 65 66 58 53 46 38 34 27 23 21 21 28 26 22 33 46 50 47 44 42 40 34 23 17 16 17 18
27 34 44 42 48 46 35 27 27 25 25 29 31 31 39 49 67 61 64 63 69 68 65 70 69 58 49 40 35 27 27 25 24 29 27 27 40 47 49 45 38 38 39 26 15 14 16 17 17
26 38 46 50 40 34 33 30 35 33 32 35 31 34 47 56 55 56 66 61 63 75 69 71 72 66 55 44 36 28 32 23 26 31 34 41 54 47 50 43 34 36 30 24 15 16 16 17 17
40 48 45 46 45 40 35 34 34 35 35 39 36 34 47 56 55 68 64 65 61 74 68 76 78 75 62 49 37 32 37 31 36 43 52 63 63 53 45 38 34 31 21 16 17 17 17 18 18
46 44 53 48 40 36 36 37 32 34 34 36 37 44 41 50 54 59 67 69 63 57 63 74 80 79 68 61 42 36 38 46 39 49 61 64 62 59 45 31 30 20 17 19 21 19 19 19 19
54 53 44 46 45 41 37 34 34 30 34 36 41 41 49 51 51 47 61 70 63 54 56 67 83 85 78 71 51 46 31 52 46 56 65 70 68 65 51 32 29 19 19 23 21 21 21 21 21
49 53 57 52 44 38 36 37 36 34 32 36 45 41 44 52 50 44 55 66 57 60 55 61 92 88 86 77 60 56 37 42 54 60 70 77 74 70 50 31 26 19 20 23 23 23 23 23 22
53 56 53 48 49 46 40 36 33 33 38 38 43 43 44 50 65 64 65 66 61 55 58 62 74 90 89 85 69 66 48 35 51 66 75 79 78 69 47 31 27 21 22 23 24 24 25 25 24
49 54 49 41 44 46 41 39 37 35 35 40 38 42 42 52 54 61 66 94 78 52 58 66 71 86 97 93 89 68 56 32 41 65 76 80 80 62 38 38 31 26 24 24 24 25 25 26 26
43 50 46 45 45 46 46 42 46 45 41 39 40 39 35 45 45 60 52 59 90 69 54 61 66 71 85 96 96 90 67 39 30 52 74 84 76 53 38 35 31 26 25 25 25 25 26 26 26
44 46 47 47 44 47 48 49 46 47 39 44 50 57 46 42 54 67 51 58 84 72 60 59 67 74 77 92 98 95 87 51 32 34 63 76 69 52 37 34 24 24 25 26 27 27 27 27 29
42 43 46 46 45 40 45 45 42 39 40 44 48 56 52 49 47 46 60 80 77 63 58 65 66 70 72 82 93 97 96 73 43 35 39 61 63 49 34 29 25 24 26 27 28 29 30 31 29
36 40 42 40 45 46 42 38 40 33 32 35 35 49 53 45 44 45 65 91 75 67 68 66 66 69 75 75 81 97 97 88 55 44 36 41 48 39 31 31 26 27 30 31 34 33 33 32 30
39 41 40 40 37 37 40 41 38 37 30 26 25 27 33 42 43 49 47 82 82 68 85 75 68 71 78 86 77 86 97 97 77 50 42 38 42 37 35 36 33 34 34 36 35 34 35 35 34
44 44 46 36 38 38 47 37 36 42 38 29 24 24 26 35 43 45 53 60 65 64 73 84 78 73 77 78 79 81 84 95 97 71 46 39 37 36 36 35 35 36 35 36 38 39 39 39 40
57 58 50 44 49 49 51 44 41 37 40 35 30 22 26 33 41 43 50 51 54 59 73 80 92 83 81 83 81 82 80 78 93 93 67 45 43 40 36 36 37 39 42 42 43 43 41 42 47
66 67 66 61 58 56 61 49 40 34 40 45 35 30 27 33 43 43 53 52 57 62 70 76 86 93 89 93 86 84 84 79 82 91 89 69 49 45 42 43 45 48 49 51 49 48 47 47 55
74 80 73 67 62 64 62 60 58 56 55 57 42 42 38 44 53 40 56 64 62 72 67 69 86 90 93 96 93 86 85 79 82 80 89 88 74 56 53 54 56 54 54 52 52 58 55 55 67
78 85 86 76 77 79 73 62 63 57 53 59 68 51 63 59 58 40 53 66 75 72 66 77 88 91 93 95 92 88 88 90 81 71 76 84 89 77 69 68 66 63 59 60 68 72 67 63 78
83 88 84 81 85 81 80 78 70 51 49 59 68 73 62 58 44 43 57 65 71 67 73 85 88 95 94 95 97 94 90 96 92 82 74 80 83 82 79 78 80 81 75 77 75 79 73 74 78
88 81 83 81 86 86 75 85 63 46 51 55 56 58 51 53 55 52 57 72 72 74 79 81 90 96 95 95 96 98 94 94 96 97 84 84 84 86 86 85 83 86 86 85 83 84 84 89 89
89 88 85 84 92 95 88 86 44 60 72 59 69 68 57 60 62 59 62 67 76 76 80 78 87 99 99 96 97 98 98 98 95 97 98 94 92 89 90 84 83 83 88 90 86 88 85 92 93
97 94 83 83 94 97 90 91 56 54 60 67 66 63 64 60 65 62 63 72 81 82 80 77 83 95 97 98 99 98 98 98 98 97 97 97 92 91 91 91 88 82 80 85 90 88 85 90 89
95 99 98 97 97 98 96 97 98 75 68 69 75 69 65 66 69 66 71 80 84 86 84 82 89 97 98 95 93 96 97 97 97 98 96 94 92 94 91 87 85 82 80 87 85 86 89 89 88
90 96 98 96 97 96 95 98 97 85 75 70 66 68 75 79 79 85 89 88 90 89 87 90 96 94 95 98 95 97 98 94 94 94 92 89 91 93 90 84 88 85 82 85 89 82 91 94 89
89 97 96 98 95 98 99 99 96 96 92 92 98 88 88 89 97 96 97 98 98 94 98 94 91 92 94 95 91 91 90 92 95 92 93 91 87 83 82 84 89 84 82 83 90 93 96 95 91
95 87 88 93 97 95 97 94 98 98 98 98 96 96 93 94 94 96 98 96 97 96 94 91 88 87 87 87 86 88 88 90 88 91 93 87 87 84 84 91 94 91 91 89 91 93 92 92 92
85 79 78 77 77 95 80 97 97 98 99 96 97 97 96 93 95 97 95 92 90 91 86 85 80 77 78 80 80 81 81 82 82 78 78 81 82 81 80 83 89 87 82 79 81 87 88 90 93
73 68 65 79 77 71 80 97 95 94 95 98 98 96 92 94 96 96 97 95 93 86 79 74 72 68 65 62 63 64 64 64 62 61 66 69 68 64 65 63 66 67 66 70 76 75 76 82 93

GFSSGP_prec_cthk_093.txt.gz
RH
18 25 33 39 40 42 46 37 24 22 21 19 27 32 33 40 42 47 53 50 57 58 55 59 57 52 46 42 35 29 28 33 32 31 31 31 34 45 45 48 44 45 51 45 40 25 20 17 17
19 28 37 40 47 53 43 25 24 17 22 25 28 30 32 44 46 47 51 49 50 56 60 63 60 58 54 46 39 32 28 26 28 33 28 26 32 46 48 49 42 45 45 44 33 18 15 16 16
24 31 37 40 50 53 40 26 19 23 22 30 29 30 36 48 47 47 51 52 52 53 57 62 62 62 59 50 42 34 27 25 26 29 36 27 31 48 49 50 44 44 39 37 23 14 16 17 16
32 38 36 48 45 37 35 28 26 29 28 29 31 30 38 49 53 53 52 58 57 56 60 63 68 67 66 54 45 36 29 29 27 27 34 28 36 48 50 48 44 41 37 28 17 15 17 17 17
40 42 45 46 43 38 34 34 35 37 34 34 36 31 35 42 48 52 50 58 61 60 61 56 69 72 69 64 49 39 35 31 32 31 35 31 44 63 56 46 40 39 36 20 15 16 17 17 18
41 47 54 52 42 35 31 35 37 41 37 36 37 37 36 41 42 45 50 48 58 62 65 62 66 72 72 72 60 44 41 37 36 38 46 54 61 67 63 46 40 35 25 18 16 17 18 18 19
38 43 52 53 47 39 34 34 36 41 39 38 39 40 41 40 47 45 58 55 55 60 63 64 69 75 74 74 70 57 44 54 43 48 57 66 72 68 66 50 34 29 20 19 18 19 19 19 20
37 42 43 48 49 44 40 39 35 37 37 39 40 40 43 46 56 56 51 62 67 60 63 71 67 63 69 73 77 70 48 58 48 52 61 77 77 69 62 58 34 25 26 24 20 21 21 21 22
35 44 50 47 51 47 40 43 40 36 36 39 46 43 44 45 50 48 48 56 66 74 72 71 71 65 65 70 83 78 72 45 60 56 64 73 76 72 69 63 42 28 26 22 21 22 22 23 23
35 42 40 36 37 45 48 46 44 42 38 36 43 46 48 45 49 58 58 66 74 73 79 79 83 77 68 60 74 87 90 61 51 66 67 77 80 76 73 63 48 30 23 23 24 23 24 25 25
29 37 34 34 37 41 46 46 45 45 43 41 39 45 47 52 59 57 49 48 60 72 76 80 86 85 65 56 75 91 94 85 49 57 77 79 81 81 71 61 48 35 25 25 25 24 24 26 27
30 31 34 35 35 40 42 44 41 44 43 45 44 40 47 50 50 53 53 45 50 61 67 65 78 78 68 70 70 86 92 88 74 48 67 84 89 86 70 57 51 40 32 26 26 26 26 26 28
33 33 35 37 39 38 42 42 43 39 39 37 40 42 38 45 46 50 53 51 48 55 56 68 78 79 67 63 70 76 85 92 86 59 56 83 91 80 63 51 53 42 35 27 27 28 27 28 29
28 29 29 31 32 34 37 38 43 40 34 38 38 41 44 39 40 43 46 48 55 57 67 83 82 80 70 59 68 69 80 85 94 69 45 65 82 81 73 56 48 41 33 29 27 29 30 31 31
34 35 34 29 31 35 40 34 34 39 41 36 34 39 43 42 40 42 46 44 48 68 76 83 86 76 70 67 62 66 84 91 97 87 56 46 63 86 67 53 43 37 29 28 29 32 33 34 33
40 41 45 33 36 39 46 36 31 29 31 31 30 27 36 33 46 45 46 44 53 67 65 84 82 78 75 73 69 70 75 84 96 93 79 59 47 56 78 54 36 31 30 32 34 35 34 36 36
47 54 53 48 45 48 48 40 33 33 34 34 29 30 25 24 22 40 41 43 46 55 57 74 78 77 75 79 76 75 75 81 88 84 80 73 55 50 57 56 39 39 37 37 37 36 37 38 38
52 58 57 61 55 60 56 47 44 50 44 38 36 31 30 25 18 25 30 27 37 46 50 69 65 66 71 77 85 83 83 82 86 88 82 79 60 51 52 50 44 43 41 40 40 41 42 42 43
63 71 77 71 74 76 67 54 53 51 54 46 41 37 34 28 21 25 33 29 32 50 54 65 57 54 69 77 84 90 86 91 90 89 93 87 73 55 49 47 47 43 43 44 45 48 49 48 49
66 73 72 64 77 76 77 68 62 58 53 48 42 43 41 36 29 34 42 35 36 51 54 64 60 58 65 76 88 94 96 91 96 95 92 92 90 76 58 53 52 49 51 53 56 55 55 55 56
74 81 80 81 75 79 84 74 66 56 52 48 58 53 58 48 40 42 47 42 38 51 63 66 63 66 70 78 87 96 95 94 94 94 92 92 89 90 85 71 59 58 58 61 63 61 64 65 65
80 79 81 90 92 84 74 74 58 58 52 43 55 63 67 69 59 45 50 45 49 60 67 72 79 73 75 80 92 93 96 95 92 92 95 93 91 96 93 91 89 68 68 70 72 76 76 72 75
88 91 96 97 90 89 74 86 64 44 44 42 58 68 77 79 65 55 53 52 53 64 71 74 72 75 85 89 86 90 92 98 96 96 98 92 94 90 88 88 96 92 88 84 82 80 82 90 90
78 92 98 96 94 96 79 79 62 61 62 49 54 71 73 71 60 59 60 55 58 68 74 75 76 84 90 91 87 98 96 97 98 94 97 99 97 99 97 96 92 89 87 85 91 84 82 80 84
84 96 97 96 97 94 95 90 74 71 77 77 76 71 70 63 59 61 68 63 67 73 81 81 83 89 92 90 89 94 98 98 98 99 97 98 98 98 96 91 88 88 89 93 92 84 82 84 83
92 98 98 97 97 97 98 98 96 89 87 88 84 76 73 66 72 78 77 70 77 84 87 89 90 90 89 94 93 90 92 97 99 96 97 97 96 95 93 96 92 86 87 90 91 90 88 87 89
90 98 95 98 99 93 97 99 95 93 93 89 79 76 81 80 86 90 92 92 85 89 95 93 95 89 94 98 97 94 92 93 92 92 90 95 94 90 94 93 94 91 90 92 93 89 86 89 91
92 88 88 93 96 97 97 96 98 99 98 97 94 92 92 94 99 98 98 97 97 97 97 94 93 92 95 95 96 96 98 94 92 94 94 92 93 95 94 92 93 92 94 96 96 94 95 88 90
80 81 82 79 83 92 90 98 98 98 98 98 98 98 98 98 99 98 98 96 95 94 93 89 87 86 88 88 89 90 91 91 90 92 91 94 96 97 95 95 96 96 95 92 90 92 94 95 92
66 68 65 77 78 80 85 98 97 98 98 98 98 99 99 98 98 98 97 95 91 87 83 83 75 72 69 69 69 68 69 69 70 76 79 81 80 79 78 81 84 88 87 89 88 86 82 81 92

GFSSGP_prec_cthk_096.txt.gz
RH
20 24 30 37 38 42 46 35 29 26 21 15 21 22 27 28 33 41 42 46 47 51 51 49 48 54 51 45 40 37 34 36 36 34 35 37 38 38 42 47 41 42 49 53 50 37 24 18 17
23 31 35 38 42 51 44 33 28 21 23 22 20 24 27 34 40 41 42 45 47 49 51 51 51 53 56 52 44 39 35 32 36 37 35 37 38 41 44 46 42 48 49 51 44 32 16 16 15
29 35 33 37 45 48 41 29 24 23 22 27 26 27 30 40 43 43 42 44 48 51 52 52 51 55 58 57 52 42 36 32 31 34 38 32 39 44 48 45 46 49 46 46 38 21 16 16 15
36 40 37 44 44 39 33 30 29 31 26 28 29 30 38 38 43 47 47 48 51 52 52 55 55 54 61 60 56 48 38 33 30 30 41 36 36 43 50 47 48 49 40 43 29 19 17 17 17
26 30 42 51 47 39 34 31 31 31 33 30 32 30 35 40 39 42 47 52 53 55 56 56 59 61 62 59 56 50 41 35 33 32 36 41 32 50 57 52 51 47 37 37 26 19 18 17 17
24 28 37 42 43 39 34 33 34 31 31 31 33 33 38 42 44 44 50 50 57 55 54 58 62 64 63 61 60 54 48 43 37 38 35 39 35 59 68 63 52 45 38 32 22 18 17 18 18
28 33 38 36 35 33 34 33 36 33 33 35 32 34 36 41 52 57 56 56 58 61 56 57 63 65 62 58 60 60 59 55 40 46 46 45 48 69 71 70 57 41 34 28 21 18 18 18 19
26 32 36 33 34 34 31 37 41 38 36 38 37 38 41 43 53 61 68 69 67 68 73 77 74 69 68 63 60 59 61 66 58 48 54 56 62 74 75 74 66 39 29 24 21 19 20 19 20
28 37 40 35 31 29 24 31 37 41 40 43 44 42 46 46 51 58 62 70 67 71 67 76 80 78 71 70 64 65 60 62 68 58 61 68 72 77 78 75 64 47 32 29 21 21 21 22 22
33 40 37 31 30 29 25 29 33 37 41 45 45 45 45 51 51 60 56 60 62 63 61 72 81 79 82 80 74 68 67 62 63 70 63 68 80 81 78 74 65 55 41 32 23 23 23 23 24
29 37 31 30 29 28 27 23 28 34 39 42 48 45 48 50 51 54 63 57 54 52 61 78 82 86 87 87 83 68 62 66 65 63 71 72 79 82 79 77 75 61 49 30 26 25 24 24 25
29 27 27 26 25 26 26 26 25 27 30 41 43 48 48 52 52 49 56 65 57 54 62 71 76 84 84 77 77 73 68 64 71 70 67 79 84 82 81 79 78 64 48 38 28 27 27 26 26
27 25 24 24 23 23 24 26 29 25 28 35 43 43 49 52 55 54 48 53 57 56 61 69 76 77 86 80 75 79 71 64 75 76 71 74 84 86 90 83 81 62 50 45 37 30 27 27 27
28 29 26 26 25 25 26 21 30 26 30 32 36 44 43 49 56 56 56 51 53 52 50 55 63 69 82 82 80 81 72 62 65 77 77 78 79 90 100 97 84 66 52 53 48 36 28 28 29
29 29 29 27 26 28 26 26 25 21 26 29 33 38 43 40 46 52 54 54 53 50 47 46 47 61 71 83 82 78 78 65 62 70 80 73 78 84 93 90 79 59 53 55 55 40 31 30 31
33 34 38 28 33 35 39 33 28 28 32 25 26 28 35 39 39 45 48 55 57 46 49 48 49 59 73 77 80 79 76 69 65 74 79 81 76 77 90 87 81 75 68 60 55 38 33 34 34
41 43 44 42 44 46 49 47 39 36 34 35 30 26 28 29 36 38 42 48 51 47 47 52 53 59 70 89 86 79 73 73 72 70 77 78 78 69 70 89 88 68 60 54 46 38 36 37 37
42 49 50 53 54 59 65 56 49 49 45 39 36 30 27 30 30 37 37 44 49 54 47 47 54 65 71 77 83 77 72 75 77 73 70 78 78 78 62 65 80 81 53 52 43 38 39 38 39
51 60 62 55 58 67 67 60 55 57 53 45 43 36 31 29 28 32 35 34 43 52 36 31 53 64 62 69 83 80 75 80 84 83 89 82 82 83 83 60 63 93 76 51 42 42 42 41 44
60 65 67 63 65 74 70 58 58 62 57 50 39 40 34 30 27 29 27 30 39 37 32 30 49 63 61 63 74 82 81 83 86 91 92 92 89 89 82 71 55 59 66 57 52 48 46 49 52
61 71 73 78 74 81 78 58 56 53 57 51 44 41 41 38 38 36 29 31 34 38 39 41 62 67 69 71 77 72 82 85 93 94 97 95 96 92 84 76 65 65 59 51 51 51 54 51 53
66 66 73 80 91 91 84 72 59 45 59 54 49 46 47 47 49 42 47 39 42 41 38 40 64 70 70 80 76 70 82 85 89 91 96 98 98 97 94 84 73 62 55 53 55 55 59 60 65
60 64 73 88 96 95 87 81 58 48 43 51 52 57 63 61 74 63 59 57 53 49 44 49 59 66 73 81 74 72 77 86 85 93 96 97 99 98 96 93 93 86 72 71 72 68 68 69 74
59 73 86 92 96 96 87 76 61 68 83 72 67 74 76 82 85 84 73 69 60 53 54 58 66 73 76 79 78 76 81 85 84 89 94 97 96 99 97 93 98 99 95 89 93 84 82 87 82
77 89 91 89 95 95 97 83 67 79 82 85 76 81 85 83 78 73 64 64 60 57 61 69 73 77 79 79 83 86 86 86 87 96 95 99 96 98 97 98 98 94 95 94 98 97 93 90 88
88 98 98 96 97 95 96 96 91 84 89 88 80 82 82 82 78 70 67 67 60 62 67 76 78 82 83 86 88 89 91 85 85 90 99 99 98 98 98 99 99 98 98 97 97 95 93 91 88
89 98 95 97 99 96 95 95 97 88 88 92 88 80 86 82 77 74 77 74 66 75 83 82 88 86 86 88 90 90 91 93 97 98 99 98 96 96 98 96 97 98 98 98 97 96 95 93 93
89 90 94 95 96 96 98 96 97 94 93 93 94 90 90 93 96 94 98 88 82 78 88 91 94 95 96 94 95 97 96 96 98 98 96 95 96 97 96 96 97 97 97 98 98 96 95 96 92
78 81 85 88 87 96 95 97 98 98 98 98 97 99 98 98 98 99 98 98 99 96 96 96 96 95 95 95 91 94 96 97 97 98 97 97 97 97 98 95 96 96 94 96 96 96 97 96 97
62 65 69 79 77 85 89 98 98 97 97 98 98 98 99 98 98 98 98 98 97 96 95 85 82 79 74 70 69 72 76 81 81 83 86 88 88 86 87 88 89 90 93 96 96 95 93 93 94

GFSSGP_prec_cthk_099.txt.gz
RH
17 25 31 33 35 39 44 34 31 30 24 22 20 24 25 24 25 35 39 43 44 48 47 45 44 42 45 46 46 40 37 37 35 31 30 32 37 37 38 38 35 37 44 49 56 45 27 24 17
23 29 35 36 39 45 35 32 30 29 30 24 19 22 23 25 30 33 36 41 47 50 49 47 42 42 45 48 48 45 41 39 40 36 33 34 38 43 45 43 40 45 47 49 52 42 23 17 13
31 34 35 36 43 45 35 31 28 24 24 26 24 21 23 31 31 33 36 41 45 49 51 49 46 45 46 46 52 50 44 39 39 41 39 37 39 46 48 47 45 46 52 46 47 38 19 14 14
30 34 35 43 48 40 34 33 32 29 26 26 27 25 25 39 37 37 38 43 46 49 51 51 51 48 48 49 52 51 48 40 37 37 41 41 41 43 46 48 52 52 48 47 39 31 18 15 15
25 26 32 37 38 39 37 34 31 29 30 27 28 27 27 33 44 41 40 42 47 51 54 53 54 55 53 52 53 52 49 43 36 35 38 43 41 41 53 53 59 56 47 43 33 29 19 16 16
24 26 32 37 34 28 27 30 34 30 29 28 28 28 29 32 46 49 53 51 51 56 54 55 56 57 57 60 56 52 49 45 40 37 35 44 45 43 52 63 66 61 47 41 33 29 19 17 17
24 27 33 34 34 29 23 22 25 33 32 32 30 29 31 41 45 49 55 62 62 67 68 61 58 60 59 60 62 57 53 53 48 44 39 41 52 50 56 65 69 66 51 37 32 28 20 18 18
24 27 34 33 33 29 24 25 24 25 32 35 36 36 39 42 49 49 58 62 69 71 72 72 75 72 71 66 61 58 55 58 55 52 53 44 50 50 62 68 70 70 52 35 29 27 21 19 19
25 31 37 31 30 26 22 23 25 24 26 29 37 40 39 44 45 51 60 69 73 77 77 79 76 82 89 74 66 60 59 56 58 58 59 57 54 53 66 73 72 73 57 38 28 25 21 20 21
27 34 31 28 28 28 24 22 20 22 23 26 29 37 42 45 48 48 54 67 76 70 72 74 72 78 83 83 79 70 65 59 58 57 58 67 66 63 70 72 76 74 56 46 31 26 22 22 22
28 33 29 28 27 26 22 20 19 19 20 25 27 31 38 46 49 49 51 57 71 72 71 71 72 78 80 78 83 84 77 73 67 66 63 64 77 77 76 79 81 75 59 56 45 28 24 24 23
24 23 24 23 21 21 20 19 18 16 17 19 26 30 35 43 52 52 51 53 59 65 66 71 71 75 84 87 89 84 81 76 75 66 67 67 73 81 84 84 85 75 64 60 51 37 27 26 25
25 24 23 22 21 21 20 20 20 17 18 18 20 28 34 41 48 55 53 53 54 60 61 64 67 69 80 92 90 86 84 76 71 74 68 61 69 82 88 87 88 79 79 60 59 46 40 29 27
27 26 24 21 20 21 21 19 20 16 16 15 17 20 29 39 46 54 59 57 57 57 59 63 66 72 85 86 84 86 85 74 70 71 71 70 65 78 85 92 92 86 81 71 57 51 50 37 30
27 28 24 21 21 23 23 22 22 19 20 18 16 16 20 28 41 48 61 61 59 59 55 63 64 67 73 74 76 79 87 80 73 73 71 61 59 69 82 85 95 93 96 70 62 57 55 53 41
30 30 33 23 27 30 33 27 26 29 33 27 24 21 20 22 31 44 53 59 62 60 59 56 63 63 67 74 75 73 79 78 74 73 72 66 58 64 74 87 95 98 93 83 64 63 58 56 48
34 38 37 37 37 38 43 39 35 42 42 35 33 27 23 22 24 37 49 58 61 61 59 55 60 59 59 64 68 70 71 69 71 74 72 70 67 72 71 82 85 88 85 83 74 67 61 58 51
36 43 46 51 47 47 52 48 52 57 52 43 41 37 28 24 24 28 41 51 58 57 62 55 56 57 49 48 50 51 56 77 78 74 74 71 73 71 80 76 74 83 84 81 80 78 69 59 52
42 52 58 58 57 59 60 56 60 59 51 45 45 46 36 27 24 27 33 42 51 53 62 55 47 49 45 45 51 57 69 72 77 76 76 75 76 74 80 82 85 79 84 81 80 76 71 63 56
52 61 62 56 56 63 65 63 68 52 47 46 49 52 44 33 29 27 28 35 43 49 54 52 48 36 34 47 57 59 72 74 76 76 75 79 81 80 81 84 87 81 85 90 82 66 68 57 55
57 63 61 62 57 61 72 68 54 42 39 52 54 55 47 37 33 32 31 31 34 48 55 49 47 45 35 41 61 71 73 75 74 78 79 81 84 87 91 87 90 89 86 82 80 75 69 63 58
62 52 57 63 74 84 82 82 56 50 52 56 55 46 45 44 43 45 40 32 37 44 52 47 42 37 40 47 54 72 76 75 76 73 83 83 89 93 95 96 95 95 91 79 66 81 71 64 55
54 55 66 72 83 86 87 93 60 69 76 69 60 58 57 59 61 65 60 46 49 56 65 51 41 42 43 60 63 75 79 75 73 77 84 85 90 88 92 97 97 98 89 84 74 77 74 63 63
56 66 73 77 83 86 91 86 62 78 92 92 84 74 79 89 89 80 71 60 58 57 54 52 51 48 54 61 69 79 78 74 76 77 83 85 89 91 91 95 98 99 95 89 79 75 71 71 70
70 78 81 76 81 86 94 93 77 85 90 98 98 85 85 93 90 94 85 76 69 68 66 57 52 56 62 62 68 72 73 73 79 79 84 90 90 92 96 94 97 98 94 93 86 81 80 81 84
79 88 94 90 92 95 96 94 88 85 85 91 98 94 93 97 97 94 92 84 76 70 67 61 60 63 65 70 70 73 72 82 84 88 88 90 91 94 97 96 93 98 97 97 96 91 93 92 94
80 90 93 94 92 98 95 96 96 90 87 89 89 88 89 92 87 75 72 70 70 68 67 65 67 72 76 76 77 82 85 87 95 95 96 94 95 96 98 98 98 97 98 99 98 96 95 93 92
77 81 90 95 94 93 95 97 98 95 93 93 96 97 93 90 89 81 80 75 71 67 70 70 77 83 86 86 86 91 94 96 96 98 96 96 97 96 96 98 97 98 98 98 99 99 98 96 98
69 74 84 90 91 97 95 98 98 98 98 96 96 99 98 99 98 97 95 95 83 78 79 79 87 85 94 90 91 91 91 92 94 95 96 95 97 97 98 97 96 97 97 98 97 98 97 98 98
56 62 72 83 79 89 90 97 97 97 98 98 98 98 98 98 98 98 98 98 97 92 92 92 90 90 85 84 81 79 78 82 89 83 78 78 81 81 85 90 93 95 96 97 97 95 96 97 98

GFSSGP_prec_cthk_102.txt.gz
RH
23 30 32 32 31 35 37 29 32 29 27 24 22 21 23 23 22 26 31 36 40 43 46 45 44 45 47 45 47 47 44 38 36 36 37 33 29 31 31 35 34 31 35 41 46 43 40 24 12
20 30 36 34 37 30 24 32 31 32 30 27 23 22 23 24 24 25 30 34 38 45 47 49 47 45 44 45 47 47 47 44 40 37 33 37 36 38 40 38 36 41 47 50 51 45 36 19 12
29 35 33 35 40 35 28 32 31 28 27 28 25 23 24 32 38 35 34 38 39 39 42 46 48 49 47 46 46 47 50 51 46 42 38 40 41 42 44 43 41 53 58 56 45 43 32 16 14
30 34 35 41 45 39 35 34 31 28 27 26 25 25 24 35 40 43 43 42 43 42 44 47 47 48 47 46 47 48 49 49 48 44 45 46 52 48 45 44 46 51 58 50 46 40 29 17 16
24 24 30 34 34 31 29 33 34 30 27 27 25 26 26 33 41 47 45 45 45 46 47 46 47 48 48 47 47 49 47 48 46 45 43 42 48 51 50 50 52 55 56 48 40 35 28 19 16
23 23 27 30 31 27 22 22 24 27 30 30 30 28 31 34 38 48 43 55 58 55 52 49 48 50 50 49 51 52 52 49 45 42 40 42 45 46 49 56 56 59 60 50 40 32 28 21 17
24 23 28 31 31 27 22 20 21 22 25 27 33 33 30 35 40 44 45 50 62 63 58 59 57 53 54 54 52 52 54 51 48 45 41 40 50 54 53 58 62 64 63 53 45 31 29 24 18
21 23 31 30 31 27 23 23 21 21 21 24 26 33 38 40 42 44 46 49 60 68 67 63 67 74 69 64 60 58 54 54 52 54 52 50 48 57 57 58 65 69 64 57 52 33 29 26 20
21 27 31 28 30 24 22 22 20 21 21 21 24 27 29 37 48 48 47 50 52 60 72 75 73 74 80 78 72 69 63 57 60 55 56 57 52 53 55 62 66 68 67 56 54 42 29 24 21
24 27 26 26 26 26 23 22 19 18 17 18 19 24 26 28 35 46 50 50 55 55 68 78 82 82 83 80 82 77 73 63 56 55 55 59 56 63 59 63 71 73 74 63 53 50 35 25 21
26 27 26 25 25 23 21 19 17 17 17 15 16 18 23 25 28 36 40 49 50 56 63 74 79 84 82 84 85 81 78 76 68 64 60 57 60 64 67 70 73 77 76 67 55 50 43 31 23
21 22 22 21 20 20 19 17 17 16 16 12 12 13 15 22 25 31 36 40 49 53 59 62 74 79 84 88 90 88 85 79 74 71 73 67 63 70 75 77 82 80 81 82 60 52 45 40 28
24 24 22 21 20 19 18 18 18 18 14 14 13 12 12 14 21 28 34 37 41 50 56 57 64 70 83 86 91 95 93 87 80 78 73 73 71 77 82 85 85 89 89 79 68 58 51 43 41
27 25 23 19 18 18 19 18 18 15 15 15 15 14 12 11 12 21 32 36 40 44 56 55 56 67 77 84 89 96 93 90 85 82 79 73 75 76 75 79 86 90 89 86 80 63 60 52 45
27 24 22 21 21 21 22 21 21 20 22 20 20 19 18 16 14 12 24 36 41 46 52 60 58 62 73 81 86 86 85 89 83 81 79 73 67 67 71 69 74 86 92 92 90 73 65 55 50
28 28 27 21 24 26 27 24 22 28 31 28 29 30 27 21 19 16 13 33 44 48 52 63 62 59 66 74 77 76 81 80 80 79 79 75 70 68 66 64 62 74 85 89 99 86 70 64 58
32 33 34 31 33 36 36 29 29 39 43 39 38 38 38 34 27 21 18 16 46 54 54 62 68 62 62 63 72 73 77 77 77 76 70 70 71 67 67 70 66 73 79 90 94 93 84 75 66
33 38 40 43 41 40 43 36 37 45 48 46 41 35 34 34 32 28 26 20 29 53 57 60 75 71 65 63 71 72 71 73 70 70 64 70 68 69 72 72 72 79 78 77 87 94 85 81 77
39 44 48 44 45 46 48 45 50 49 50 45 37 37 31 33 40 36 30 27 22 48 56 59 69 78 70 62 63 65 63 65 63 64 67 68 65 70 75 77 79 85 81 78 86 92 90 89 81
45 50 48 45 46 51 53 55 59 57 50 50 45 41 38 40 51 43 36 34 26 30 55 57 68 71 68 65 60 62 57 58 55 59 65 62 66 71 74 77 77 82 81 84 82 85 88 87 85
47 51 49 52 52 57 65 65 68 59 54 51 49 45 47 56 59 51 40 37 31 24 45 51 61 65 61 57 43 42 48 47 48 55 60 66 72 75 78 78 83 83 88 91 96 93 91 90 87
53 46 52 60 70 75 76 79 71 57 56 58 58 55 49 47 47 45 41 39 33 26 30 53 55 58 58 64 57 39 33 43 47 59 65 74 74 72 78 78 82 82 94 95 96 95 91 91 82
51 54 62 67 76 80 78 87 65 57 61 72 88 72 73 68 77 78 74 67 49 43 43 55 54 61 54 59 52 48 45 50 58 64 70 75 76 73 77 82 88 94 96 96 95 95 92 92 90
57 65 69 73 74 81 80 88 72 76 79 80 95 89 86 84 98 96 94 90 70 64 64 63 63 62 64 63 52 49 57 61 62 63 75 78 73 70 74 83 86 94 95 96 96 97 96 90 89
71 76 77 73 78 79 87 91 82 86 85 87 97 93 93 94 93 98 96 92 84 79 77 79 78 70 66 58 51 55 59 67 71 68 70 77 71 72 74 79 86 92 94 94 99 99 97 92 89
77 80 88 87 86 85 89 92 92 95 87 89 94 95 97 97 97 98 96 94 86 84 77 70 68 62 62 60 58 61 63 64 66 66 77 77 78 80 80 83 86 95 95 95 96 99 96 94 94
77 82 82 87 83 90 86 92 95 95 95 95 94 98 96 95 93 94 95 93 89 80 78 76 72 66 63 61 67 70 73 71 72 77 81 86 89 84 84 90 92 96 96 98 97 98 96 95 94
72 74 82 83 90 87 85 93 96 96 98 97 97 98 96 95 91 89 78 76 76 75 73 77 72 71 69 73 72 75 78 84 82 84 92 94 92 92 92 92 95 96 97 98 98 98 99 98 96
62 64 71 79 86 93 93 94 96 98 96 95 98 98 98 98 98 97 93 87 82 79 73 69 64 69 74 84 86 77 78 81 90 93 89 88 89 90 90 92 96 97 98 97 98 97 96 98 99
51 54 58 70 69 79 90 89 88 96 96 97 96 98 98 98 98 98 98 97 90 87 84 81 83 80 92 88 89 90 86 85 85 91 91 80 74 74 77 77 79 82 92 94 97 97 96 98 95

GFSSGP_prec_cthk_105.txt.gz
RH
24 27 28 28 25 28 27 25 33 28 27 24 24 24 24 22 20 22 28 32 39 42 43 47 45 43 44 46 45 46 47 46 42 37 34 35 34 31 30 32 32 29 30 36 41 45 40 21 11
26 31 32 28 28 22 20 32 30 31 29 27 23 22 23 24 29 29 32 39 40 45 48 48 47 46 45 44 48 44 47 46 43 41 39 34 30 33 36 37 34 32 42 57 51 43 38 21 12
28 33 29 28 31 23 22 31 30 29 29 28 25 23 23 34 37 38 39 39 42 45 44 45 49 46 44 45 43 43 43 46 48 46 42 45 44 40 42 42 40 47 62 70 56 40 34 24 14
35 37 33 33 32 32 30 32 30 27 26 24 27 25 27 32 30 35 39 43 44 45 44 44 45 46 47 48 44 43 43 45 47 48 43 50 54 52 47 44 50 54 59 61 52 42 32 25 17
30 28 32 33 33 33 32 34 32 28 28 26 24 25 27 30 34 41 42 43 44 47 46 45 44 45 44 45 45 45 46 46 45 46 48 47 50 61 59 50 55 57 64 60 49 41 31 27 20
21 20 21 23 24 23 22 23 23 23 25 26 28 27 28 31 35 43 47 45 46 52 64 55 48 46 47 45 44 45 46 49 45 43 43 44 47 50 56 57 60 57 61 61 54 42 31 27 24
21 18 21 25 25 24 21 20 20 20 21 22 24 26 29 31 34 42 48 47 47 51 61 70 67 55 52 50 49 49 49 48 49 49 43 40 43 51 57 58 63 67 67 64 56 44 34 28 26
19 19 28 28 26 21 22 22 20 20 20 20 20 23 25 28 34 40 44 47 47 50 52 61 70 70 65 62 59 56 54 50 49 49 48 45 45 47 54 59 65 74 78 68 58 50 41 30 27
19 19 23 24 26 21 21 21 20 19 18 18 19 20 21 22 27 32 39 46 49 51 52 54 60 70 75 71 70 74 72 59 53 51 51 51 53 54 53 54 60 68 76 72 61 54 48 38 29
19 19 20 22 23 22 21 19 17 16 16 14 13 13 15 20 22 27 35 37 43 51 53 53 56 69 78 80 80 78 80 72 64 62 59 56 55 55 57 58 58 62 70 74 67 60 49 48 37
23 21 22 22 23 20 19 17 16 16 15 11 10 10 11 13 17 21 26 32 36 39 48 55 55 57 67 84 87 85 86 82 76 71 66 58 58 57 55 60 66 65 70 72 73 61 54 49 45
19 22 22 20 19 18 18 17 16 16 12 10 10 10 10 9 9 15 21 26 32 34 40 48 57 58 62 77 83 86 93 88 81 78 77 76 69 63 61 61 66 70 75 76 84 66 54 51 48
22 22 21 19 18 18 18 17 17 14 12 12 11 12 12 11 11 9 11 20 29 33 39 43 49 54 58 65 76 90 94 93 90 86 79 78 78 75 75 76 80 83 85 86 87 78 65 58 51
25 24 21 18 18 18 19 19 19 14 15 16 17 16 16 15 14 13 12 9 20 31 36 43 45 51 53 57 65 83 92 96 92 87 85 78 76 80 81 81 84 88 94 96 97 93 78 63 58
25 22 21 20 21 22 22 24 22 19 22 22 23 24 24 22 22 20 18 15 11 22 35 39 45 47 49 56 59 71 89 93 92 89 86 84 81 78 78 80 79 79 82 91 97 97 89 79 69
27 25 23 22 25 26 26 25 22 27 27 27 27 28 28 26 26 24 25 23 17 13 28 37 43 48 51 55 60 64 78 89 82 87 87 84 81 80 78 75 69 68 72 74 79 85 95 93 79
31 28 31 28 29 31 31 30 29 31 32 29 30 27 24 21 20 21 22 23 21 17 18 36 39 47 57 58 63 64 71 79 81 86 83 82 79 76 79 78 72 68 66 65 68 70 84 94 93
31 35 36 36 32 34 36 32 31 36 37 35 33 31 31 31 25 27 25 27 23 22 18 34 41 43 58 62 62 66 69 69 79 80 82 81 75 71 68 71 69 68 67 67 68 72 76 88 92
38 42 44 36 37 40 38 37 34 41 43 42 44 45 43 39 34 31 32 30 28 26 23 31 45 47 61 65 60 66 65 68 69 75 78 73 73 72 68 66 68 67 68 70 74 75 79 82 93
45 47 46 39 39 44 42 42 43 46 46 48 48 51 48 37 37 37 40 37 34 30 27 31 52 50 58 74 66 65 69 67 69 66 68 67 66 70 71 70 69 69 67 74 77 72 79 80 83
46 49 47 47 48 48 54 51 48 46 51 53 54 61 60 56 48 40 46 52 46 38 33 30 49 71 67 64 69 62 65 66 62 60 61 65 65 69 69 69 67 69 68 75 74 74 77 81 87
51 44 50 55 61 63 60 65 57 54 60 64 68 73 66 57 65 66 58 49 46 42 36 30 50 59 87 86 74 62 56 57 49 46 51 61 61 62 63 65 68 68 74 76 78 83 80 86 88
47 50 58 60 68 70 70 76 60 64 72 74 71 78 68 74 82 82 83 86 69 51 42 35 53 72 69 69 67 69 69 62 60 41 46 56 57 58 63 68 72 75 75 79 77 82 86 89 94
55 63 65 68 70 73 70 77 67 78 82 81 76 78 78 89 91 92 98 97 73 72 55 54 59 76 74 67 69 69 68 66 69 56 53 61 67 66 70 73 74 75 72 75 81 88 90 96 97
68 69 72 68 73 69 75 82 74 84 90 90 82 84 88 96 93 97 98 97 92 87 82 72 79 83 77 71 72 74 69 68 62 56 60 62 63 68 74 75 75 76 74 75 80 89 93 94 96
69 71 80 81 79 76 79 86 79 91 92 94 94 92 96 93 98 98 98 96 94 95 94 93 87 89 90 90 89 86 78 67 60 65 73 73 74 72 74 72 76 79 77 76 80 89 92 93 93
69 71 75 82 78 82 76 79 87 89 93 95 97 95 98 91 91 94 92 97 98 99 96 97 97 96 95 88 86 82 69 66 69 67 70 75 77 79 81 80 82 84 82 84 90 93 94 95 94
65 67 69 72 77 82 73 80 84 87 91 92 95 97 98 98 98 94 85 88 89 92 91 90 87 84 82 82 75 68 63 67 72 73 73 69 78 76 79 81 82 88 88 90 90 93 93 96 98
60 59 61 64 70 77 77 70 76 86 88 91 90 94 97 97 97 97 94 82 79 82 83 78 86 83 74 68 64 61 63 62 65 75 82 82 77 86 81 80 82 86 87 88 90 92 96 95 97
49 50 50 58 58 64 69 60 63 70 84 86 91 92 91 95 97 98 98 97 94 85 82 88 71 70 68 77 83 95 88 77 74 74 87 88 91 82 74 73 73 79 79 78 85 87 93 94 97

GFSSGP_prec_cthk_108.txt.gz
RH
20 21 23 23 21 19 17 20 26 24 24 24 23 23 23 21 21 25 36 32 39 41 46 47 48 46 46 47 44 42 44 45 44 41 46 39 36 33 31 33 30 30 35 37 38 38 36 27 14
24 26 26 25 23 18 20 26 27 29 27 24 22 21 22 25 32 31 37 37 41 44 48 51 48 46 46 47 47 42 42 45 45 41 39 43 35 31 33 35 35 31 41 59 54 46 35 25 15
27 29 29 25 21 19 22 26 27 28 26 25 23 21 22 29 28 31 36 39 43 49 50 50 50 49 48 46 46 45 40 42 45 45 43 41 43 40 39 39 37 39 63 68 60 48 34 26 21
35 33 26 25 22 24 25 28 26 25 25 24 25 24 26 27 27 29 34 37 44 47 49 48 46 48 50 50 47 47 44 40 41 45 47 46 55 50 49 45 43 52 68 73 63 49 35 28 25
36 32 29 28 28 30 31 33 30 27 25 24 23 25 25 26 28 30 38 41 43 44 46 47 45 46 47 49 52 52 47 45 46 49 50 49 51 56 60 64 57 62 67 73 65 53 37 29 27
29 27 23 22 22 25 25 24 23 23 23 24 25 25 26 28 29 31 42 44 44 48 47 49 53 51 51 47 47 50 50 50 49 49 48 48 49 51 59 64 63 67 67 76 66 55 42 32 28
21 16 14 15 15 18 21 18 19 19 17 19 20 21 23 26 29 33 39 47 46 47 50 57 56 65 66 58 52 48 48 50 50 50 49 49 50 50 54 58 61 65 67 76 71 57 47 39 31
18 15 17 17 15 16 19 19 18 18 19 16 17 18 20 22 23 27 32 45 50 47 49 51 61 59 66 70 66 59 55 53 50 50 49 48 46 47 49 57 60 64 71 74 81 63 48 45 35
16 14 15 18 18 19 20 19 18 16 15 14 14 15 15 17 19 22 27 32 40 47 50 50 52 58 60 68 73 72 68 65 60 53 48 46 48 53 50 53 57 63 75 82 85 74 54 47 45
17 15 15 17 17 18 19 18 16 14 13 12 11 10 10 11 13 17 21 27 32 36 39 46 52 51 55 62 68 76 79 77 71 67 62 55 61 61 61 62 59 60 67 76 79 77 65 54 47
18 17 17 19 20 18 16 14 15 13 11 10 10 10 10 9 9 11 15 20 26 34 37 37 41 47 53 56 61 70 83 85 83 77 76 75 67 65 64 62 64 65 68 70 74 76 66 62 59
16 19 18 17 16 15 15 15 14 12 10 10 11 11 11 10 10 10 9 12 18 22 32 38 39 42 45 52 57 62 76 88 88 82 82 77 77 73 72 68 62 66 74 76 81 76 74 68 59
18 18 17 17 17 15 14 16 15 12 12 12 13 14 15 15 13 13 12 10 8 14 22 32 37 41 45 46 51 61 65 73 86 87 87 86 82 81 79 74 73 74 74 76 82 87 82 78 59
21 20 18 17 17 17 18 18 18 14 14 17 18 19 19 19 19 19 18 16 13 10 12 20 30 36 42 48 49 50 59 69 77 89 93 91 86 83 82 81 80 77 85 86 88 89 91 89 75
21 20 20 21 21 21 22 20 20 17 19 21 23 23 22 22 21 22 22 21 19 18 14 12 20 27 37 44 48 49 52 60 71 84 93 91 89 85 84 83 84 81 79 87 94 95 97 94 90
22 22 20 21 23 25 25 21 20 20 23 24 25 24 22 20 19 18 18 18 19 20 21 17 17 22 28 40 45 49 52 59 66 74 83 92 89 85 85 81 79 77 80 79 83 84 88 94 92
24 22 23 23 26 28 28 26 23 23 25 25 25 24 24 24 24 24 23 21 18 17 19 21 17 21 25 31 45 48 52 58 63 61 65 83 89 94 90 84 80 80 79 77 76 79 80 79 80
24 25 27 27 29 30 30 28 24 27 27 29 28 30 28 29 30 30 27 26 26 25 23 22 21 22 28 29 40 48 53 60 64 64 63 70 84 86 88 82 78 76 76 78 78 76 77 78 75
33 35 35 29 32 34 30 29 27 30 33 34 36 34 36 39 38 37 26 25 26 28 30 29 26 24 33 32 34 47 52 59 64 69 74 74 90 92 85 84 80 73 73 76 75 74 75 75 75
38 39 34 32 34 36 31 32 34 36 40 42 44 48 50 51 46 41 41 35 35 32 34 32 31 29 37 41 41 51 58 60 71 77 77 80 78 82 84 78 78 80 74 72 70 72 73 73 72
39 42 38 42 38 34 40 38 40 42 44 47 55 60 62 56 57 55 52 58 61 51 44 43 36 32 44 56 56 62 68 67 72 78 78 76 76 76 78 73 75 74 76 68 74 78 74 77 73
45 39 42 46 50 52 48 54 47 48 50 59 63 67 65 64 64 65 65 72 79 68 46 51 46 41 52 68 59 77 78 76 78 79 78 78 74 72 71 73 72 71 74 74 73 79 76 76 76
44 45 47 52 61 62 58 67 47 52 58 67 67 74 69 71 73 72 79 83 88 77 71 60 56 49 48 72 67 77 89 88 83 80 76 63 62 63 65 64 65 68 70 68 72 70 74 76 77
47 52 57 62 64 69 60 65 53 57 68 75 74 77 75 76 78 80 81 82 89 89 82 60 53 49 66 81 83 94 94 87 81 73 64 58 61 66 63 59 59 64 69 73 72 70 73 77 76
58 62 68 71 74 62 62 74 61 61 74 75 77 81 82 81 80 86 80 87 94 90 85 67 57 57 71 93 98 97 94 90 81 75 71 68 72 67 64 65 66 68 69 73 74 76 77 80 81
60 60 72 78 68 62 67 74 61 66 72 76 81 85 87 86 85 84 85 91 95 96 87 85 84 81 85 92 95 91 86 77 71 72 68 70 71 68 69 66 69 72 74 78 80 79 81 80 79
62 67 71 76 68 69 59 64 62 64 71 75 78 83 91 92 89 87 93 88 92 91 97 90 92 91 87 87 87 82 78 75 79 76 74 72 68 72 76 75 75 75 75 77 79 79 82 81 87
59 59 62 66 66 59 46 51 60 59 72 74 77 81 85 88 90 93 90 86 86 88 90 92 93 91 88 88 90 89 86 84 84 80 76 74 67 72 75 76 73 74 78 80 83 87 89 89 87
59 57 54 51 51 56 46 41 50 50 57 65 68 71 78 87 92 95 96 89 83 82 88 91 88 90 85 86 82 84 83 76 68 66 69 79 86 85 78 72 76 70 73 80 84 87 90 93 92
45 42 43 43 50 51 52 43 47 49 53 56 60 62 67 75 85 94 97 97 94 88 92 97 85 84 86 80 71 73 80 73 65 54 57 64 67 83 81 80 79 79 83 78 75 83 84 87 89

GFSSGP_prec_cthk_111.txt.gz
RH
15 18 23 21 21 18 17 19 22 23 21 22 21 22 23 22 24 34 43 32 34 41 42 46 47 47 44 43 42 40 41 45 47 45 43 48 44 37 31 31 30 32 49 38 39 41 39 34 18
20 22 24 25 24 19 20 22 24 27 25 23 21 21 21 27 32 31 35 34 37 44 47 49 48 48 53 48 49 44 40 41 45 45 44 42 49 35 32 32 33 34 47 59 55 48 38 26 21
23 27 27 25 19 21 26 25 27 26 24 23 23 20 24 28 27 27 29 36 38 49 51 56 53 47 51 56 53 54 45 41 41 42 42 47 47 41 39 38 36 36 52 69 63 51 38 27 23
28 27 27 26 21 26 27 28 24 24 24 23 22 24 24 24 24 25 29 35 42 45 55 50 48 47 47 51 52 54 51 48 44 43 42 45 48 48 46 45 41 41 58 69 67 56 41 30 26
34 31 28 24 25 28 28 29 26 23 24 23 22 26 25 25 24 25 30 34 39 44 48 52 45 44 45 47 51 54 53 51 49 50 52 48 51 54 53 57 54 56 66 75 74 62 45 36 29
33 32 27 27 29 31 29 30 28 25 26 26 24 25 27 27 26 27 30 37 39 43 45 47 46 42 43 46 50 53 53 51 51 52 52 51 53 54 55 59 61 62 75 78 86 70 52 41 35
34 27 27 27 28 29 26 21 18 18 17 19 19 20 24 25 23 25 30 38 44 45 47 48 50 52 49 49 54 54 54 50 49 50 50 47 51 54 57 58 62 62 65 70 80 81 60 44 43
27 25 22 17 15 19 19 18 16 17 16 15 14 16 19 24 18 19 22 28 39 46 48 49 51 56 62 62 51 56 61 58 55 54 49 46 45 47 51 54 60 62 64 69 74 82 70 54 44
17 16 16 17 15 19 17 17 15 14 12 12 13 13 13 14 12 15 17 21 26 35 42 44 49 54 57 62 65 57 54 64 65 61 59 55 50 47 43 45 51 55 61 69 76 83 79 64 52
17 16 16 17 18 17 19 15 16 12 12 12 11 11 11 10 10 10 13 16 19 26 30 38 41 45 48 55 61 63 62 62 68 72 69 60 58 56 57 56 49 50 57 65 76 84 86 74 61
17 19 18 18 18 16 14 13 13 11 10 10 10 10 10 10 10 9 8 9 13 17 23 28 31 36 41 45 50 58 65 67 71 73 78 74 70 71 72 66 62 61 60 64 73 80 82 75 66
19 18 17 17 16 14 12 12 11 10 10 10 10 10 10 11 11 11 10 9 8 10 14 18 28 31 34 38 44 50 56 64 68 64 69 82 82 77 77 79 75 66 66 66 71 76 80 81 66
16 14 15 15 13 13 12 13 12 12 11 11 12 12 13 14 13 14 14 13 12 11 10 11 16 22 30 34 38 43 47 55 65 71 72 76 83 83 82 81 83 78 70 71 73 76 82 90 85
15 15 14 15 15 15 16 15 15 14 14 15 16 17 18 18 19 17 17 17 16 16 14 13 12 14 20 28 34 40 45 49 57 65 68 66 70 86 86 88 87 84 83 80 81 80 79 86 88
17 16 17 17 18 18 20 19 19 17 16 18 18 19 19 19 19 19 19 19 17 15 16 17 16 14 15 22 27 37 42 49 54 57 62 63 69 74 84 90 92 92 90 90 92 90 89 88 92
19 18 20 23 21 23 24 19 22 19 19 20 20 21 22 23 23 22 21 21 20 19 18 16 18 18 15 15 24 33 39 46 53 56 57 64 66 69 80 90 93 93 92 90 90 87 90 92 94
21 23 22 27 26 26 27 23 20 23 24 25 25 25 24 25 26 26 27 26 23 22 21 20 20 19 22 19 20 30 40 46 54 55 62 67 67 66 71 80 93 93 90 89 87 86 84 85 87
27 23 25 24 30 30 28 26 24 25 25 26 26 26 28 31 34 34 35 32 31 24 22 21 21 21 22 22 23 31 40 46 58 59 62 60 65 69 69 74 89 95 93 88 86 84 82 83 87
29 29 28 28 32 32 29 28 24 24 26 26 31 32 34 39 42 41 40 36 35 35 28 26 26 25 27 25 27 31 37 48 62 63 67 66 64 65 63 65 73 87 85 80 80 80 87 85 86
38 35 34 33 36 37 31 27 25 28 30 32 35 41 44 48 50 48 48 46 45 45 47 39 36 41 42 33 28 34 43 44 59 69 72 80 72 67 64 64 62 80 85 81 81 81 83 81 83
40 43 41 44 38 34 34 28 29 31 36 40 44 49 54 57 55 58 56 56 56 56 57 57 58 52 52 45 35 38 43 54 67 77 74 77 82 78 71 68 63 71 85 83 82 79 83 83 84
49 41 42 43 45 44 37 41 33 37 41 46 53 57 63 68 66 69 67 64 62 62 61 62 64 60 51 47 37 45 56 56 65 74 83 77 78 70 71 74 75 72 73 79 82 82 78 83 88
45 44 45 43 48 49 45 54 39 42 48 52 59 65 68 73 73 73 70 66 68 70 69 75 76 78 65 66 52 56 74 73 71 87 94 89 78 81 78 76 76 76 73 75 79 82 79 81 88
46 48 48 48 50 61 54 53 42 49 54 57 64 68 71 74 75 78 76 71 73 77 80 79 71 66 63 80 76 82 86 74 86 98 99 92 78 80 78 67 62 64 71 73 76 81 84 84 84
50 50 61 63 66 61 56 62 52 50 57 63 66 66 71 74 77 77 77 74 77 81 86 87 76 67 66 73 80 86 94 95 97 98 95 89 79 71 67 66 66 70 70 71 71 72 80 86 82
49 51 60 70 66 58 60 67 56 52 57 62 61 63 70 74 77 77 73 76 74 79 91 92 94 84 89 89 90 96 97 96 95 98 93 79 77 80 80 77 74 75 71 75 79 76 73 76 82
58 60 56 65 56 62 51 52 44 43 43 48 52 52 57 69 74 78 80 76 75 78 84 90 93 97 96 98 97 96 96 96 95 89 82 79 74 72 72 72 73 72 74 77 79 80 82 82 86
53 49 53 61 59 54 41 42 44 41 44 40 43 47 50 58 72 79 81 79 78 76 82 89 91 88 87 86 84 84 89 88 86 81 78 78 73 70 70 67 66 63 69 72 71 70 72 78 82
48 46 45 41 43 49 40 36 41 40 38 39 42 44 49 50 57 74 80 83 83 79 80 86 90 88 90 84 85 83 84 79 78 75 73 72 79 79 83 81 74 63 67 71 72 70 70 76 80
37 37 39 41 39 44 42 37 34 35 35 38 39 42 45 47 49 55 67 81 85 84 86 86 84 77 83 85 81 83 83 82 82 75 66 67 60 58 63 72 80 79 82 71 79 81 89 74 75

GFSSGP_prec_cthk_114.txt.gz
RH
14 15 18 19 23 20 20 23 22 21 20 23 22 20 22 25 28 46 44 39 36 38 37 41 43 47 44 43 41 42 40 42 44 47 47 48 47 41 37 30 28 30 44 37 41 52 42 34 20
15 20 22 23 26 22 22 23 23 25 24 21 19 20 21 31 30 31 32 35 38 41 42 41 45 49 48 48 52 46 43 41 42 45 47 43 48 44 35 34 31 32 49 53 51 51 41 31 21
18 23 24 25 20 26 31 27 30 26 22 22 22 20 24 27 27 26 26 33 39 45 46 50 49 50 50 49 51 57 53 46 45 41 40 44 46 47 39 38 37 34 50 63 61 52 42 32 26
23 26 26 27 23 25 28 29 27 26 23 22 22 25 24 23 25 24 27 31 37 44 46 52 59 53 49 48 47 50 54 53 48 46 42 43 44 49 45 42 41 37 47 61 66 58 49 36 31
28 29 29 24 28 29 30 29 26 24 24 22 21 24 25 25 23 23 25 29 34 43 48 49 51 53 50 46 46 47 50 52 52 49 48 50 49 54 56 52 48 46 53 70 78 68 53 42 38
31 30 30 28 29 29 29 28 25 24 25 23 23 23 27 27 24 23 24 27 34 40 46 44 44 46 44 46 46 44 46 50 50 48 50 51 49 51 59 62 60 55 59 75 81 80 69 49 42
35 30 31 28 35 31 30 27 27 28 26 23 21 21 26 25 22 21 22 25 30 39 44 47 46 44 44 41 42 47 49 51 50 48 47 47 47 48 50 57 62 65 61 69 77 83 80 63 49
36 33 31 30 31 34 32 26 22 19 18 17 15 17 20 20 17 15 16 18 21 28 39 44 48 47 46 51 53 51 51 50 52 54 54 52 47 42 42 46 51 59 63 64 67 74 81 69 54
29 31 29 28 25 26 19 17 15 12 12 11 11 12 14 14 13 11 10 13 15 18 22 33 38 42 46 52 54 57 57 53 50 50 57 61 54 51 49 43 44 48 55 59 64 71 79 77 64
24 27 28 24 20 19 17 14 13 11 11 11 11 10 10 9 8 8 8 8 10 13 16 19 26 35 37 40 47 50 56 59 53 53 55 58 62 59 53 53 48 46 48 56 61 69 75 79 74
20 26 21 19 17 17 14 12 12 10 10 10 10 10 9 8 8 8 8 8 8 8 9 12 16 23 28 34 38 41 47 54 55 60 63 62 62 65 66 63 64 59 53 53 57 65 72 76 78
19 19 16 17 14 12 12 11 10 10 9 9 9 9 9 10 11 12 12 11 11 10 9 8 8 12 17 24 27 34 39 44 48 54 60 67 69 61 67 76 74 69 65 66 65 64 69 75 78
15 15 13 13 12 11 10 10 11 10 10 11 11 12 14 15 15 15 15 15 14 14 14 13 12 10 9 14 19 25 33 38 43 47 52 58 62 64 69 74 78 81 78 72 72 74 71 77 79
15 14 13 12 11 11 12 12 14 13 13 13 14 15 16 16 16 16 16 16 15 15 14 14 15 16 13 11 12 19 22 33 40 43 47 51 55 58 66 73 73 79 84 82 77 79 80 82 84
13 14 13 13 13 15 16 17 18 16 16 16 16 17 19 19 18 19 19 19 19 18 17 17 16 15 16 17 14 13 20 25 35 44 48 57 59 61 61 61 68 82 79 85 87 90 91 90 89
14 12 17 18 19 21 20 21 21 20 20 19 20 22 23 22 24 26 26 24 23 22 20 18 18 18 17 17 19 16 14 19 24 40 47 54 63 64 59 57 67 67 81 88 92 96 97 98 98
15 19 19 26 25 24 24 24 21 21 22 23 25 26 26 26 28 29 28 29 30 27 26 23 19 18 18 18 18 19 20 22 19 27 45 55 60 61 60 58 57 67 72 84 92 95 95 94 95
28 21 22 23 29 28 28 26 23 24 25 26 26 26 27 30 32 33 34 35 35 33 32 31 30 25 20 20 19 18 18 22 29 25 32 55 61 67 72 77 76 67 63 79 77 92 95 92 91
29 27 27 27 33 32 30 30 26 26 27 27 27 29 32 35 38 41 43 41 40 39 38 37 37 36 32 28 27 25 23 22 26 32 37 49 68 73 75 73 73 67 69 68 74 81 89 89 91
32 34 37 36 35 39 35 34 30 28 27 28 31 36 41 43 45 47 47 48 45 44 45 45 43 46 44 38 36 35 32 29 31 31 43 57 75 77 71 63 60 66 66 74 66 64 84 85 88
39 42 43 46 42 40 41 36 30 28 29 32 37 42 45 47 48 49 49 47 46 48 48 48 49 46 43 44 41 43 40 39 36 35 36 49 77 81 68 80 76 61 60 59 65 64 67 77 85
49 44 46 49 52 55 40 49 31 32 34 37 43 46 48 50 51 53 53 54 54 56 56 54 53 58 57 61 61 52 50 47 48 45 50 49 63 71 88 97 81 66 66 62 65 69 69 85 89
50 47 48 47 48 50 43 53 37 35 39 46 47 48 50 51 53 56 59 60 60 62 62 64 63 57 58 62 66 68 62 58 64 71 75 75 76 90 84 82 74 77 69 68 70 79 81 82 89
45 48 50 48 49 56 54 52 43 42 45 45 48 48 46 45 54 60 64 65 64 65 65 72 69 62 53 60 65 74 78 85 86 82 81 85 97 88 96 92 87 81 80 77 76 75 78 80 82
49 56 60 64 66 66 54 62 48 43 46 42 44 42 40 39 46 61 68 69 67 64 69 72 74 74 75 75 80 79 75 83 91 91 87 90 93 98 98 99 92 88 78 66 65 66 69 75 78
45 45 57 63 69 65 55 58 49 42 39 34 33 35 37 40 44 55 68 71 70 64 65 71 80 79 82 93 94 90 86 90 99 93 88 90 98 97 96 93 83 78 68 68 69 69 71 74 74
51 49 45 58 54 60 53 47 40 38 35 31 30 34 37 40 42 49 68 73 74 73 67 70 76 81 80 87 92 94 94 97 98 88 91 97 95 93 88 78 77 73 74 73 72 74 76 75 75
52 46 53 55 62 60 43 41 46 41 37 33 31 33 36 39 41 45 54 68 74 75 71 74 77 72 80 77 78 79 84 81 85 89 90 89 86 80 75 72 68 64 66 64 65 67 70 72 77
49 47 43 40 40 59 50 39 38 38 36 32 29 32 35 37 40 42 45 54 65 74 79 80 78 75 76 81 82 81 82 80 78 74 69 71 68 68 69 71 72 76 70 75 72 72 75 78 76
38 41 40 50 38 45 46 44 27 31 33 33 30 32 36 38 40 42 44 45 49 55 66 76 80 80 78 73 71 72 71 78 81 79 76 69 66 64 64 63 56 56 67 73 74 72 70 75 72

GFSSGP_prec_cthk_117.txt.gz
RH
12 15 15 15 18 21 21 22 21 21 22 21 21 20 26 27 31 40 42 41 40 43 39 41 42 43 42 41 42 40 39 41 44 44 47 48 50 45 39 33 32 29 36 34 46 58 44 32 20
14 16 17 20 25 21 23 23 24 23 22 20 20 20 23 29 31 33 34 35 39 41 42 39 46 48 44 42 42 44 45 42 43 41 44 49 45 53 39 35 33 33 43 46 51 59 43 35 25
17 19 21 22 23 26 28 28 25 24 24 20 20 21 24 27 29 30 29 31 38 40 43 44 47 55 55 53 50 50 47 46 46 45 44 42 47 47 41 37 35 34 44 56 54 55 47 37 31
20 21 21 23 23 25 27 26 26 26 23 22 22 24 23 24 25 25 26 28 35 39 42 46 50 52 58 57 54 49 50 52 50 51 48 43 43 44 48 46 41 35 39 54 59 54 47 40 36
21 22 24 21 25 29 26 26 25 25 24 22 22 24 25 25 24 23 22 25 33 39 42 44 49 51 50 52 53 52 49 50 50 48 48 48 47 47 54 55 51 48 43 55 70 66 57 45 42
26 24 27 26 28 31 29 28 26 23 22 22 23 23 28 27 25 23 22 24 29 37 40 43 44 46 48 48 46 46 45 47 46 47 47 47 49 48 48 55 58 60 53 56 72 77 70 57 49
30 28 29 28 31 30 28 26 24 24 23 25 24 24 27 24 22 21 21 21 24 32 39 41 42 42 44 44 43 45 45 44 47 51 49 46 47 47 46 48 53 59 62 60 71 75 78 71 55
29 28 27 28 33 33 30 28 27 27 25 21 20 19 23 17 15 14 15 13 16 18 25 38 42 42 44 43 43 44 44 47 48 50 51 51 52 51 48 45 44 48 56 60 61 67 73 75 62
29 31 33 33 33 35 32 27 23 20 18 15 12 14 15 13 12 12 10 7 8 12 14 17 26 34 38 42 41 44 49 53 54 51 50 51 53 55 56 54 49 46 45 50 56 59 63 72 69
32 36 34 34 32 31 24 16 13 11 10 10 10 10 10 10 8 7 7 7 7 7 9 11 14 18 26 33 35 38 41 45 50 54 53 51 51 56 57 56 60 57 49 47 51 56 60 67 70
29 31 29 29 26 22 14 11 11 10 10 10 10 9 9 8 8 8 9 10 10 10 9 8 8 9 12 18 25 31 35 38 40 46 49 51 53 58 60 59 58 59 62 55 53 55 56 64 68
23 24 24 24 15 11 11 10 10 9 8 9 9 9 8 11 12 13 13 13 13 12 12 11 11 10 9 8 11 18 27 32 36 36 40 46 49 54 59 61 61 65 67 70 66 61 61 65 71
18 18 16 13 11 10 10 9 10 8 8 9 10 11 14 15 15 15 15 14 14 13 13 13 12 12 12 12 10 8 12 21 29 33 38 42 50 58 56 59 58 57 70 76 71 69 68 70 75
16 14 14 12 11 10 11 10 11 10 12 12 13 15 16 17 17 16 16 16 16 15 15 14 14 14 14 13 13 13 11 10 17 27 32 38 47 53 64 68 59 60 65 75 78 77 74 76 78
13 13 13 13 12 12 11 12 15 14 16 16 16 17 19 20 20 20 21 20 21 21 19 17 16 15 16 16 15 15 16 15 12 15 24 35 42 42 51 59 66 67 67 65 68 78 84 82 84
14 12 16 15 14 16 14 14 17 19 20 20 20 22 23 24 25 25 25 26 25 23 23 22 22 19 17 16 16 16 16 16 17 15 16 25 40 46 53 61 70 71 71 60 62 72 82 88 94
15 17 17 18 18 19 21 21 21 21 21 22 24 26 27 28 29 29 29 27 28 29 28 27 26 25 24 21 18 17 17 18 18 18 21 22 26 38 57 61 64 69 68 61 64 70 66 81 93
23 17 16 19 23 25 26 26 21 20 23 25 27 28 28 29 30 30 31 32 33 33 33 32 31 31 31 30 28 25 22 19 19 18 21 30 30 30 44 60 65 68 69 66 63 64 73 73 86
21 21 23 27 28 32 30 29 25 26 29 30 30 28 29 30 32 33 35 36 36 37 36 36 33 32 33 36 38 34 32 30 26 23 22 28 39 40 40 53 64 70 74 79 86 88 75 71 75
25 28 37 33 33 35 33 33 30 30 31 29 28 30 32 34 35 37 38 39 41 40 39 38 38 37 38 38 40 41 38 38 36 33 26 25 30 40 47 49 56 64 78 85 90 89 76 68 69
35 36 38 40 40 39 39 40 35 31 28 27 31 34 37 39 38 40 40 42 44 43 42 42 41 39 38 40 39 40 42 41 42 42 37 31 27 31 51 62 66 63 67 76 84 83 74 75 70
41 40 42 47 49 52 44 48 34 29 30 30 35 39 41 40 39 37 39 43 46 47 47 44 43 43 43 37 42 45 52 55 53 49 49 47 39 36 47 62 85 91 86 75 80 78 72 76 77
46 44 47 50 52 54 46 53 36 31 33 36 39 41 41 39 35 33 35 42 49 50 49 46 48 52 44 42 55 56 58 66 71 68 68 64 58 54 56 61 86 97 95 96 94 93 84 72 70
45 49 51 50 49 57 48 53 38 36 35 42 40 39 35 30 29 30 34 42 53 54 53 48 53 58 58 58 63 70 74 73 75 86 90 75 73 78 79 70 86 90 97 96 97 97 92 87 78
47 52 59 60 65 60 52 56 41 36 39 42 37 30 27 27 27 30 36 44 54 55 57 51 55 65 65 67 77 84 83 85 85 85 99 88 87 86 85 83 86 95 98 98 98 95 94 90 82
47 46 53 43 62 58 51 52 36 36 39 35 30 26 26 26 28 31 35 43 51 55 61 57 58 64 73 77 79 85 90 90 97 97 95 92 89 87 84 86 92 94 98 98 93 88 80 76 74
50 52 45 52 54 59 49 40 34 35 35 35 31 27 26 28 30 31 33 38 47 53 60 63 66 68 67 73 74 77 80 86 88 89 88 88 88 89 94 94 94 94 90 90 84 76 77 74 70
49 48 51 54 54 56 44 38 36 36 36 35 32 30 29 28 31 33 34 36 39 47 54 64 75 77 75 75 81 81 82 82 84 76 76 78 81 86 85 84 83 83 80 71 69 72 70 67 65
46 48 45 44 47 52 53 38 31 32 35 32 32 32 31 31 32 34 36 37 38 40 45 53 64 73 77 79 77 72 69 70 76 75 71 71 68 64 63 62 65 64 66 66 64 67 67 66 66
38 40 40 47 38 45 47 43 25 28 29 30 30 33 34 34 33 35 37 38 39 39 42 41 39 41 44 46 50 58 64 60 58 62 64 66 65 66 68 66 59 55 55 58 56 55 61 69 71

GFSSGP_prec_cthk_120.txt.gz
RH
14 14 13 13 14 19 21 20 20 21 22 22 21 22 25 28 33 39 39 39 40 42 42 41 45 42 44 43 42 43 45 44 45 46 45 50 49 51 44 36 33 33 34 33 46 55 45 33 22
16 14 14 15 21 19 23 22 22 21 21 21 21 21 24 29 31 33 34 34 39 40 43 41 46 47 47 48 44 42 45 45 48 46 44 45 50 48 53 36 34 32 40 39 50 61 50 38 29
16 15 16 17 23 23 26 23 21 21 20 20 20 22 25 28 29 31 31 31 37 40 40 49 49 49 51 52 53 51 45 44 45 48 48 46 44 45 48 38 36 34 38 50 51 58 45 38 34
18 17 18 21 22 23 23 23 22 22 22 22 22 23 24 25 25 26 27 29 33 36 41 44 52 56 50 54 55 59 58 55 50 48 50 50 47 45 45 45 43 43 38 44 56 54 46 40 38
18 17 20 22 23 24 24 23 24 23 22 22 22 25 25 26 24 23 23 25 30 35 39 41 46 54 53 52 53 53 52 51 51 52 50 47 45 47 47 52 53 51 47 46 60 62 57 48 44
19 18 23 25 26 25 24 22 22 22 23 23 22 23 25 25 25 25 25 23 26 35 37 39 43 46 50 51 52 53 53 50 48 49 45 46 46 45 47 48 53 55 55 52 57 69 65 59 49
20 20 23 25 27 27 26 25 25 24 23 22 22 24 26 24 21 21 22 22 22 25 34 39 40 41 44 46 48 46 45 45 47 47 46 49 49 44 45 46 49 53 57 57 58 68 75 72 61
23 23 23 28 30 30 27 26 25 24 24 23 23 22 24 17 16 16 15 14 12 13 17 23 32 39 41 43 43 44 44 44 45 45 47 50 51 51 50 49 47 47 49 56 60 61 69 76 74
25 29 31 31 31 31 29 29 26 26 25 21 19 16 15 14 13 13 11 9 7 8 9 12 15 19 28 33 36 37 39 42 52 51 51 51 52 53 55 54 53 50 50 50 53 60 61 65 66
26 30 31 31 31 32 31 27 23 19 15 11 10 10 10 11 10 9 8 8 8 8 7 7 8 11 13 17 24 29 33 36 39 42 49 52 50 50 51 54 57 55 53 53 54 53 55 60 62
27 30 32 33 33 32 28 20 13 10 8 8 9 9 9 9 8 8 9 11 11 10 10 10 9 8 8 8 11 15 22 28 33 38 40 45 48 49 50 51 57 59 60 58 56 54 54 56 60
30 31 32 32 28 23 19 12 9 9 8 9 9 9 9 10 10 12 12 12 12 12 12 12 11 11 10 10 9 8 9 15 23 28 35 38 42 43 46 48 49 57 61 63 63 65 59 58 61
28 28 26 22 17 15 11 9 9 8 7 8 8 10 12 14 15 15 14 14 14 14 13 13 12 12 11 11 11 11 11 10 9 15 26 35 38 41 44 45 47 52 62 64 62 66 70 66 65
20 18 18 15 13 10 11 10 10 8 9 10 12 13 15 17 18 17 17 17 17 17 18 17 16 15 14 13 13 14 13 13 13 12 11 21 32 38 47 50 49 54 62 62 58 59 71 72 71
16 15 14 13 11 11 11 10 12 10 12 15 17 18 19 20 20 19 20 21 22 23 22 21 21 20 19 17 16 15 15 15 15 15 16 13 18 25 38 49 60 57 57 63 63 63 69 81 77
14 14 15 15 14 15 13 9 11 13 16 17 18 19 22 23 23 23 25 27 26 25 24 25 25 23 23 22 21 21 19 17 16 16 17 17 17 17 25 38 54 68 66 64 67 74 74 78 76
18 17 15 16 16 16 15 12 14 17 18 17 20 22 24 26 27 28 29 28 27 27 27 27 26 24 24 23 24 25 25 24 22 20 19 18 18 20 22 26 38 58 69 67 70 75 79 75 71
20 15 15 16 19 19 20 20 19 18 19 20 23 25 27 30 31 30 29 29 29 30 31 30 30 27 26 26 25 26 28 29 28 27 27 25 22 22 28 30 29 41 58 70 73 74 79 79 75
19 19 19 22 22 25 26 25 21 20 22 25 26 29 32 32 30 30 30 30 32 34 34 34 33 32 30 30 28 27 27 29 29 30 32 32 30 29 28 33 33 33 42 58 74 79 80 77 80
21 22 27 26 27 31 30 30 24 25 28 28 30 32 32 31 31 32 31 32 33 33 36 37 36 36 34 30 30 32 30 32 34 32 35 40 36 33 31 30 37 38 41 50 60 72 82 85 89
29 28 31 35 35 34 36 31 31 31 31 31 31 32 32 32 33 33 33 32 30 31 36 38 38 38 36 32 32 29 33 39 43 47 44 42 43 43 38 31 31 42 47 52 61 68 76 87 93
33 35 38 42 44 43 40 41 32 32 30 31 31 32 33 35 33 32 30 27 29 32 38 41 39 37 39 41 40 40 41 44 51 51 60 64 61 56 53 46 33 37 50 56 63 72 78 85 90
41 40 44 47 49 50 45 52 34 29 30 31 34 35 35 32 29 26 24 27 31 35 40 41 42 41 42 46 48 51 54 60 65 66 71 78 76 76 73 57 49 41 49 57 72 81 86 86 82
44 48 50 47 51 56 46 50 39 31 29 32 35 37 32 29 24 22 24 27 32 37 40 40 44 44 48 50 52 53 58 64 71 79 82 89 87 87 92 86 72 60 51 57 65 97 98 99 89
47 48 50 45 56 53 51 53 39 31 34 36 39 33 29 24 22 23 23 25 30 36 40 41 46 46 51 53 54 56 60 65 74 82 91 97 99 90 91 87 86 79 69 57 58 75 98 98 98
45 41 46 33 52 54 47 50 32 33 33 37 35 28 27 26 24 22 22 23 25 32 39 42 44 48 53 57 53 56 57 63 73 80 89 93 93 95 93 95 94 88 80 70 75 88 97 98 97
42 48 44 49 54 58 47 36 28 28 32 33 31 28 29 26 25 22 23 24 26 28 32 36 41 46 51 56 61 63 64 58 63 71 77 77 85 81 88 92 95 95 92 89 90 92 96 96 95
45 42 47 51 42 48 40 37 30 28 28 30 29 27 26 25 24 24 25 27 28 29 30 34 37 41 46 49 50 51 58 62 59 62 69 71 75 76 77 78 74 86 85 84 88 89 89 86 82
44 48 46 43 45 51 47 34 21 25 25 28 27 26 26 26 28 29 28 30 32 33 34 33 33 32 28 26 26 25 24 29 41 48 47 46 44 52 58 63 66 62 61 64 69 75 75 67 67
36 41 43 47 36 48 47 41 20 24 25 27 27 26 27 27 28 30 31 32 34 35 35 34 32 29 28 28 27 26 24 22 19 15 15 28 33 30 27 25 30 37 50 58 57 55 53 51 46